[[{"header":{"parameterUnit":"m.s-1","parameterCategory":1,"la1":30.6,"la2":29.2853,"lo1":-89.7004,"lo2":-87.6739,"dx":0.0162,"dy":0.0183,"nx":112,"ny":82,"refTime":"2022-11-09T06:00:00:Z","depth":0,"parameterNumber":2,"parameterNumberName":"U-component_of_WINDS"},"data":[0.0,0.0,0.0,0.0,0.0,0.0,0.0,0.0,0.0,0.0,0.0,0.0,0.0,0.0,0.0,0.0,0.0,0.0,0.0,0.0,0.0,0.0,0.0,0.0,0.0,0.0,0.0,0.0,0.0,0.0,0.0,0.0,0.0,0.0,0.0,0.0,0.0,0.0,0.0,0.0,0.0,0.0,0.0,0.0,0.0,0.0,0.0,0.0,0.0,0.0,0.0,0.0,0.0,0.0,0.0,0.0,0.0,0.0,0.0,0.0,0.0,0.0,0.0,0.0,0.0,0.0,0.0,0.0,0.0,0.0,0.0,0.0,0.0,0.0,0.0,0.0,0.0,0.0,0.0,0.0,0.0,0.0,0.0,0.0,0.0,0.0,0.0,0.0,0.0,0.0,4.1096,4.2877,4.4215,4.4522,4.3444,4.3203,4.0772,3.5223,0.0,0.0,0.0,0.0,0.0,0.0,0.0,0.0,0.0,0.0,0.0,0.0,0.0,0.0,0.0,0.0,0.0,0.0,0.0,0.0,0.0,0.0,0.0,0.0,0.0,0.0,0.0,0.0,0.0,0.0,0.0,0.0,0.0,0.0,0.0,0.0,0.0,0.0,0.0,0.0,0.0,0.0,0.0,0.0,0.0,0.0,0.0,0.0,0.0,0.0,0.0,0.0,0.0,0.0,0.0,0.0,0.0,0.0,0.0,0.0,0.0,0.0,0.0,0.0,0.0,0.0,0.0,0.0,0.0,0.0,0.0,0.0,0.0,0.0,0.0,0.0,0.0,0.0,0.0,0.0,0.0,0.0,0.0,0.0,0.0,0.0,0.0,0.0,0.0,0.0,0.0,0.0,0.0,0.0,0.0,0.0,0.0,0.0,0.0,0.0,0.0,0.0,0.0,0.0,4.1772,4.5322,4.593,4.562,4.4545,4.3686,4.1461,3.7383,0.0,0.0,0.0,0.0,0.0,0.0,0.0,0.0,0.0,0.0,0.0,0.0,0.0,0.0,0.0,0.0,0.0,0.0,0.0,0.0,0.0,0.0,0.0,0.0,0.0,0.0,0.0,0.0,0.0,0.0,0.0,0.0,0.0,0.0,0.0,0.0,0.0,0.0,0.0,0.0,0.0,0.0,0.0,0.0,0.0,0.0,0.0,0.0,0.0,0.0,0.0,0.0,0.0,0.0,0.0,0.0,0.0,0.0,0.0,0.0,0.0,0.0,0.0,0.0,0.0,0.0,0.0,0.0,0.0,0.0,0.0,0.0,0.0,0.0,0.0,0.0,0.0,0.0,0.0,0.0,0.0,0.0,0.0,0.0,0.0,0.0,0.0,0.0,0.0,0.0,0.0,0.0,0.0,0.0,0.0,0.0,0.0,0.0,0.0,0.0,0.0,0.0,0.0,4.0412,4.3286,4.5356,4.619,4.6066,4.4675,4.4424,4.2286,3.7477,3.5497,0.0,0.0,0.0,0.0,0.0,0.0,0.0,0.0,0.0,0.0,0.0,0.0,0.0,0.0,0.0,0.0,0.0,0.0,0.0,0.0,0.0,0.0,0.0,0.0,0.0,0.0,0.0,0.0,0.0,0.0,0.0,0.0,0.0,0.0,0.0,0.0,0.0,0.0,0.0,0.0,0.0,0.0,0.0,0.0,0.0,0.0,0.0,0.0,0.0,0.0,0.0,0.0,0.0,0.0,0.0,0.0,0.0,0.0,0.0,0.0,0.0,0.0,0.0,0.0,0.0,0.0,0.0,0.0,0.0,0.0,0.0,0.0,0.0,0.0,0.0,0.0,0.0,0.0,0.0,0.0,0.0,0.0,0.0,0.0,0.0,0.0,0.0,0.0,0.0,0.0,0.0,0.0,0.0,0.0,0.0,0.0,0.0,0.0,0.0,0.0,0.0,0.0,4.2219,4.4579,4.5044,4.5845,4.5815,4.4598,4.4201,4.1989,3.7132,3.5036,0.0,0.0,0.0,0.0,0.0,0.0,0.0,0.0,0.0,0.0,0.0,0.0,0.0,0.0,0.0,0.0,0.0,0.0,0.0,0.0,0.0,0.0,0.0,0.0,0.0,0.0,0.0,0.0,0.0,0.0,0.0,0.0,0.0,0.0,0.0,0.0,0.0,0.0,0.0,0.0,0.0,0.0,0.0,0.0,0.0,0.0,0.0,0.0,0.0,0.0,0.0,0.0,0.0,0.0,0.0,0.0,0.0,0.0,0.0,0.0,0.0,0.0,0.0,0.0,0.0,0.0,0.0,0.0,0.0,0.0,0.0,0.0,0.0,0.0,0.0,0.0,0.0,0.0,0.0,0.0,0.0,0.0,0.0,0.0,0.0,0.0,0.0,0.0,0.0,0.0,0.0,0.0,0.0,0.0,0.0,0.0,0.0,0.0,0.0,0.0,0.0,0.0,4.2867,4.5044,4.5337,4.4949,4.4694,4.4769,4.2055,3.9381,3.7061,3.3879,0.0,0.0,0.0,0.0,0.0,0.0,0.0,0.0,0.0,0.0,0.0,0.0,0.0,0.0,0.0,0.0,0.0,0.0,0.0,0.0,0.0,0.0,0.0,0.0,0.0,0.0,0.0,0.0,0.0,0.0,0.0,0.0,0.0,0.0,0.0,0.0,0.0,0.0,0.0,0.0,0.0,0.0,0.0,0.0,0.0,0.0,0.0,0.0,0.0,0.0,0.0,0.0,0.0,0.0,0.0,0.0,0.0,0.0,0.0,0.0,0.0,0.0,0.0,0.0,0.0,0.0,0.0,0.0,0.0,0.0,0.0,0.0,0.0,0.0,0.0,0.0,0.0,0.0,0.0,0.0,0.0,0.0,0.0,0.0,0.0,0.0,0.0,0.0,0.0,0.0,0.0,0.0,0.0,0.0,0.0,0.0,0.0,0.0,0.0,0.0,0.0,0.0,4.1145,4.2805,0.0,4.3799,4.3993,4.3702,4.291,4.0972,3.7545,0.0,0.0,0.0,0.0,0.0,0.0,0.0,0.0,0.0,0.0,0.0,0.0,0.0,0.0,0.0,0.0,0.0,0.0,0.0,0.0,0.0,0.0,0.0,0.0,0.0,0.0,0.0,0.0,0.0,0.0,0.0,0.0,0.0,0.0,0.0,0.0,0.0,0.0,0.0,0.0,0.0,0.0,0.0,0.0,0.0,0.0,0.0,0.0,0.0,0.0,0.0,0.0,0.0,0.0,0.0,0.0,0.0,0.0,0.0,0.0,0.0,0.0,0.0,0.0,0.0,0.0,0.0,0.0,0.0,0.0,0.0,0.0,0.0,0.0,0.0,0.0,0.0,0.0,0.0,0.0,0.0,0.0,0.0,0.0,0.0,0.0,0.0,0.0,0.0,0.0,0.0,0.0,0.0,0.0,0.0,0.0,0.0,0.0,0.0,0.0,0.0,0.0,3.8331,4.0619,4.2304,0.0,4.3553,4.3758,4.3307,4.2931,4.1155,3.7528,0.0,0.0,0.0,0.0,0.0,0.0,0.0,0.0,0.0,0.0,0.0,0.0,0.0,0.0,0.0,0.0,0.0,0.0,0.0,0.0,0.0,0.0,0.0,0.0,0.0,0.0,0.0,0.0,0.0,0.0,0.0,0.0,0.0,0.0,0.0,0.0,0.0,0.0,0.0,0.0,0.0,0.0,0.0,0.0,0.0,0.0,0.0,0.0,0.0,0.0,0.0,0.0,0.0,0.0,0.0,0.0,0.0,0.0,0.0,0.0,0.0,0.0,0.0,0.0,0.0,0.0,0.0,0.0,0.0,0.0,0.0,0.0,0.0,0.0,0.0,0.0,0.0,0.0,0.0,0.0,0.0,0.0,0.0,0.0,0.0,0.0,0.0,0.0,0.0,0.0,0.0,0.0,0.0,0.0,0.0,0.0,0.0,0.0,0.0,0.0,0.0,0.0,3.8529,4.1794,4.4237,4.4836,4.4358,4.3974,4.3897,4.1584,3.9132,0.0,0.0,0.0,0.0,0.0,0.0,0.0,0.0,0.0,0.0,0.0,0.0,0.0,0.0,0.0,0.0,0.0,0.0,0.0,0.0,0.0,0.0,0.0,0.0,0.0,0.0,0.0,0.0,0.0,0.0,0.0,0.0,0.0,0.0,0.0,0.0,0.0,0.0,0.0,0.0,0.0,0.0,0.0,0.0,0.0,0.0,0.0,0.0,0.0,0.0,0.0,0.0,0.0,0.0,0.0,0.0,0.0,0.0,0.0,0.0,0.0,0.0,0.0,0.0,0.0,0.0,0.0,0.0,0.0,0.0,0.0,0.0,0.0,0.0,0.0,0.0,0.0,0.0,0.0,0.0,0.0,0.0,0.0,0.0,0.0,0.0,0.0,0.0,0.0,0.0,0.0,0.0,0.0,0.0,0.0,0.0,0.0,0.0,0.0,0.0,0.0,0.0,0.0,3.9209,4.2059,4.4065,4.4259,4.4108,4.3978,4.3967,4.3272,4.1477,3.8236,0.0,0.0,0.0,0.0,0.0,0.0,0.0,0.0,0.0,0.0,0.0,0.0,0.0,0.0,0.0,0.0,0.0,0.0,0.0,0.0,0.0,0.0,0.0,0.0,0.0,0.0,0.0,0.0,0.0,0.0,0.0,0.0,0.0,0.0,0.0,0.0,0.0,0.0,0.0,0.0,0.0,0.0,0.0,0.0,0.0,0.0,0.0,0.0,0.0,0.0,0.0,0.0,0.0,0.0,0.0,0.0,0.0,0.0,0.0,0.0,0.0,0.0,0.0,0.0,0.0,0.0,0.0,0.0,0.0,0.0,0.0,0.0,0.0,0.0,0.0,0.0,0.0,0.0,0.0,0.0,0.0,0.0,0.0,0.0,0.0,0.0,0.0,0.0,0.0,0.0,0.0,0.0,0.0,0.0,0.0,0.0,0.0,0.0,0.0,0.0,0.0,0.0,3.949,4.2591,4.4763,4.4763,4.4763,4.4669,4.4356,4.4378,4.3094,4.0058,0.0,0.0,0.0,0.0,0.0,0.0,0.0,0.0,0.0,0.0,0.0,0.0,0.0,0.0,0.0,0.0,0.0,0.0,0.0,0.0,0.0,0.0,0.0,0.0,0.0,0.0,0.0,0.0,0.0,0.0,0.0,0.0,0.0,0.0,0.0,0.0,0.0,0.0,0.0,0.0,0.0,0.0,0.0,0.0,0.0,0.0,0.0,0.0,0.0,0.0,0.0,0.0,0.0,0.0,0.0,0.0,0.0,0.0,0.0,0.0,0.0,0.0,0.0,0.0,0.0,0.0,0.0,0.0,0.0,0.0,0.0,0.0,0.0,0.0,0.0,0.0,0.0,0.0,0.0,0.0,0.0,0.0,0.0,0.0,0.0,0.0,0.0,0.0,0.0,0.0,0.0,0.0,0.0,0.0,0.0,0.0,0.0,0.0,0.0,0.0,0.0,0.0,3.9516,4.3243,4.5917,4.5917,4.5917,4.5656,4.5046,4.4988,4.4107,4.202,0.0,0.0,0.0,0.0,0.0,0.0,0.0,0.0,0.0,0.0,0.0,0.0,0.0,0.0,0.0,0.0,0.0,0.0,0.0,0.0,0.0,0.0,0.0,0.0,0.0,0.0,0.0,0.0,0.0,0.0,0.0,0.0,0.0,0.0,0.0,0.0,0.0,0.0,0.0,0.0,0.0,0.0,0.0,0.0,0.0,0.0,0.0,0.0,0.0,0.0,0.0,0.0,0.0,0.0,0.0,0.0,0.0,0.0,0.0,0.0,2.9017,0.0,0.0,0.0,0.0,0.0,0.0,0.0,0.0,0.0,0.0,0.0,0.0,0.0,0.0,0.0,0.0,0.0,0.0,0.0,0.0,0.0,0.0,0.0,0.0,0.0,0.0,0.0,0.0,0.0,0.0,0.0,0.0,0.0,0.0,0.0,0.0,0.0,0.0,0.0,0.0,0.0,4.013,4.3526,4.5917,4.5917,4.5917,4.5859,4.5714,4.5685,4.4778,4.262,4.1932,0.0,0.0,0.0,0.0,0.0,0.0,0.0,0.0,0.0,0.0,0.0,0.0,0.0,0.0,0.0,0.0,0.0,0.0,0.0,0.0,0.0,0.0,0.0,0.0,0.0,0.0,0.0,0.0,0.0,0.0,0.0,0.0,0.0,0.0,0.0,0.0,0.0,0.0,0.0,0.0,0.0,0.0,0.0,0.0,0.0,0.0,0.0,0.0,0.0,0.0,0.0,0.0,0.0,0.0,0.0,0.0,0.0,0.0,0.0,0.0,2.9644,0.0,0.0,0.0,0.0,0.0,0.0,0.0,0.0,0.0,0.0,0.0,0.0,0.0,0.0,0.0,0.0,0.0,0.0,0.0,0.0,0.0,0.0,0.0,0.0,0.0,0.0,0.0,0.0,0.0,0.0,0.0,0.0,0.0,0.0,0.0,0.0,0.0,0.0,0.0,0.0,4.1499,4.4131,4.5917,4.5917,4.5917,4.5917,4.5917,4.5917,4.5425,4.4315,4.3254,0.0,0.0,0.0,0.0,0.0,0.0,0.0,0.0,0.0,0.0,0.0,0.0,0.0,0.0,0.0,0.0,0.0,0.0,0.0,0.0,0.0,0.0,0.0,0.0,0.0,0.0,0.0,0.0,0.0,0.0,0.0,0.0,0.0,0.0,0.0,0.0,0.0,0.0,0.0,0.0,0.0,0.0,0.0,0.0,0.0,0.0,0.0,0.0,0.0,0.0,0.0,0.0,0.0,3.2286,3.2286,3.2286,3.2432,3.2432,3.2256,3.1935,3.2128,3.2507,3.0438,0.0,0.0,0.0,0.0,0.0,0.0,0.0,0.0,0.0,0.0,0.0,0.0,0.0,0.0,0.0,0.0,0.0,0.0,0.0,0.0,0.0,0.0,0.0,0.0,4.0806,4.0875,3.8267,0.0,0.0,0.0,0.0,0.0,0.0,0.0,0.0,0.0,0.0,0.0,4.281,4.4698,4.5917,4.5917,4.5917,4.5917,4.5917,4.5917,4.5917,4.5917,4.4248,4.3119,0.0,0.0,0.0,0.0,0.0,0.0,0.0,0.0,0.0,0.0,0.0,0.0,0.0,0.0,0.0,0.0,0.0,0.0,0.0,0.0,0.0,0.0,0.0,0.0,0.0,0.0,0.0,0.0,0.0,0.0,0.0,0.0,2.6783,2.848,0.0,0.0,0.0,0.0,0.0,0.0,0.0,0.0,0.0,0.0,0.0,0.0,0.0,3.1863,3.3545,3.3571,3.4321,3.5751,3.5751,3.5751,3.5751,3.5774,3.5774,3.5701,3.467,0.0,3.3288,3.3394,0.0,0.0,0.0,0.0,0.0,0.0,0.0,0.0,0.0,0.0,0.0,0.0,0.0,0.0,0.0,0.0,0.0,0.0,0.0,0.0,0.0,0.0,4.0751,4.0893,4.1058,4.1284,0.0,4.0014,3.8227,3.7499,3.8282,0.0,0.0,0.0,0.0,0.0,0.0,0.0,4.2963,4.4698,4.5917,4.5917,4.5917,4.5917,4.5917,4.5917,4.5917,4.5917,4.5614,4.5439,4.5395,4.3259,0.0,0.0,0.0,0.0,0.0,0.0,0.0,0.0,0.0,0.0,0.0,0.0,0.0,0.0,0.0,0.0,0.0,0.0,0.0,0.0,0.0,0.0,0.0,0.0,0.0,0.0,0.0,0.0,0.0,2.5516,2.7052,2.9015,2.8859,2.8299,0.0,0.0,0.0,0.0,0.0,0.0,0.0,0.0,0.0,3.2767,3.3093,3.3897,3.5301,3.5301,3.5678,3.6405,3.6405,3.6405,3.6405,3.6405,3.6405,3.638,3.5879,3.5422,3.5035,3.4659,3.4597,3.4644,0.0,0.0,0.0,0.0,3.1758,3.1895,3.2443,3.3808,3.5206,3.4625,0.0,0.0,0.0,0.0,0.0,0.0,0.0,3.6563,0.0,0.0,3.9815,4.0803,4.1269,4.1603,4.2025,4.198,4.1532,0.0,4.0764,4.0627,3.9028,0.0,0.0,0.0,0.0,4.395,4.5024,4.6214,4.6824,4.6446,4.6417,4.6272,4.5946,4.5917,4.5917,4.5917,4.5917,4.5917,4.5917,4.4843,4.3484,0.0,0.0,0.0,0.0,0.0,0.0,0.0,0.0,0.0,0.0,0.0,0.0,0.0,0.0,0.0,0.0,0.0,0.0,0.0,0.0,0.0,0.0,0.0,0.0,0.0,0.0,0.0,0.0,2.643,2.7542,2.9639,2.937,2.8789,0.0,0.0,0.0,0.0,0.0,0.0,3.179,3.2208,3.3137,3.47,3.5127,3.5805,3.6808,3.6808,3.6808,3.6808,3.6808,3.6808,3.6808,3.6808,3.6808,3.6808,3.6808,3.6808,3.6708,3.5604,3.5319,3.5532,3.5102,3.4654,3.4189,3.3539,3.3411,3.3611,3.3676,3.46,3.5785,3.5833,3.598,3.6164,3.6467,0.0,0.0,0.0,0.0,3.6533,3.715,3.7794,3.8629,3.9937,4.0526,4.089,4.1129,4.2167,4.2962,0.0,4.2926,4.2802,4.154,0.0,0.0,0.0,0.0,4.5488,4.6859,4.7491,4.7608,4.7091,4.7062,4.6882,4.644,4.6214,4.6127,4.6127,4.5982,4.5917,4.5917,4.5917,4.5061,4.3269,0.0,0.0,0.0,0.0,0.0,0.0,0.0,0.0,0.0,0.0,0.0,0.0,0.0,0.0,0.0,0.0,0.0,0.0,0.0,0.0,0.0,0.0,0.0,0.0,0.0,0.0,0.0,0.0,0.0,3.0721,3.1884,0.0,0.0,0.0,0.0,2.8612,2.8673,2.9985,3.2855,3.3044,3.4282,3.6936,3.706,3.7337,3.7914,3.7914,3.7914,3.7914,3.7914,3.7914,3.7914,3.7914,3.7914,3.7914,3.7914,3.7914,3.7839,3.6758,3.6607,3.6934,3.5328,3.5163,3.5699,3.4891,3.5085,3.5877,3.6679,3.7361,3.7839,3.7839,3.8414,3.8789,3.7189,3.7712,0.0,0.0,3.6328,3.7521,3.6678,3.7229,3.8037,3.8138,3.8163,3.8433,3.9329,3.9594,4.0393,0.0,4.4623,4.5308,4.403,0.0,4.6098,4.4966,4.6411,4.766,4.7747,4.7776,4.7805,4.7747,4.7747,4.7747,4.7718,4.7143,4.6743,4.6743,4.6214,4.5917,4.5917,4.5917,4.5859,4.5714,4.3304,0.0,0.0,0.0,0.0,0.0,0.0,0.0,0.0,0.0,0.0,0.0,0.0,0.0,0.0,0.0,0.0,0.0,0.0,0.0,0.0,0.0,0.0,0.0,0.0,0.0,0.0,0.0,0.0,2.8362,2.9137,0.0,2.875,2.943,3.0138,3.0628,3.1367,3.27,3.4789,3.4863,3.5398,3.6575,3.7171,3.7617,3.8015,3.7817,3.7817,3.8015,3.8015,3.8015,3.8015,3.8015,3.8015,3.8015,3.8015,3.8015,3.7965,3.7588,3.7538,3.7663,3.7061,3.7008,3.7207,3.6934,3.7008,3.7307,3.7612,3.7839,3.8015,3.8015,3.8215,3.8364,3.7735,3.7902,3.817,3.7201,3.7398,3.7847,3.7509,3.8014,3.8668,3.8994,3.9371,3.98,4.0489,4.1157,4.1946,4.2885,4.3737,4.4277,4.4197,4.5637,4.6656,4.6192,4.7782,4.888,4.8449,4.9117,4.9345,4.8478,4.8391,4.8217,4.7834,4.7579,4.7433,4.7433,4.6853,4.6482,4.6482,4.6098,4.5917,4.5917,4.5017,4.3034,0.0,0.0,0.0,0.0,0.0,0.0,0.0,0.0,0.0,0.0,0.0,0.0,0.0,0.0,0.0,0.0,0.0,0.0,0.0,0.0,0.0,0.0,0.0,0.0,0.0,0.0,2.6693,2.7276,2.7923,2.8333,2.8333,2.9367,3.0323,3.1124,3.2017,3.3121,3.451,3.454,3.4869,3.5627,3.6601,3.7309,3.7709,3.7886,3.8088,3.8266,3.8391,3.8442,3.8442,3.8718,3.8843,3.8868,3.9019,3.9094,3.9094,3.9094,3.9094,3.9019,3.8291,3.8015,3.8015,3.8015,3.8015,3.8015,3.8015,3.8015,3.8015,3.8015,3.814,3.8341,3.8517,3.8693,3.8894,3.9044,3.9094,3.9094,3.9094,3.9421,3.9798,4.0174,4.0499,4.0876,4.1227,4.1864,4.2368,4.2368,4.3111,4.3899,4.4499,4.5533,4.6321,4.6465,4.7579,4.827,4.7811,4.8914,4.9403,4.8508,4.8798,4.8885,4.8473,4.784,4.7637,4.8072,4.7114,4.6685,4.7143,4.6127,4.5482,4.5256,4.4385,4.2947,4.0906,0.0,0.0,0.0,0.0,0.0,0.0,0.0,0.0,0.0,0.0,0.0,0.0,0.0,0.0,0.0,0.0,0.0,0.0,0.0,0.0,0.0,0.0,0.0,2.5611,2.6926,2.7794,2.7814,2.8741,2.9421,2.9421,2.977,3.0028,3.0056,3.0278,3.0921,3.2048,3.2102,3.2863,3.4464,3.5686,3.6602,3.72,3.8287,3.8838,3.8838,3.9177,3.9334,3.9358,4.0169,4.0524,4.0549,4.1076,4.1302,4.1302,4.1302,4.1302,4.1102,3.8918,3.8115,3.8115,3.8115,3.8115,3.8115,3.8115,3.8115,3.8115,3.8115,3.8492,3.907,3.9597,4.0124,4.0625,4.1152,4.1302,4.1302,4.1302,4.1302,4.1302,4.1327,4.1327,4.1327,4.1352,4.1352,4.1352,4.1352,4.2971,4.452,4.5096,4.5228,4.5411,4.5933,4.6063,0.0,4.6063,4.7166,4.7921,4.7834,4.8996,4.9751,4.9635,4.8014,4.7468,4.8658,4.6998,4.6556,4.7776,4.6005,4.4727,4.4124,4.1508,4.1494,4.4235,0.0,0.0,0.0,0.0,0.0,0.0,0.0,0.0,0.0,0.0,0.0,0.0,0.0,0.0,0.0,0.0,0.0,0.0,0.0,0.0,0.0,0.0,2.6938,2.6933,2.7402,2.795,2.8534,2.9148,2.9533,2.9533,2.9926,3.05,3.1378,3.1025,3.1917,3.4528,3.4618,3.5508,3.7442,3.8452,3.9123,3.9509,3.9618,3.9753,3.9967,4.0048,4.0102,4.0102,4.0573,4.0782,4.0809,4.1171,4.1302,4.1302,4.1302,4.1302,4.1225,4.065,4.0399,4.0399,4.0399,4.0399,4.0399,4.0399,4.0399,4.0399,4.0399,4.0499,4.0675,4.0826,4.0976,4.1127,4.1277,4.1302,4.1302,4.1302,4.1302,4.1403,4.1831,4.1959,4.206,4.2434,4.2534,4.2534,4.2534,4.3005,4.3672,4.4602,4.5764,4.6902,4.7791,4.9146,0.0,4.9432,5.0477,5.0564,4.8682,5.0452,5.0855,4.8531,4.9524,5.0046,4.9465,4.8478,4.8077,4.8426,4.7521,4.6934,4.676,4.3092,4.1831,0.0,0.0,0.0,0.0,0.0,0.0,0.0,0.0,0.0,0.0,0.0,0.0,0.0,0.0,0.0,0.0,0.0,0.0,0.0,0.0,0.0,0.0,2.7427,2.818,2.8298,2.8408,2.8679,2.9141,2.957,2.9931,3.0126,3.0508,3.1111,3.2024,3.1692,3.2245,3.4143,3.418,3.4976,3.6726,3.7752,3.8596,3.9288,3.9644,3.9916,4.0081,4.019,4.022,4.0245,4.0819,4.1054,4.1106,4.1604,4.1788,4.1788,4.195,4.2005,0.0,0.0,0.0,0.0,0.0,4.1302,4.1302,4.1302,4.1302,4.1302,4.1302,4.1302,4.1352,4.1605,4.1681,4.1731,4.1957,4.2005,4.2055,4.2281,4.2331,4.2482,4.3062,4.3215,4.3291,4.3589,4.3664,4.3664,4.3664,4.3664,0.0,4.513,4.5301,4.5463,4.6023,4.771,4.8776,4.8456,5.0146,5.0797,4.9291,5.0946,5.141,4.9553,5.0249,0.0,0.0,0.0,4.8264,4.7286,4.6177,0.0,0.0,0.0,4.0997,4.2237,4.0003,0.0,0.0,3.8199,3.6711,0.0,0.0,0.0,0.0,0.0,0.0,0.0,0.0,0.0,0.0,0.0,0.0,0.0,0.0,0.0,0.0,2.7806,2.8789,2.9637,2.9794,2.9794,2.9755,3.0098,3.0527,3.0996,3.1367,3.1758,3.2179,3.2198,3.2279,3.247,0.0,0.0,0.0,0.0,3.6796,3.7964,3.9168,3.9777,3.9777,4.0003,4.0165,4.0238,4.1055,4.1492,4.1594,4.2372,4.2712,4.2768,4.305,4.319,4.309,4.193,4.1503,4.1503,4.1503,4.1503,4.1503,4.1503,0.0,0.0,4.1578,4.1628,4.1779,4.2311,4.2462,4.2562,4.3065,4.319,4.3291,4.3765,4.389,4.4016,4.4489,4.4589,4.4589,4.4589,4.4589,4.4589,4.4589,4.4589,4.4937,4.5943,4.4427,4.3152,4.3301,4.4587,4.5584,4.5813,4.8219,4.9845,4.9613,5.1016,0.0,5.1237,5.0523,5.044,5.1145,4.9593,4.7689,4.5588,4.3857,4.2191,4.0579,3.9714,4.0117,4.1847,4.0775,4.1104,4.2632,3.8574,3.7791,0.0,0.0,0.0,0.0,0.0,0.0,0.0,0.0,0.0,0.0,0.0,0.0,0.0,0.0,0.0,2.8206,2.9121,3.0019,3.0566,3.0937,3.1016,3.0684,3.1016,3.1426,3.1905,3.2022,3.2101,3.2198,3.2198,3.2792,3.4155,3.4206,3.4956,3.6613,3.7888,3.8684,3.8941,4.0234,4.0884,4.0884,0.0,0.0,4.1625,4.2011,4.2568,4.3266,4.3685,4.3999,4.4202,4.4263,4.4292,4.4192,4.3087,4.266,4.266,4.266,4.266,4.266,4.266,4.2961,4.3338,4.3338,4.3614,4.3987,4.4116,4.4141,0.0,4.4238,4.4292,4.4288,4.4414,4.4439,4.4464,4.4564,4.4589,4.4589,4.4589,4.4589,4.4589,4.4589,4.4589,4.4676,4.4908,4.4967,4.5739,4.8052,4.7902,4.8071,4.9522,5.0652,5.0701,4.9126,5.1942,5.2471,4.8918,5.1164,5.1592,4.8868,4.8322,4.7914,4.7483,4.6247,4.5633,4.5757,4.3827,4.3008,4.3362,4.231,4.1724,4.1599,4.0713,4.0536,0.0,0.0,0.0,0.0,0.0,0.0,0.0,0.0,0.0,0.0,0.0,2.7252,2.7252,0.0,2.8834,2.905,3.0104,3.1016,3.1494,3.1719,3.1758,3.1573,3.1719,3.2012,3.2472,3.2511,3.2559,3.2773,3.2793,3.328,3.4352,3.4403,3.521,3.6925,3.7607,3.8589,3.9944,4.0618,4.1295,4.1995,4.1995,4.214,4.2404,4.2528,4.2909,4.3448,4.3796,4.4119,4.4411,4.4531,4.4589,4.4539,4.4016,4.379,4.379,4.379,4.379,4.379,4.379,4.3991,4.4217,4.4217,4.4364,4.4589,4.4589,4.4589,4.4589,4.4589,4.4589,4.4665,4.497,4.5045,4.5121,4.5397,4.5443,4.5443,4.5443,4.5443,4.5443,4.5443,4.5443,4.5443,4.5443,4.549,4.5912,4.7039,4.7712,4.8416,4.9328,5.0734,5.1181,4.9886,5.146,5.1598,4.9112,5.0622,5.0793,4.8653,4.7991,4.7496,4.7176,4.6056,4.5587,4.5893,4.4792,4.42,4.4205,4.3644,4.3112,4.2532,4.2532,4.2283,0.0,0.0,0.0,0.0,0.0,0.0,0.0,0.0,2.7199,2.7918,2.7994,2.7963,2.8042,2.8807,2.957,3.0028,3.0957,3.1797,3.2257,3.2316,3.2374,3.255,3.2433,3.2511,3.2988,3.3047,3.3223,3.3601,3.364,3.3828,3.4212,3.4231,3.4983,3.669,3.6946,3.8257,4.0701,4.0999,4.169,4.2789,4.2789,4.2837,4.2934,4.2934,4.3132,4.3533,4.3939,4.4265,4.453,4.4799,4.4916,4.4916,4.4916,4.4916,4.489,4.4665,4.4589,4.4589,4.4589,4.4665,4.4765,4.4765,4.484,4.4916,4.4916,4.4916,4.4916,4.4916,4.4916,4.5016,4.5522,4.5648,4.5748,4.62,4.6301,4.6301,4.6301,4.6301,4.6301,4.6301,4.6301,4.6301,4.6301,4.5949,4.5561,4.5316,4.6678,4.7883,4.8221,4.9993,5.1062,5.0578,5.0727,5.0711,5.028,4.969,4.9249,4.9021,4.781,4.6861,4.6334,4.5414,4.4865,4.4765,4.4765,4.4715,4.4589,4.4589,4.4313,4.379,4.379,4.3291,2.3201,2.3906,2.5004,2.5503,2.6172,2.692,0.0,0.0,2.8354,2.9204,2.9646,3.0017,3.0448,3.0879,3.1367,3.1846,3.2022,3.2276,3.2656,3.2734,3.3008,3.3801,3.3184,3.3047,3.388,3.3958,3.4134,3.4531,3.4551,3.457,3.4629,3.4629,3.5314,3.6754,3.791,3.9228,4.0762,4.1962,4.264,4.2789,4.2789,4.303,4.3433,4.3433,4.385,4.4646,4.531,4.5583,4.5643,4.5975,4.6125,4.6125,4.6125,4.6125,4.5999,4.4966,4.4589,4.4589,4.4589,4.497,4.5397,4.5397,4.5723,4.6125,4.6125,4.6125,4.6125,4.6125,4.6125,4.6125,4.62,4.6225,4.6225,4.6301,4.6301,4.6301,4.6301,4.6301,4.6301,4.6301,4.6301,4.6301,4.6301,4.625,4.6564,4.7561,4.701,4.7052,4.8622,4.9516,4.9969,4.9891,5.0875,5.1494,5.1413,4.8953,4.7833,4.8836,4.7325,4.6385,4.6305,4.6185,4.5899,4.5397,4.5397,4.5146,4.4589,4.4589,4.4313,4.379,4.379,4.3463,2.5269,2.5234,2.5551,0.0,2.7676,2.778,2.9101,2.9394,2.9648,3.0527,3.084,3.1094,3.1573,3.1777,3.2031,0.0,3.257,3.2804,3.3437,3.3567,3.3801,3.4375,3.4121,3.4043,3.4394,3.4434,3.4512,3.4687,3.4707,3.4824,3.5078,3.5098,3.5858,3.7476,3.8063,3.942,4.1658,4.2211,4.2884,4.3673,4.3673,4.3763,4.3979,4.3979,4.4284,4.484,4.53,4.5514,4.5544,4.5878,4.5999,4.6029,4.621,4.6301,4.625,4.5773,4.5598,4.5598,4.5598,4.5773,4.5974,4.5974,4.6125,4.6301,4.6301,4.6301,4.6301,4.6301,4.6301,4.6301,4.6301,4.6301,4.6301,4.6301,4.6301,4.6301,4.6301,4.6301,4.6301,4.6301,4.6301,4.6301,4.6301,4.6301,4.6481,4.6968,4.7137,4.7489,4.8212,4.9121,4.9555,4.9249,4.9353,4.9425,4.9425,4.8299,4.7772,4.8299,4.7632,4.723,4.723,4.723,4.6979,4.6421,4.6451,4.5999,4.5121,4.5121,4.4669,4.379,4.379,4.3514,2.6484,2.6353,2.6412,2.8973,2.9168,2.907,3.0273,3.0644,3.0918,3.1562,3.1699,3.1836,3.2296,3.2374,3.255,3.3066,3.3144,3.3398,3.4173,3.4271,3.4394,3.4844,3.4883,3.4941,3.5059,3.4844,3.4805,3.5039,3.4961,3.5078,3.5547,3.5566,3.6356,3.8042,3.8474,3.9834,4.2293,4.2673,4.3357,4.4285,4.4285,4.4285,4.4285,4.4285,4.444,4.4687,4.5025,4.5208,4.5331,4.5666,4.5848,4.5969,4.621,4.6301,4.6301,4.6301,4.6301,4.6301,4.6301,4.6301,4.6301,4.6301,4.6301,4.6301,4.6301,4.6301,4.6301,4.6301,4.6301,4.6301,4.6301,4.6301,4.6301,4.6301,4.6301,4.6301,4.6301,4.6301,4.6301,4.6301,4.6426,4.6522,4.6522,4.6652,4.6753,4.6753,4.7556,4.8083,4.7933,4.8887,4.9439,4.9069,4.8611,4.8385,4.8385,4.8234,4.8159,4.8159,4.7983,4.7908,4.7908,4.7782,4.75,4.7124,4.6948,4.6496,4.5723,4.5723,4.5221,4.4267,4.4267,4.3966,2.6055,2.7018,2.7936,2.9266,3.0488,3.1406,3.1435,3.1797,3.214,3.2179,3.2179,3.2316,3.2695,3.2773,3.3047,3.3938,3.4055,3.4212,3.4609,3.4687,3.4844,3.5312,3.5371,3.5527,0.0,3.5215,3.5059,3.5884,3.5605,3.5566,3.5942,3.5962,3.662,3.8042,3.9408,4.0829,4.2293,4.3576,4.4254,4.4285,4.4285,4.4285,4.4285,4.4285,4.4316,4.4347,4.4687,4.4994,4.5331,4.5666,4.5999,4.6271,4.6301,4.6301,4.6301,4.6301,4.6301,4.6301,4.6301,4.6301,4.6301,4.6301,4.6301,4.6301,4.6301,4.6301,4.6301,4.6301,4.6301,4.6301,4.6301,4.6301,4.6301,4.6301,4.6301,4.6301,4.6301,4.6301,4.6301,4.6301,4.6722,4.7074,4.7074,4.7531,4.7857,4.7857,4.836,4.8567,4.7983,4.8887,4.959,4.9565,4.9565,4.954,4.954,4.9095,4.8768,4.8768,4.8209,4.7908,4.7908,4.74,4.7124,4.7099,4.6572,4.6326,4.6276,4.6276,4.5999,4.5447,4.5447,4.5121,2.8015,2.8738,2.9266,3.0527,3.1191,3.1601,3.1875,3.2101,3.2276,3.2519,3.2578,3.2824,3.3547,3.3665,3.386,3.4394,3.4492,3.4648,3.5098,3.5156,3.5312,3.5762,3.5801,0.0,0.0,0.0,0.0,3.5962,3.5845,3.5879,3.5982,3.5982,3.7059,3.9408,3.9932,4.1312,4.3608,4.4068,4.4285,4.4285,4.4285,4.4285,4.4285,4.4285,4.4285,4.4316,4.4656,4.4748,4.4687,4.5239,4.5392,4.5361,4.5787,4.5969,4.5999,4.621,4.6301,4.6301,4.6301,4.6301,4.6301,4.6301,4.6301,4.6301,4.6301,4.6301,4.6301,4.6301,4.6301,4.6301,4.6301,4.6301,4.6301,4.6301,4.6301,4.6301,4.6301,4.6301,4.6301,4.6301,4.6451,4.6572,4.6572,4.6728,4.6979,4.7299,4.8184,4.8868,4.9012,4.9364,4.959,4.959,4.959,4.959,4.959,4.9414,4.9314,4.9314,4.8818,4.8517,4.8517,4.7933,4.745,4.7124,4.6923,4.6471,4.5773,4.5773,4.5472,4.489,4.489,4.479,2.9285,2.995,3.0341,3.1465,3.1855,3.2051,3.2355,3.255,3.2695,3.2969,3.3144,3.3449,3.3997,3.4231,3.4492,3.5078,3.5039,3.5156,3.5762,3.5723,3.5723,3.5996,3.5982,3.5982,0.0,0.0,0.0,3.5982,3.5879,3.6062,3.6722,3.6742,3.7809,4.0127,4.0678,4.1793,4.3576,4.4068,4.4285,4.4285,4.4285,4.4285,4.4285,4.4285,4.4285,4.4316,4.4532,4.4563,4.4532,4.5086,4.5239,4.5208,4.5757,4.5969,4.5999,4.621,4.6301,4.6301,4.6301,4.6301,4.6301,4.6301,4.6301,4.6301,4.6301,4.6301,4.6301,4.6301,4.6301,4.6301,4.6301,4.6301,4.6301,4.6301,4.6301,4.6301,4.6301,4.6301,4.6301,4.6301,4.6446,4.6572,4.6572,4.6722,4.7004,4.7324,4.8008,4.8693,4.9238,4.9464,4.959,4.959,4.959,4.959,4.959,4.959,4.959,4.959,4.9264,4.9019,4.8818,4.8209,4.7626,4.7124,4.6898,4.6471,4.5773,4.5773,4.5598,4.5192,4.5192,4.5192,2.9844,3.0644,3.1221,3.2022,3.2519,3.2832,3.2832,3.3125,3.3347,3.3347,3.3711,3.4016,3.4036,3.4375,3.4961,3.582,3.5664,3.5703,3.6558,3.6289,3.5982,0.0,0.0,0.0,0.0,0.0,0.0,3.5982,3.5644,3.6189,3.7888,3.8042,3.8738,4.0159,4.1569,4.2325,4.2388,4.367,4.4285,4.4285,4.4285,4.4285,4.4285,4.4285,4.4285,4.4285,4.4316,4.4501,4.481,4.5147,4.5477,4.5806,4.614,4.6286,4.6311,4.6341,4.6341,4.6341,4.6341,4.6321,4.6301,4.6271,4.6271,4.6271,4.6271,4.6271,4.6271,4.6301,4.6301,4.6301,4.6271,4.6271,4.6271,4.624,4.624,4.624,4.6271,4.6271,4.6271,4.6301,4.6697,4.7074,4.7074,4.75,4.7857,4.7857,4.7883,4.8109,4.8693,4.9245,4.954,4.9515,4.9565,4.959,4.9565,4.9565,4.959,4.959,4.9565,4.9314,4.8818,4.8209,4.7682,4.7149,4.6622,4.6401,4.6401,4.6401,4.6376,4.6351,4.6351,4.6326,3.1319,3.2003,3.2363,3.2578,3.2949,3.3262,3.3262,3.3105,3.2949,3.2949,3.2824,3.2785,3.3098,3.3762,3.4414,3.4941,3.5508,0.0,3.6152,3.6094,0.0,3.5982,0.0,3.5982,3.5982,3.5982,0.0,0.0,3.5884,3.6034,3.6505,3.7528,3.8738,4.0159,4.1569,4.2768,4.3764,4.413,4.4285,4.4285,4.4285,4.4285,4.4285,4.4285,4.4285,4.4316,4.4563,4.4594,4.444,4.4779,4.5084,4.5299,4.5642,4.6011,4.641,4.666,4.6754,4.6754,4.6754,4.6575,4.624,4.5999,4.5939,4.5939,4.5939,4.5939,4.5969,4.621,4.6301,4.624,4.5999,4.5939,4.5848,4.5605,4.5544,4.5635,4.5878,4.5939,4.5999,4.624,4.6396,4.6496,4.6496,4.6948,4.7299,4.7299,4.7626,4.7958,4.8109,4.8636,4.8843,4.8385,4.9088,4.9439,4.9044,4.9364,4.959,4.959,4.9213,4.8944,4.8818,4.8209,4.7857,4.7707,4.7581,4.7506,4.7506,4.7506,4.7305,4.6898,4.6898,4.6672,3.212,3.2754,3.3066,3.3066,3.3242,3.3347,3.3184,3.2969,3.2734,3.2559,3.2511,3.2695,3.3476,3.4023,3.4668,3.5684,3.5937,0.0,3.6289,3.6133,3.5982,0.0,3.5982,0.0,3.5982,3.5982,3.5982,0.0,3.5982,3.6287,3.691,3.7662,3.9035,4.1055,4.1888,4.2925,4.4285,4.4285,4.4285,4.4285,4.4285,4.4436,4.4652,4.4652,4.4796,4.5013,0.0,4.517,4.5044,4.5358,4.5559,4.5699,4.6046,4.6343,4.6636,4.6826,4.6897,4.6897,4.6897,4.6754,4.6538,4.6353,4.6291,4.6322,4.6476,4.6507,4.6538,4.6722,4.6784,4.6692,4.6384,4.6291,4.6229,4.6044,4.6013,4.6106,4.6446,4.6507,4.66,4.6943,4.6798,4.6647,4.6647,4.6697,4.6747,4.6747,4.7029,4.7205,4.7205,4.7908,4.8259,4.7933,4.8485,4.8736,4.841,4.8686,4.8962,4.9213,4.8969,4.8793,4.8793,4.846,4.8159,4.7908,4.7908,4.7908,4.7908,4.7908,4.7757,4.745,4.745,4.7274,3.2559,3.3144,3.3386,3.3386,3.3457,3.3379,3.291,3.2793,3.2656,3.2218,3.2324,3.293,3.4199,3.4394,3.4922,3.6601,3.6191,3.584,3.6382,3.6074,3.5845,3.5982,3.5982,3.6001,3.6094,3.6079,3.6133,3.6191,3.6343,3.6881,3.7844,3.8279,3.98,4.2691,4.2786,4.3325,4.4501,4.4501,4.4501,4.4501,4.4501,4.4772,4.5205,4.5205,4.5469,4.5902,4.5902,4.5902,4.5934,4.6198,4.6374,4.6479,4.6766,4.6942,4.6991,4.6991,4.6991,4.6991,4.6991,4.6991,4.6966,4.6851,4.6834,4.689,4.7174,4.7269,4.73,4.7332,4.7332,4.7269,4.6897,4.6834,4.6834,4.6834,4.6834,4.6953,4.7332,4.7507,4.7707,4.8071,4.7726,4.7425,4.7425,4.7004,4.6627,4.6627,4.6577,4.6502,4.6426,4.723,4.7782,4.7707,4.7832,4.7883,4.7807,4.7857,4.8134,4.8667,4.8693,4.8693,4.8693,4.8768,4.8535,4.8033,4.8083,4.8134,4.8134,4.8134,4.8083,4.8033,4.8033,4.7983,3.3164,3.3359,3.3386,3.3386,3.3691,3.375,3.2969,3.2793,3.2578,3.1797,3.1406,3.1621,3.2891,3.2863,3.3078,3.4446,3.4199,3.4141,3.4922,3.498,3.5195,0.0,3.5982,3.6152,3.6523,3.6597,0.0,0.0,3.8214,3.8328,3.7011,3.9206,4.1967,4.5174,4.5294,4.539,4.5614,4.5614,4.5614,4.5614,4.5614,4.5662,4.5758,4.5758,4.5806,4.5902,4.5902,0.0,4.5902,4.5966,4.6239,4.6648,4.6713,4.7011,4.7397,4.7397,4.7397,4.7397,4.7397,4.7397,4.7318,4.6681,4.6509,4.6485,4.6573,4.6548,4.6636,4.6897,4.7016,4.6897,4.6548,4.6509,4.6509,4.6509,4.6509,4.6675,4.7338,4.8058,4.8698,4.9213,4.9238,4.9163,4.9163,4.8711,4.8391,4.8391,4.7933,4.7481,4.7023,4.7124,4.7074,4.6627,4.738,4.7732,4.7274,4.7657,4.7958,4.8058,4.8058,4.8058,4.8058,4.8542,4.8768,4.8667,4.9063,4.9314,4.9314,4.9314,4.9063,4.8642,4.8642,4.836,3.2773,3.3086,3.3476,3.3711,3.3926,3.388,3.2988,0.0,3.248,3.1406,3.1035,3.1289,3.2559,3.2492,3.2609,3.3899,3.4082,3.4219,3.4648,3.5098,3.5547,3.5942,3.623,3.6445,3.6695,3.691,3.709,3.7285,3.7967,3.8286,3.8168,4.0883,4.3183,4.4765,4.5524,4.5902,4.5902,4.5902,4.5902,4.5902,4.5902,4.6046,4.6343,4.6343,4.6487,4.6752,4.6752,4.6752,4.6752,4.6752,4.6896,4.7112,4.7112,4.7281,4.7497,4.7497,4.7497,4.7497,4.7497,4.7497,4.7458,4.7116,4.698,4.7012,4.7175,4.724,4.7272,4.7434,4.7466,4.7434,4.7272,4.7304,4.7456,4.762,4.7847,4.8165,4.8526,4.9051,4.9528,4.9801,4.9792,4.9749,4.9756,4.9468,4.9145,4.8843,4.8535,4.8159,4.7575,4.75,4.7199,4.6401,4.6778,4.6979,4.6697,4.6928,4.7205,4.745,4.7475,4.7631,4.7908,4.8184,4.8309,4.8309,4.8887,4.9163,4.9163,4.9464,4.9464,4.9245,4.9245,4.9063,3.2511,3.293,3.3503,3.3965,3.4173,3.3997,3.3008,3.2871,3.2539,3.1172,3.0898,3.1289,3.2559,3.2335,3.2335,3.3625,3.3848,3.4004,3.4375,3.5019,3.5644,3.6094,3.6465,0.0,3.6949,3.7246,0.0,3.7559,3.814,3.8992,4.0082,4.2661,4.4249,4.4602,4.5672,4.6238,4.6238,4.6238,4.6238,4.6238,4.6238,4.6455,4.6872,4.6872,4.7112,4.7497,4.7497,4.7497,4.7497,4.7497,4.7497,4.7497,4.7497,4.7497,4.7497,4.7497,4.7497,4.7497,4.7497,4.7497,4.7497,4.7497,4.7497,4.753,4.7795,4.7894,4.7894,4.7894,4.7991,4.8064,4.8064,4.8251,4.8561,4.8898,4.9349,4.9757,4.9879,5.0108,5.0327,5.0425,5.0401,5.0305,5.0314,4.9999,4.9621,4.9268,4.8992,4.8673,4.8159,4.8083,4.7732,4.6753,4.6652,4.6652,4.6652,4.6552,4.6647,4.7074,4.6998,4.7124,4.7556,4.7682,4.7732,4.7732,4.8309,4.8617,4.8617,4.9138,4.9414,4.9414,4.954,4.959,3.3105,3.3328,3.3503,3.3965,3.4355,3.4316,3.3086,0.0,3.2891,3.123,3.0898,3.1289,3.2559,3.1816,3.1426,3.2695,3.1973,3.1777,3.332,3.3581,3.4394,3.6401,0.0,0.0,3.7734,3.7816,3.8027,3.8474,4.0959,4.2358,4.2152,4.4052,4.5805,4.7121,4.7287,4.7353,4.7353,4.7353,4.7353,4.7353,4.7353,4.7377,4.7425,4.7425,4.7449,4.7497,4.7497,4.7497,0.0,4.7497,4.7497,4.7497,4.7497,4.7497,4.7497,4.7497,4.7497,4.7497,4.7497,4.7497,4.7497,4.7497,4.7497,4.7497,4.753,4.753,4.753,4.753,4.7925,4.8286,4.8286,4.8637,4.9115,4.9456,4.9786,5.0195,5.0744,5.0901,5.1049,5.154,5.1624,5.1634,5.1634,5.0807,5.0228,5.0489,4.9685,4.8992,4.8761,4.8718,4.8492,4.7832,4.7757,4.7757,4.7757,4.7299,4.7048,4.7099,4.6622,4.6401,4.6451,4.6898,4.7174,4.7174,4.7732,4.7983,4.7983,4.8592,4.8868,4.8894,4.9364,4.959,3.1953,3.2832,3.3906,3.4336,3.498,3.5078,3.3535,3.3496,3.3262,3.1289,3.0898,3.1055,3.1562,3.123,3.1055,3.1562,3.166,3.2198,3.3613,3.4492,3.5586,3.7226,3.7891,3.8027,3.7598,3.8242,3.8652,3.8611,4.1332,4.2944,4.2748,4.5231,4.6908,4.7464,4.7497,4.7497,4.7497,4.7497,4.7497,4.7497,4.7497,4.7497,4.7497,4.7497,4.7497,4.7497,4.7497,4.769,0.0,4.7978,4.7978,4.7978,4.7978,4.7786,4.7497,4.7497,4.7497,4.7497,4.7497,4.7497,4.7497,4.7497,4.7497,4.7497,4.7497,4.7714,4.7978,4.7978,4.8363,4.8768,4.8633,4.8981,4.9562,5.0111,5.036,5.0537,5.0756,5.0839,5.0853,5.1106,5.1306,5.1516,5.1751,5.1659,5.1414,5.1105,5.0697,5.0162,4.9389,4.9264,4.9188,4.8937,4.8309,4.7908,4.7908,4.7676,4.7575,4.7575,4.738,4.728,4.728,4.7481,4.7425,4.7124,4.7631,4.7757,4.74,4.7983,4.8259,4.8259,4.8485,4.8761,3.1319,3.2461,3.3848,3.4531,3.5078,3.5098,3.3699,3.3457,3.3039,3.125,3.0898,3.0898,3.0898,3.0898,3.0898,3.0898,3.1436,3.2394,3.4055,3.5059,3.6152,3.7523,3.8262,3.8281,3.7383,3.834,3.929,3.9858,4.1841,4.3414,4.4276,4.6348,4.7497,4.7497,4.7497,4.7497,4.7497,4.7497,4.7497,4.7497,4.7497,4.7497,4.7497,4.7497,4.7593,4.7738,4.7738,4.8026,0.0,4.8363,4.8291,4.8267,4.8122,4.793,4.7714,4.7569,4.7593,4.7714,4.7569,4.7593,4.7714,4.7545,4.7714,4.793,4.7786,4.8002,4.8291,4.8291,4.8796,4.9322,4.9368,4.9654,5.007,5.0598,5.0696,5.0696,5.0696,5.0696,5.0696,5.0696,5.0884,5.113,5.1436,5.1569,5.1496,5.0996,5.0722,5.0273,4.9554,4.9461,4.9461,4.9461,4.8823,4.841,4.841,4.8259,4.8159,4.8159,4.8008,4.7908,4.7908,4.7908,4.7732,4.7324,4.7732,4.7732,4.7324,4.7908,4.8083,4.7908,4.8083,4.8284,3.171,3.248,3.3105,3.4375,3.4427,3.3984,3.3516,3.2793,3.1964,3.1074,3.0898,3.0898,3.0898,3.0898,3.0898,3.0898,3.0898,3.1797,3.4336,3.4707,3.5351,3.709,3.7305,3.7305,3.7305,3.8066,3.9838,4.2753,4.2997,4.431,4.7298,4.7464,4.7497,4.7497,4.7497,4.7497,4.7497,4.7497,4.7497,4.7497,4.7497,4.7497,4.7497,4.7497,4.7786,4.8291,4.8291,4.8613,0.0,4.8507,4.8291,4.8243,4.7714,4.7834,4.8219,4.769,4.7834,4.8195,4.769,4.7834,4.8195,4.7666,4.8219,4.8964,4.8435,4.8291,4.8291,4.8291,4.9071,5.0009,5.0527,5.0672,5.0696,5.0696,5.0696,5.0696,5.0696,5.0696,5.0696,5.0696,5.0696,5.0696,5.0696,5.0274,4.9963,5.0078,4.9371,4.89,4.9082,4.9105,4.9105,4.9105,4.9396,4.9565,4.9565,4.912,4.8793,4.8793,4.8234,4.7908,4.7908,4.7908,4.7908,4.7908,4.7908,4.7908,4.7908,4.8517,4.846,4.7933,4.8485,4.846,3.0282,3.1397,3.2492,3.2902,3.3547,3.384,3.2824,3.2578,3.2266,3.1133,3.0898,3.0898,3.0898,3.0898,3.0898,3.0898,3.0898,3.1894,3.4766,3.5176,3.625,3.916,3.8711,3.8418,3.9004,3.8242,3.8922,4.1817,4.2983,4.4579,4.6946,4.8045,4.8243,4.7521,4.7497,4.7666,4.8026,4.769,4.7858,4.8579,4.7858,4.7882,4.8555,4.8195,4.8339,4.8854,4.8854,4.9167,4.9648,4.9456,4.9408,4.9383,4.9215,4.9022,4.8806,4.8243,4.8387,4.8748,4.8219,4.8147,4.8267,4.8098,4.8026,4.8026,4.8243,4.8796,4.948,4.983,4.9638,4.9576,5.0455,5.0431,5.0274,5.06,5.0696,5.0696,5.0696,5.0696,5.0696,5.0696,5.0383,5.0248,5.0457,5.0066,4.9738,4.9615,4.9394,4.9099,4.8813,4.8772,4.8869,4.9072,4.9202,4.9364,4.9558,4.9439,4.9371,4.9371,4.9515,4.9615,4.9615,4.9992,4.9841,4.9063,4.9063,4.8686,4.7908,4.8083,4.8083,4.7933,4.8542,4.8492,2.9767,3.0865,3.1968,3.2373,3.3001,3.3332,3.2527,3.2291,3.1986,3.1084,3.0898,3.0898,3.0898,3.0898,3.1055,3.1523,3.1348,3.2187,3.5215,3.5332,3.6172,3.8965,3.873,3.8672,3.9551,3.9337,4.0207,4.2719,4.4195,4.5796,4.7632,4.8614,4.8772,4.8122,4.7906,4.7858,4.8002,4.7858,4.8122,4.8772,4.8315,4.8435,4.9095,4.8748,4.8902,4.9408,4.9408,4.972,0.0,4.9985,4.9913,4.9889,4.9672,4.9648,4.9638,4.9084,4.9229,4.9614,4.9084,4.8926,4.8878,4.8652,4.8507,4.8507,4.9036,4.9408,4.972,5.0274,4.9937,4.9576,5.0215,5.0287,5.0298,5.0624,5.0551,5.0455,5.0648,5.0527,5.0455,5.0672,5.0274,4.9982,5.0191,4.9824,4.9427,4.9203,4.9096,4.8834,4.8452,4.8379,4.8445,4.8649,4.8812,4.904,4.9364,4.9525,4.959,4.959,5.0117,5.0386,5.0386,5.0971,5.0979,5.0243,5.0218,4.9766,4.8862,4.8435,4.8234,4.8234,4.8385,4.8259,0.0,3.0757,3.1482,3.2555,3.2675,3.2534,3.2534,3.19,0.0,3.0966,3.0928,3.0898,3.0898,3.0957,3.1387,3.2519,3.2109,3.2625,3.5494,3.5491,3.5807,3.7437,3.8137,3.882,3.9667,4.1399,4.3304,4.5179,4.6356,4.7644,4.9112,4.9215,4.9215,4.9215,4.8724,4.8219,4.7738,4.8171,4.8459,4.8579,4.8988,4.9263,4.9335,4.9263,4.9528,0.0,5.0009,5.0322,5.072,5.0274,5.0081,5.0033,4.9528,4.9926,5.0744,5.0226,5.0335,5.0744,5.0202,4.9985,4.9865,4.9311,4.9456,5.0009,5.0479,4.995,4.9287,4.9817,4.9937,4.9913,4.9961,5.0311,5.0696,5.0696,5.0311,5.0105,5.06,5.0287,5.0105,5.06,5.0215,4.9841,4.9841,4.9383,4.8932,4.8752,4.8445,4.8184,4.8,4.796,4.796,4.7993,4.8346,4.8706,4.904,4.9364,4.9583,4.964,5.0167,5.0494,5.0544,5.1096,5.1406,5.1381,5.1331,5.1021,5.0436,4.9414,4.8919,4.8919,4.8284,4.8033,2.9394,0.0,3.0738,3.1015,3.1549,3.1993,0.0,3.1629,3.1267,3.1208,3.1054,3.0898,3.0898,3.168,3.2226,3.1875,3.243,3.3425,3.4824,3.7883,4.0176,4.0679,4.2752,4.4405,4.502,4.5184,4.5926,4.7522,4.7902,4.8717,5.0241,5.0311,5.0311,5.0311,5.0191,5.007,4.995,4.9672,5.0154,5.1321,5.0648,5.0744,5.1525,5.0696,5.06,5.1105,5.1105,5.1177,5.1321,5.1646,5.1742,5.1742,5.1622,5.1682,5.185,5.1297,5.1441,5.1826,5.1297,5.084,5.0359,4.9432,4.9456,4.9913,5.0057,4.9913,4.9841,5.0359,5.0226,5.0009,5.0407,5.06,5.0696,5.0696,5.06,5.0551,5.0672,5.06,5.0551,5.0672,4.9926,4.9311,4.9311,4.8483,4.7867,4.7789,4.7756,4.7675,4.7621,4.763,4.7729,4.796,4.8092,4.8313,4.8674,4.9007,4.9506,5.016,5.077,5.1272,5.1699,5.2251,5.2352,5.1925,5.1498,5.1222,5.1071,5.0368,5.0017,5.0017,4.9464,4.9188,3.0331,3.0538,3.0437,3.0825,3.132,3.1775,3.1977,3.1874,3.173,3.1556,3.173,3.1759,3.1199,3.2147,3.3093,3.3278,3.3535,3.4219,3.5684,3.9242,4.1576,4.1255,4.359,4.5544,4.6228,4.6551,4.7447,4.9222,4.966,5.0185,5.1021,5.084,5.0696,5.0696,5.0936,5.096,5.0696,5.0648,5.1056,5.1922,5.1586,5.173,5.2259,5.1682,5.1586,5.185,5.185,5.185,5.1874,5.2163,5.232,5.232,5.232,5.2464,5.2632,5.2368,5.244,5.2632,5.2344,5.1706,5.0936,5.0095,5.0022,5.0274,5.0274,5.0274,5.0263,5.0311,5.0129,4.9961,5.0274,5.0503,5.0696,5.0696,5.0503,5.0383,5.0648,5.0503,5.0311,5.0311,4.9672,4.9022,4.8782,4.805,4.7497,4.7497,4.7497,4.7497,4.7497,4.7497,4.7563,4.7762,4.7762,4.7927,4.8281,4.8486,4.887,4.9552,5.0323,5.0953,5.1218,5.2161,5.2607,5.2443,5.195,5.1649,5.1649,5.1096,5.082,5.0795,5.0243,4.9967,3.1703,3.1546,3.0989,3.1921,3.2086,3.225,3.2968,3.2846,3.2534,3.2371,3.2887,3.3061,3.2002,3.2981,3.4257,3.5322,3.4961,3.5295,3.7346,4.0305,4.2048,4.1441,4.3898,4.5975,4.6747,4.7716,4.9009,5.0763,5.1418,5.1706,5.161,5.1177,5.0984,5.1056,5.1489,5.1562,5.1177,5.1537,5.1778,5.185,5.2307,5.2524,5.2524,5.2427,5.244,5.244,0.0,0.0,5.244,5.2475,5.2524,5.2524,5.2524,5.2825,5.321,5.321,5.321,5.321,5.3138,5.2464,5.1513,5.1008,5.0768,5.0696,5.0696,5.0696,5.06,5.0154,5.0033,5.0033,5.0033,5.0335,5.0696,5.0696,5.0335,5.0154,5.06,5.0335,5.0033,5.0033,4.96,4.9071,4.8507,4.7978,4.7593,4.7521,4.7497,4.7497,4.7497,4.7497,4.7497,4.7497,4.7497,4.763,4.7894,4.7927,4.8108,4.8534,4.959,5.0272,5.0444,5.1639,5.2446,5.2723,5.2307,5.209,5.2158,5.1607,5.1364,5.1398,5.082,5.0494,3.1705,3.2609,3.3763,3.5182,3.4797,3.4572,3.6584,3.532,3.3916,3.462,3.4725,3.4592,3.4193,3.5521,3.6494,3.5976,3.6426,3.7347,3.893,4.2152,4.4569,4.5252,4.9122,5.1962,5.249,5.2717,5.2777,5.2705,5.2797,5.268,5.2187,5.2091,5.2271,5.2729,5.2825,5.3004,5.3341,5.3004,5.3029,5.3461,5.3534,5.3582,5.3558,5.3149,5.2993,5.2993,0.0,5.2993,5.3017,5.3413,5.3582,5.3582,5.3582,5.363,5.3702,5.3702,5.3702,5.3654,5.3258,5.2705,5.2067,5.1537,5.1056,5.0696,5.0696,5.0696,5.0696,5.06,5.0576,5.0576,5.0576,5.0648,5.0696,5.0696,5.0648,5.06,5.0696,5.0648,5.0576,5.0576,5.0154,4.96,4.9071,4.8507,4.8002,4.7569,4.7497,4.7497,4.7497,4.7497,4.7497,4.7497,4.7497,4.753,4.7563,4.7563,4.7789,4.8314,4.9517,5.0616,5.1525,5.1757,5.1925,5.196,5.1861,5.201,5.2331,5.1784,5.1646,5.1975,5.1398,5.0896,3.3049,3.4293,3.5969,3.8779,3.7168,3.5465,3.7611,3.6434,3.4807,3.4733,3.5069,3.5157,3.4379,3.6371,3.8331,3.8943,4.0193,4.1073,4.1091,4.4245,4.6128,4.4997,4.8366,5.0849,5.1078,5.1931,5.2736,5.3411,5.3258,5.2993,5.2753,5.2464,5.2416,5.268,5.2945,5.321,5.3413,5.3461,5.3606,5.3785,5.3785,5.3785,5.3785,5.3582,5.3485,5.3485,5.3485,5.3485,5.3485,5.3726,5.3785,5.3785,5.3785,5.3785,5.3785,5.3785,5.3785,5.375,5.3282,5.2945,5.2656,5.2127,5.1562,5.1129,5.1129,5.0936,5.0696,5.0696,5.0696,5.0696,5.0696,5.0696,5.0696,5.0696,5.0696,5.0696,5.0696,5.0696,5.06,5.0311,5.0081,4.9744,4.9215,4.8902,4.8628,4.8387,4.8098,4.793,4.793,4.7666,4.7497,4.7497,4.7497,4.7497,4.7497,4.7497,4.7858,4.8676,4.9572,5.0468,5.1457,5.1481,5.1586,5.182,5.182,5.189,5.2099,5.1793,5.1876,5.2254,5.1646,5.1372,3.4715,3.6207,3.8095,4.1191,3.9174,3.7048,3.9499,3.8389,3.6665,3.604,3.6637,3.6981,3.5983,3.8124,4.0617,4.2501,4.3434,4.3785,4.3577,4.6176,4.729,4.5169,4.7905,4.9953,4.9953,5.1139,5.2427,5.3709,5.3461,5.3282,5.3282,5.286,5.2644,5.2644,5.3029,5.3282,5.3282,5.363,5.3785,5.3785,5.3785,5.3785,5.3785,5.3785,5.3785,5.3785,5.3785,5.3785,5.3785,5.3785,5.3785,5.3785,5.3785,5.3785,5.3785,5.3785,5.3785,5.3774,5.3365,5.321,5.3041,5.2632,5.2055,5.1489,5.1489,5.1129,5.0696,5.0696,5.0696,5.0696,5.0696,5.0696,5.0696,5.0696,5.0696,5.0696,5.0696,5.0696,5.0576,5.0178,5.0105,4.9937,4.9383,4.9287,4.9263,4.9119,4.8758,4.8483,4.8483,4.8122,4.7858,4.7858,4.7858,4.7858,4.7858,4.7978,4.8411,4.9239,4.9793,5.0379,5.1071,5.1095,5.1236,5.1541,5.1541,5.1576,5.1656,5.1656,5.189,5.2248,5.1871,5.1793,3.6383,3.8191,4.0395,4.1175,4.0694,4.0965,4.4451,4.2729,4.0572,4.0974,4.1544,4.1927,4.1587,4.254,4.4009,4.6025,4.4291,4.3673,4.6471,4.7556,4.8191,4.8395,5.1409,5.3422,5.3422,5.3535,5.3672,5.3785,5.3798,5.3774,5.3774,5.3726,5.3664,5.3664,5.375,5.3774,5.3774,5.3761,5.3785,5.3785,5.3785,5.3785,5.3785,5.3785,5.3785,5.3785,5.3785,5.3785,5.3785,5.3785,5.3785,5.3785,5.3785,5.3785,5.3785,5.3785,5.3785,5.3822,5.3774,5.3461,5.309,5.3066,5.2368,5.1489,5.1489,5.1129,5.0696,5.0696,5.0696,5.0696,5.0696,5.0696,5.0696,5.0696,5.0696,5.0696,5.0696,5.0696,5.0696,5.0648,5.0648,5.0455,4.9937,4.9841,4.9672,4.9191,4.9071,4.9047,4.9047,4.9022,4.8964,4.8964,4.8964,4.8964,4.8964,4.9456,4.9769,4.9841,5.0335,5.0648,5.0731,5.0731,5.0731,5.0767,5.0767,5.0943,5.1247,5.1247,5.1446,5.1855,5.2189,5.2064,3.6356,3.8241,4.0636,4.2429,4.3031,4.3247,4.3438,4.3244,4.2672,4.1369,4.2104,4.3464,4.4989,4.3114,4.2694,4.6851,4.6,4.5249,4.6487,4.8618,4.9791,4.8912,5.083,5.2236,5.2236,5.3195,5.3785,5.3785,5.3785,5.3785,5.3785,5.3785,5.3785,5.3785,5.3785,5.3785,5.3785,5.3785,5.3785,5.3785,5.3785,5.3785,5.3785,5.3785,5.3785,5.3785,5.3785,5.3785,5.3785,5.3785,5.3785,5.3785,5.3785,5.3785,5.3785,5.3785,5.3785,5.3785,5.3785,5.3485,5.3114,5.3114,5.2392,5.1489,5.1489,5.1129,5.0696,5.0696,5.0696,5.0696,5.0696,5.0696,5.0696,5.0696,5.0696,5.0696,5.0696,5.0696,5.0696,5.0696,5.0696,5.0648,5.0431,5.0383,5.0311,5.0119,4.9782,4.96,4.96,4.9311,4.9119,4.9119,4.9119,4.9119,4.9119,4.96,4.9913,4.9913,5.0383,5.0696,5.0696,5.0696,5.0696,5.0696,5.0696,5.0767,5.0884,5.0884,5.106,5.1446,5.1831,5.2045,3.6665,3.8764,4.1221,4.2824,4.4455,4.5239,4.3545,4.3679,4.3656,4.1777,4.2979,4.4999,4.709,4.5208,4.4395,4.7733,4.758,4.7257,4.7788,5.0009,5.1135,5.0003,5.1467,5.2612,5.2612,5.3633,5.4327,5.4327,5.4327,5.4327,5.4327,5.4159,5.4135,5.4303,5.4159,5.4025,5.4025,5.4025,5.3991,5.3785,5.3785,5.3785,5.3785,5.3785,5.3785,5.3785,5.3785,5.3785,5.3785,5.3785,5.3785,5.3785,5.3785,5.3785,5.3785,5.3785,5.3785,5.3785,5.3785,5.3606,5.3317,5.3317,5.2716,5.2031,5.2031,5.1513,5.096,5.096,5.084,5.0696,5.0696,5.0696,5.0696,5.0696,5.0696,5.0696,5.0696,5.0696,5.0696,5.0696,5.0696,5.0696,5.0696,5.0696,5.0696,5.0696,5.0383,5.0178,5.0178,4.9806,4.9624,4.9624,4.9624,4.9624,4.9624,4.9961,5.0178,5.0178,5.0503,5.0696,5.0696,5.0696,5.0696,5.0696,5.0696,5.0696,5.0696,5.0696,5.0837,5.106,5.1411,5.1761,3.7643,4.0079,4.2538,4.2139,4.4754,4.7072,4.5799,4.4612,4.3581,4.2898,4.4845,4.6992,4.7941,4.9509,5.0235,4.9108,4.8919,4.946,5.1087,5.1768,5.2129,5.2129,5.4059,5.5385,5.5385,5.5385,5.5385,5.5385,5.5385,5.5385,5.5385,5.4904,5.4856,5.5385,5.488,5.4616,5.4616,5.4616,5.4351,5.3822,5.3785,5.3785,5.3785,5.3785,5.3785,5.3785,5.3785,5.3785,5.3785,5.3785,5.3785,5.3785,5.3785,5.3785,5.3785,5.3785,5.3785,5.3785,5.3785,5.3785,5.3785,5.3785,5.3485,5.309,5.309,5.2368,5.1489,5.1489,5.1105,5.072,5.0696,5.0696,5.0696,5.0696,5.0696,5.0696,5.0696,5.0696,5.0696,5.0696,5.0696,5.0696,5.0696,5.0696,5.0696,5.0696,5.0696,5.0696,5.0696,5.0696,5.0696,5.0696,5.0696,5.0696,5.0696,5.0696,5.0696,5.0696,5.0696,5.0696,5.0696,5.0696,5.0696,5.0696,5.0696,5.0696,5.0696,5.0696,5.0696,5.0696,5.106,5.1211,4.0871,4.2609,4.4201,4.5481,4.6542,4.7272,4.7272,4.7278,4.7064,4.6258,4.6888,4.8091,4.9648,4.7888,4.7188,5.0118,5.0166,5.0287,5.1654,5.3335,5.4426,5.4426,5.5019,5.5385,5.5385,5.5385,5.5385,5.5385,5.5385,5.5385,5.5385,5.5241,5.5241,5.5385,5.5241,5.5169,5.5169,5.4784,5.452,5.4375,5.3991,5.3785,5.3785,5.3785,5.3785,5.3785,5.3785,5.3785,5.3785,5.3785,5.3785,5.3785,5.3785,5.3785,5.3785,5.3785,5.3785,5.3785,5.3785,5.3582,5.3293,5.3293,5.2969,5.256,5.256,5.2344,5.197,5.1586,5.1393,5.1177,5.0792,5.0696,5.0696,5.0696,5.0696,5.0696,5.0696,5.0696,5.0696,5.0696,5.0696,5.0696,5.0696,5.0696,5.0696,5.0696,5.0696,5.0696,5.0696,5.0696,5.0696,5.0696,5.0696,5.0696,5.0696,5.0696,5.0696,5.0696,5.0696,5.0696,5.0696,5.0696,5.0696,5.0696,5.0696,5.0696,5.0696,5.0696,5.0696,5.0696,5.106,5.1211,4.1191,4.3008,4.4994,4.6697,4.7629,4.8251,4.8651,4.7838,4.7291,4.8519,4.8397,4.863,5.0591,4.9555,4.9099,5.1299,5.1961,5.2527,5.3288,5.4741,5.5722,5.5722,5.5914,5.6035,5.6035,5.6035,5.6035,5.6035,5.6035,5.6035,5.6035,5.5842,5.5818,5.6035,5.5842,5.5722,5.5722,5.5409,5.5145,5.4904,5.4375,5.4135,5.4135,5.3918,5.3785,5.3785,5.3785,5.3785,5.3785,5.3785,5.3785,5.3785,5.3785,5.3785,5.3785,5.3785,5.3785,5.3785,5.3785,5.363,5.3365,5.3365,5.3149,5.2884,5.2884,5.2764,5.256,5.2247,5.197,5.1682,5.1153,5.1008,5.096,5.0744,5.0696,5.0696,5.0696,5.0696,5.0696,5.0696,5.0696,5.0696,5.0696,5.0696,5.0696,5.0696,5.0696,5.0696,5.0696,5.0696,5.0696,5.0696,5.0696,5.0696,5.0696,5.0696,5.0696,5.0696,5.0696,5.0696,5.0696,5.0696,5.0696,5.0696,5.0696,5.0696,5.0696,5.0696,5.0696,5.0696,5.0884,5.0989,3.9965,4.2272,4.5223,4.6617,4.8391,4.98,4.988,4.7235,4.5845,4.9783,4.9405,4.9007,5.101,5.3032,5.3942,5.2627,5.4106,5.5482,5.5482,5.5923,5.626,5.626,5.6692,5.6981,5.6981,5.6981,5.6981,5.6981,5.6981,5.6981,5.6981,5.6524,5.6476,5.6957,5.6524,5.626,5.626,5.6212,5.5987,5.5458,5.4928,5.4664,5.4592,5.4025,5.3785,5.3785,5.3785,5.3785,5.3785,5.3785,5.3785,5.3785,5.3785,5.3785,5.3785,5.3785,5.3785,5.3785,5.3785,5.3785,5.3785,5.3785,5.3785,5.3785,5.3785,5.3485,5.3162,5.3114,5.2753,5.2235,5.1706,5.1537,5.1393,5.096,5.0768,5.0696,5.0696,5.0696,5.0696,5.0696,5.0696,5.0696,5.0696,5.0696,5.0696,5.0696,5.0696,5.0696,5.0696,5.0696,5.0696,5.0696,5.0696,5.0696,5.0696,5.0696,5.0696,5.0696,5.0696,5.0696,5.0696,5.0696,5.0696,5.0696,5.0696,5.0696,5.0696,5.0696,5.0696,5.0696,5.0696,5.0696,4.286,4.4252,4.549,4.8291,5.0059,5.0866,5.0073,4.9488,4.919,4.9399,5.0083,5.0926,5.1879,5.2409,5.3086,5.4464,5.544,5.602,5.602,5.6476,5.6813,5.6813,5.6909,5.6981,5.6981,5.6981,5.6981,5.6981,5.6981,5.6981,5.6981,5.6861,5.6861,5.6981,5.6861,5.6813,5.6813,5.6404,5.614,5.5996,5.5482,5.5001,5.4592,5.4025,5.3785,5.3785,5.3785,5.3785,5.3785,5.3785,5.3785,5.3785,5.3785,5.3785,5.3785,5.3785,5.3785,5.3785,5.3785,5.3785,5.3785,5.3785,5.3785,5.3785,5.3785,5.375,5.3582,5.321,5.3017,5.2801,5.2295,5.1802,5.1562,5.1874,5.1297,5.0696,5.0696,5.0696,5.0696,5.0696,5.0696,5.0696,5.0696,5.0696,5.0696,5.0696,5.0696,5.0696,5.0696,5.0696,5.0696,5.0696,5.0696,5.0696,5.0696,5.0696,5.0696,5.0696,5.0696,5.0696,5.0696,5.0696,5.0696,5.0696,5.0696,5.0696,5.0696,5.0696,5.0696,5.0696,5.0696,5.0696,4.2826,4.4208,4.5699,4.8947,5.0198,5.0707,5.099,5.0964,5.0952,5.1285,5.1512,5.2063,5.3186,5.3761,5.4461,5.559,5.6212,5.6572,5.6572,5.6813,5.6981,5.6981,5.6981,5.6981,5.6981,5.6981,5.6981,5.6981,5.6981,5.6981,5.6981,5.6981,5.6981,5.6981,5.6981,5.6981,5.6981,5.6717,5.6572,5.6572,5.6059,5.5506,5.4952,5.4183,5.3785,5.3785,5.3785,5.3785,5.3785,5.3785,5.3785,5.3785,5.3785,5.3785,5.3785,5.3785,5.3785,5.3785,5.3785,5.3785,5.3785,5.3785,5.3785,5.3785,5.3785,5.3785,5.3774,5.351,5.3437,5.3317,5.2825,5.2488,5.2223,5.1946,5.1297,5.0768,5.1032,5.0888,5.0696,5.0696,5.0696,5.0696,5.0696,5.0696,5.0696,5.0696,5.0696,5.0696,5.0696,5.0696,5.0696,5.0696,5.0696,5.0696,5.0696,5.0696,5.0696,5.0696,5.0696,5.0696,5.0696,5.0696,5.0696,5.0696,5.0696,5.0696,5.0696,5.0696,5.0696,5.0696,5.0696,5.0696,4.1281,4.3415,4.6054,4.8919,4.9896,5.0458,5.1613,5.1798,5.2122,5.3497,5.3118,5.2992,5.4483,5.5515,5.6236,5.6308,5.6692,5.6981,5.6981,5.6981,5.6981,5.6981,5.6981,5.6981,5.6981,5.6981,5.6981,5.6981,5.6981,5.6981,5.6981,5.6981,5.6981,5.6981,5.6981,5.6981,5.6981,5.6981,5.6981,5.6981,5.6452,5.5947,5.5506,5.4544,5.4039,5.3905,5.387,5.3785,5.3785,5.3785,5.3785,5.3785,5.3785,5.3785,5.3785,5.3785,5.3785,5.3785,5.3785,5.3785,5.3785,5.3785,5.3785,5.3785,5.3785,5.3785,5.3785,5.3785,5.3785,5.3726,5.3317,5.3162,5.2897,5.2091,5.1417,5.1081,5.1417,5.1153,5.084,5.084,5.084,5.0816,5.072,5.0792,5.0816,5.072,5.0696,5.0696,5.0696,5.0696,5.0696,5.0696,5.0696,5.0696,5.0696,5.0696,5.0696,5.0696,5.0696,5.0696,5.0696,5.0696,5.0696,5.0696,5.0696,5.0696,5.0696,5.0696,5.0696,5.0696,5.0696,5.0696,3.898,4.2963,4.6807,4.8179,5.0274,5.1649,5.0495,5.1911,5.3535,5.3747,5.4042,5.4468,5.5178,5.5794,5.6332,5.6813,5.6933,5.6981,5.6981,5.6981,5.6981,5.6981,5.6981,5.6981,5.6981,5.6981,5.6981,5.6981,5.6981,5.6981,5.6981,5.6981,5.6981,5.6981,5.6981,5.6981,5.6981,5.6981,5.6981,5.6981,5.6452,5.6164,5.6068,5.5482,5.4928,5.4471,5.4015,5.3785,5.3785,5.3785,5.3785,5.3785,5.3785,5.3785,5.3785,5.3785,5.3785,5.3785,5.3785,5.3785,5.3785,5.3785,5.3785,5.3785,5.3785,5.3785,5.3785,5.3785,5.3785,5.3798,5.3726,5.3389,5.3186,5.3437,5.2764,5.197,5.1586,5.1441,5.1393,5.1393,5.1393,5.1249,5.0792,5.1081,5.1225,5.0768,5.0696,5.0696,5.0696,5.0696,5.0696,5.0696,5.0696,5.0696,5.0696,5.0696,5.0696,5.0696,5.0696,5.0696,5.0696,5.0696,5.0696,5.0696,5.0696,5.0696,5.0696,5.0696,5.0696,5.0696,5.0696,5.0696,3.7868,4.2704,4.7165,4.7295,4.9806,5.2209,5.1808,5.257,5.3485,5.375,5.4471,5.5121,5.5361,5.6107,5.6717,5.6933,5.6981,5.6981,5.6981,5.6981,5.6981,5.6981,5.6981,5.6981,5.6981,5.6981,5.6981,5.6981,5.6981,5.6981,5.6981,5.6981,5.6981,5.6981,5.6981,5.6981,5.6981,5.6981,5.6981,5.6981,5.6741,5.6644,5.662,5.6068,5.5578,5.5025,5.4808,5.4544,5.4255,5.4255,5.4087,5.3785,5.3785,5.3785,5.3785,5.3785,5.3785,5.3785,5.3785,5.3785,5.3785,5.3785,5.3785,5.3785,5.3785,5.3785,5.3785,5.3785,5.3785,5.3785,5.3785,5.3654,5.3485,5.3413,5.3269,5.3004,5.2475,5.2139,5.1922,5.1922,5.1922,5.1778,5.1249,5.1586,5.1658,5.084,5.096,5.1032,5.0744,5.0696,5.0696,5.0696,5.0696,5.0696,5.0696,5.0696,5.0696,5.0696,5.0696,5.0696,5.0696,5.0696,5.0696,5.0696,5.0696,5.0696,5.0696,5.0696,5.0696,5.0696,5.0696,5.0864,3.7711,4.1981,4.6077,4.6792,4.932,5.1983,5.3066,5.3306,5.3413,5.3918,5.464,5.5241,5.5361,5.6275,5.6981,5.6981,5.6981,5.6981,5.6981,5.6981,5.6981,5.6981,5.6981,5.6981,5.6981,5.6981,5.6981,5.6981,5.6981,5.6981,5.6981,5.6981,5.6981,5.6981,5.6981,5.6981,5.6981,5.6981,5.6981,5.6981,5.6981,5.6981,5.6997,5.6572,5.6203,5.5794,5.553,5.5169,5.4808,5.4808,5.4496,5.4015,5.4015,5.3942,5.3785,5.3785,5.3785,5.3785,5.3785,5.3785,5.3785,5.3785,5.3785,5.3785,5.3785,5.3785,5.3785,5.3785,5.3785,5.3785,5.3785,5.3785,5.3726,5.3341,5.3558,5.3678,5.321,5.2801,5.2464,5.2344,5.2416,5.2344,5.1778,5.2175,5.2115,5.1056,5.1249,5.1297,5.0768,5.0696,5.0696,5.0696,5.0696,5.0696,5.0696,5.0696,5.0696,5.0696,5.0696,5.0696,5.0696,5.0696,5.0696,5.0696,5.0696,5.0696,5.0696,5.0696,5.0696,5.0696,5.084,5.1105,3.8782,4.0519,4.2591,4.7095,4.9098,5.0683,5.3197,5.3737,5.3918,5.4447,5.4616,5.4808,5.5313,5.6275,5.6981,5.6981,5.6981,5.6981,5.6981,5.6981,5.6981,5.6981,5.6981,5.6981,5.6981,5.6981,5.6981,5.6981,5.6981,5.6981,5.6981,5.6981,5.6981,5.6981,5.6981,5.6981,5.6981,5.6981,5.6981,5.6981,5.6981,5.6981,5.6981,5.6957,5.6933,5.6837,5.5842,5.5385,5.5361,5.5361,5.5049,5.4568,5.4568,5.4255,5.3785,5.3785,5.3785,5.3785,5.3785,5.3785,5.3785,5.3785,5.3785,5.3785,5.3785,5.3785,5.3785,5.3785,5.3785,5.3785,5.3785,5.3785,5.3785,5.3798,5.3798,5.3678,5.321,5.309,5.2921,5.2416,5.2729,5.2897,5.2368,5.2705,5.2705,5.161,5.1465,5.1297,5.0768,5.0696,5.0696,5.0696,5.0696,5.0696,5.0696,5.0696,5.0696,5.0696,5.0696,5.0696,5.0696,5.0696,5.0696,5.0696,5.0696,5.0696,5.0696,5.0696,5.0696,5.072,5.1225,5.1465,3.5723,3.822,4.1071,4.2713,4.5221,4.7762,4.9397,5.084,5.1874,5.2067,5.3702,5.5073,5.4904,5.5731,5.6596,5.6933,5.6981,5.6981,5.6981,5.6981,5.6981,5.6981,5.6981,5.6981,5.6981,5.6981,5.6981,5.6981,5.6981,5.6981,5.6981,5.6981,5.6981,5.6981,5.6981,5.6981,5.6981,5.6981,5.6981,5.6981,5.6981,5.6981,5.6981,5.6981,5.6981,5.6997,5.6612,5.6251,5.5899,5.5899,5.5602,5.5121,5.5121,5.4784,5.4327,5.4327,5.4111,5.3785,5.3785,5.3785,5.3785,5.3785,5.3785,5.3785,5.3785,5.3785,5.3785,5.3785,5.3785,5.3785,5.3785,5.3785,5.3785,5.3785,5.3785,5.3774,5.3582,5.3558,5.3485,5.3293,5.3413,5.3389,5.2921,5.3221,5.3077,5.1706,5.1778,5.1682,5.0816,5.0696,5.0696,5.0696,5.0696,5.0696,5.0696,5.0696,5.0696,5.0696,5.0696,5.0696,5.0696,5.0696,5.0696,5.0696,5.0696,5.0696,5.0696,5.0696,5.0696,5.072,5.1249,5.1489,3.4477,3.682,3.9563,4.0552,4.298,4.5597,4.7353,4.9301,5.0816,5.1153,5.3317,5.5073,5.4904,5.5458,5.6092,5.662,5.6717,5.6765,5.6957,5.6981,5.6981,5.6981,5.6981,5.6981,5.6981,5.6981,5.6981,5.6981,5.6981,5.6981,5.6981,5.6981,5.6981,5.6981,5.6981,5.6981,5.6981,5.6981,5.6981,5.6981,5.6981,5.6981,5.6981,5.6981,5.6981,5.6981,5.6981,5.6789,5.6452,5.6452,5.614,5.5674,5.5674,5.5337,5.488,5.488,5.4544,5.4087,5.4087,5.3966,5.3785,5.3785,5.3785,5.3785,5.3785,5.3785,5.3785,5.3785,5.3785,5.3785,5.3785,5.3785,5.3785,5.3785,5.3785,5.3785,5.3785,5.3785,5.3785,5.3785,5.3785,5.3702,5.3365,5.3606,5.3341,5.197,5.2043,5.1898,5.084,5.0696,5.0696,5.0696,5.0696,5.0696,5.0696,5.0696,5.0696,5.0696,5.0696,5.0696,5.0696,5.0696,5.0696,5.0696,5.0696,5.0696,5.0696,5.0696,5.0696,5.072,5.1249,5.1586,0.0,0.0,0.0,4.1081,4.2669,4.4281,4.7434,4.9373,5.0864,5.197,5.3461,5.4712,5.5265,5.5385,5.5578,5.6068,5.6164,5.6356,5.6885,5.6997,5.6957,5.6981,5.6981,5.6981,5.6981,5.6981,5.6981,5.6981,5.6981,5.6981,5.6981,5.6981,5.6981,5.6981,5.6981,5.6981,5.6981,5.6981,5.6981,5.6981,5.6981,5.6981,5.6981,5.6981,5.6981,5.6981,5.6981,5.6981,5.6981,5.6981,5.6668,5.6212,5.6212,5.5914,5.5409,5.5409,5.5097,5.464,5.464,5.4279,5.3809,5.3809,5.3785,5.3785,5.3785,5.3785,5.3785,5.3785,5.3785,5.3785,5.3785,5.3785,5.3785,5.3785,5.3785,5.3785,5.3785,5.3785,5.3785,5.3785,5.3785,5.3785,5.3785,5.3798,5.3461,5.2451,5.232,5.1874,5.0864,5.072,5.0696,5.0696,5.0696,5.0696,5.0696,5.0696,5.0696,5.0696,5.0696,5.0696,5.0696,5.0696,5.0696,5.0696,5.0696,5.0696,5.0696,5.0696,5.0696,5.072,5.1225,5.1754,3.4991,0.0,0.0,0.0,0.0,0.0,4.3776,4.5525,4.7368,5.0033,5.1838,5.3317,5.4592,5.5145,5.5458,5.5602,5.5626,5.5818,5.6332,5.6404,5.6548,5.6933,5.6981,5.6981,5.6981,5.6981,5.6981,0.0,5.6981,5.6981,5.6981,5.6981,5.6981,5.6981,5.6981,5.6981,5.6981,5.6981,5.6981,5.6981,5.6981,5.6981,5.6981,5.6981,5.6981,5.6981,5.6981,5.6981,5.6981,5.6981,5.6885,5.6765,5.6765,5.6428,5.5972,5.5972,5.565,5.5169,5.5169,5.4832,5.4399,5.4399,5.4135,5.3785,5.3785,5.3785,5.3785,5.3785,5.3785,5.3785,5.3785,5.3785,5.3785,5.3785,5.3785,5.3785,5.3785,5.3785,5.3785,5.3785,5.3785,5.3785,5.3785,5.351,5.321,5.2921,5.2247,5.161,5.1321,5.0936,5.0696,5.0696,5.0696,5.0696,5.0696,5.0696,5.0696,5.0696,5.0696,5.0696,5.0696,5.0696,5.0696,5.0696,5.0696,5.0696,5.0696,5.0696,5.0696,5.0696,5.0864,5.1417,0.0,0.0,3.6531,3.706,0.0,0.0,4.1418,4.3168,4.5357,4.8589,4.9985,5.1177,5.298,5.3004,5.298,5.3654,5.3774,5.4255,5.5674,5.589,5.6011,5.6299,5.65,5.6644,5.6644,5.6861,5.6981,5.6981,5.6981,5.6981,5.6981,5.6981,5.6981,5.6981,5.6981,5.6981,5.6981,5.6981,5.6981,5.6981,5.6981,5.6981,5.6981,5.6981,5.6981,5.6981,5.6981,5.6981,5.6981,5.6981,5.6981,5.6981,5.6981,5.6789,5.6524,5.6524,5.6164,5.5746,5.5746,5.5385,5.4904,5.4688,5.4399,5.4111,5.3894,5.3785,5.3785,5.3785,5.3785,5.3785,5.3785,5.3785,5.3785,5.3785,5.3785,5.3785,5.3785,5.3785,5.3785,5.3785,5.3654,5.3582,5.3774,5.3389,5.3041,5.2801,5.2211,5.1658,5.1225,5.0888,5.0696,5.0696,5.0696,5.0696,5.0696,5.0696,5.0696,5.0696,5.0696,5.0696,5.0696,5.0696,5.0696,5.0696,5.0696,5.0696,5.0696,5.0696,5.0696,5.072,5.0936,5.1489,0.0,0.0,0.0,0.0,0.0,0.0,4.0234,4.1822,4.401,4.7353,4.793,4.8531,5.0744,4.9998,4.9576,5.0912,5.1345,5.2331,5.4784,5.5073,5.5073,5.5121,5.5578,5.5899,5.6092,5.6572,5.6885,5.6885,5.6957,5.6981,5.6981,5.6981,5.6981,5.6981,5.6981,5.6981,5.6981,5.6981,5.6981,5.6981,5.6981,5.6981,5.6981,5.6981,5.6981,5.6981,5.6981,5.6981,5.6981,5.6981,5.6981,5.6981,5.6981,5.6981,5.6981,5.6981,5.6692,5.6284,5.6284,5.5963,5.5409,5.4952,5.4712,5.452,5.4039,5.387,5.3785,5.3785,5.3785,5.3785,5.3785,5.3785,5.3785,5.3785,5.3785,5.3785,5.3785,5.3785,5.3785,5.3785,5.3461,5.3293,5.375,5.3389,5.2969,5.2524,5.2355,5.1946,5.1008,5.084,5.0768,5.072,5.0696,5.0696,5.0696,5.0696,5.0696,5.0696,5.0696,5.0696,5.0696,5.0696,5.0696,5.0696,5.0696,5.0696,5.0696,5.0696,5.0696,5.072,5.1177,5.173,0.0,0.0,0.0,0.0,0.0,0.0,4.0691,4.0691,4.1509,4.5549,4.5686,4.5854,4.8435,4.9012,4.9036,4.894,5.0359,5.197,5.3378,5.3186,5.309,5.3499,5.3643,5.4183,5.5433,5.602,5.6356,5.6356,5.6741,5.6981,5.6981,5.6981,5.6981,5.6981,5.6981,5.6981,5.6981,5.6981,5.6981,5.6981,5.6981,5.6981,5.6981,5.6981,5.6981,5.6981,5.6981,5.6981,5.6981,5.6981,5.6981,5.6981,5.6981,5.6981,5.6981,5.6981,5.6909,5.6813,5.6813,5.6476,5.602,5.5899,5.5313,5.4592,5.4496,5.4159,5.3785,5.3785,5.3785,5.3785,5.3785,5.3785,5.3785,5.3785,5.3785,5.3785,5.3785,5.3785,5.3785,5.3785,5.375,5.3702,5.3761,5.3389,5.321,5.3485,5.2812,5.2211,5.1994,5.161,5.1177,5.0744,5.0696,5.0696,5.0696,5.0696,5.0696,5.0696,5.0696,5.0696,5.0696,5.0696,5.0696,5.0696,5.0696,5.0696,5.0696,5.0696,5.0696,5.0696,5.0816,5.1369,0.0,0.0,0.0,3.7132,0.0,0.0,0.0,3.9585,4.0186,4.3625,4.3096,4.2754,4.5429,4.5477,4.5477,4.6535,4.7617,4.8603,4.9397,5.1778,5.3534,5.3798,5.4063,5.4423,5.4952,5.5506,5.5938,5.6164,5.6428,5.6717,5.6997,5.6981,5.6981,5.6981,5.6981,5.6981,5.6981,5.6981,5.6981,5.6981,5.6981,5.6981,5.6981,5.6981,5.6981,5.6981,5.6981,5.6981,5.6981,5.6981,5.6981,5.6981,5.6981,5.6981,5.6981,5.6981,5.7189,5.7381,5.7077,5.6981,5.69,5.6083,5.5433,5.4904,5.4375,5.4001,5.3785,5.3785,5.3785,5.3785,5.3785,5.3785,5.3785,5.3785,5.3785,5.3785,5.3785,5.3785,5.375,5.3485,5.3437,5.3437,5.3437,5.3282,5.3114,5.3053,5.262,5.232,5.232,5.1826,5.1393,5.1129,5.1105,5.0984,5.072,5.0696,5.0696,5.0696,5.0696,5.0696,5.0696,5.0696,5.0696,5.0696,5.0696,5.0696,5.0696,5.0696,5.0696,5.0696,5.0696,5.1273,0.0,0.0,0.0,0.0,0.0,3.8094,0.0,0.0,0.0,0.0,4.0643,0.0,0.0,4.1725,4.1485,4.3282,0.0,0.0,0.0,4.983,0.0,5.2812,5.3245,5.3654,5.3846,5.488,5.5698,5.5996,5.6332,5.6596,5.6813,5.6933,5.6981,5.6981,5.6981,5.6981,5.6981,5.6981,5.6981,5.6981,5.6981,5.6981,5.6981,5.6981,5.6981,5.6981,5.6981,5.6981,5.6981,5.6981,5.6981,5.6981,5.6981,5.6981,5.7005,5.7141,5.7454,5.7742,5.7213,5.7357,5.755,5.6035,5.5482,5.5217,5.4255,5.3894,5.3785,5.3785,5.3785,5.3785,5.3785,5.3785,5.3785,5.3785,5.3785,5.3785,5.3785,5.3785,5.3702,5.3293,5.3258,5.321,5.3114,5.3114,5.2969,5.2536,5.2464,5.244,5.2283,5.1898,5.161,5.1489,5.1489,5.1273,5.0744,5.0696,5.0696,5.0696,5.0696,5.0696,5.0696,5.0696,5.0696,5.0696,5.0696,5.0696,5.0696,5.0696,5.0696,5.0696,5.0696,5.1225,0.0,0.0,0.0,0.0,3.831,0.0,0.0,0.0,0.0,0.0,0.0,0.0,0.0,0.0,0.0,0.0,0.0,0.0,0.0,0.0,0.0,0.0,4.6647,4.8098,5.0864,5.4121,5.5963,5.553,5.6828,5.7237,5.6332,5.6717,5.6981,5.6981,5.6981,5.6981,5.6981,5.6981,5.6981,5.6981,5.6981,5.6981,5.6981,5.6981,5.6981,5.6981,5.6981,5.6981,5.6981,5.6981,5.6981,5.6981,5.6981,5.6981,5.7069,5.755,5.7766,5.7742,5.7213,5.7357,5.7622,5.6452,5.5794,5.5289,5.4688,5.4183,5.3785,5.3785,5.3785,5.3785,5.3785,5.3785,5.3785,5.3785,5.3785,5.3785,5.3785,5.3785,5.3761,5.375,5.3726,5.3606,5.3186,5.3114,5.309,5.3017,5.3017,5.2849,5.2368,5.2271,5.2018,5.1537,5.1489,5.1273,5.0744,5.0696,5.0696,5.0696,5.0696,5.0696,5.0696,5.0696,5.0696,5.0696,5.0696,5.0696,5.0696,5.0696,5.0696,5.0696,5.0696,5.1008,0.0,0.0,0.0,0.0,0.0,0.0,3.8574,0.0,3.8431,0.0,0.0,0.0,0.0,0.0,0.0,0.0,0.0,0.0,0.0,0.0,0.0,0.0,0.0,0.0,5.0479,5.1273,5.2163,5.3485,5.4231,5.4664,5.4794,5.5899,5.6668,5.6981,5.6981,5.6981,5.6981,5.6981,5.6981,5.6981,5.6981,5.6981,5.6981,5.6981,5.6981,5.6981,5.6981,5.6981,5.6981,5.6981,5.6981,5.6981,5.6981,5.6981,5.7053,5.7622,5.7814,5.779,5.755,5.7622,5.7574,5.6203,5.5169,5.4447,5.4207,5.3991,5.3785,5.3785,5.3785,5.3785,5.3785,5.3785,5.3785,5.3785,5.3785,5.3785,5.3785,5.3785,5.3726,5.3437,5.3389,5.3317,5.3138,5.3114,5.2993,5.2705,5.2392,5.2187,5.232,5.2018,5.173,5.1513,5.1489,5.1273,5.0744,5.0696,5.0696,5.0696,5.0696,5.0696,5.0696,5.0696,5.0696,5.0696,5.0696,5.0696,5.0696,5.0696,5.0696,5.0696,5.0696,5.0984,4.0029,0.0,0.0,0.0,0.0,0.0,0.0,0.0,0.0,0.0,0.0,0.0,0.0,0.0,0.0,0.0,0.0,0.0,0.0,0.0,0.0,0.0,0.0,0.0,0.0,4.8916,4.9397,5.1092,0.0,5.2451,5.3341,5.4746,5.5899,5.6741,5.6909,5.6981,5.6981,5.6981,5.6981,5.6981,5.6981,5.6981,5.6981,5.6981,5.6981,5.6981,5.6981,5.6981,5.6981,5.6981,5.6981,5.6981,5.6981,5.6981,5.7053,5.7622,5.7814,5.779,5.7646,5.7502,5.7189,5.6011,5.5001,5.4231,5.4087,5.3942,5.3785,5.3785,5.3785,5.3785,5.3785,5.3785,5.3785,5.3785,5.3785,5.3785,5.3785,5.3785,5.3702,5.3341,5.3269,5.3269,5.3269,5.3186,5.2969,5.2584,5.2199,5.2018,5.2295,5.2067,5.1874,5.173,5.1706,5.1562,5.1177,5.1008,5.0912,5.0912,5.0792,5.0696,5.0696,5.0696,5.0696,5.0696,5.0696,5.0696,5.0696,5.0696,5.0696,5.0696,5.0696,5.0912,0.0,0.0,0.0,4.5611,0.0,0.0,0.0,0.0,3.8788,0.0,0.0,0.0,0.0,0.0,0.0,0.0,0.0,0.0,0.0,0.0,0.0,0.0,0.0,0.0,0.0,0.0,0.0,0.0,0.0,0.0,5.2307,5.3317,5.4578,5.6164,5.6717,5.6981,5.6981,5.6981,5.6981,5.6981,5.6981,5.6981,5.6981,5.6981,5.6981,5.6981,5.6981,5.6981,5.6981,5.6981,5.6981,5.6981,5.6981,5.6981,5.7053,5.7622,5.7814,5.7742,5.7237,5.6668,5.6236,5.6188,5.5818,5.5241,5.4736,5.4231,5.3785,5.3785,5.3785,5.3785,5.3785,5.3785,5.3785,5.3785,5.3785,5.3785,5.3785,5.3785,5.3822,5.3798,5.3798,5.3798,5.3798,5.3389,5.309,5.309,5.3066,5.2873,5.2368,5.2753,5.2849,5.2344,5.2259,5.2295,5.2235,5.1754,5.1465,5.1465,5.0984,5.0696,5.0696,5.0696,5.0696,5.0696,5.0696,5.0696,5.0696,5.0696,5.0696,5.0696,5.0696,5.072,4.2905,4.2882,4.3178,4.6379,0.0,0.0,0.0,0.0,0.0,0.0,0.0,0.0,0.0,0.0,0.0,0.0,0.0,0.0,0.0,0.0,0.0,0.0,0.0,0.0,0.0,0.0,0.0,0.0,0.0,0.0,5.0611,5.2018,5.3846,5.6116,5.638,5.662,5.6981,5.6981,5.6981,5.6981,5.6981,5.6981,5.6981,5.6981,5.6981,5.6981,5.6981,5.6981,5.6981,5.6981,5.6981,5.6981,5.6981,5.6981,5.7053,5.7622,5.7598,5.7221,5.7053,5.6644,5.6188,5.6188,5.5626,5.4832,5.4664,5.4231,5.3785,5.3785,5.3785,5.3785,5.3785,5.3785,5.3785,5.3785,5.3785,5.3785,5.3785,5.3785,5.3785,5.3785,5.3785,5.3785,5.3785,5.3678,5.3461,5.3162,5.2801,5.2512,5.2307,5.2464,5.2512,5.2344,5.197,5.1898,5.2295,5.1802,5.1489,5.1489,5.1008,5.0696,5.0696,5.0696,5.0696,5.0696,5.0696,5.0696,5.0696,5.0696,5.0696,5.0696,5.0696,5.0696,4.4272,4.3942,4.3864,4.7068,4.5191,0.0,4.4724,0.0,0.0,0.0,0.0,0.0,0.0,0.0,0.0,0.0,0.0,0.0,0.0,0.0,0.0,0.0,0.0,0.0,0.0,0.0,0.0,0.0,0.0,0.0,0.0,0.0,5.2812,5.5803,5.6092,5.6452,5.6981,5.6981,5.6981,5.6981,5.6981,5.6981,5.6981,5.6981,5.6981,5.6981,5.6981,5.6981,5.6981,5.6981,5.6981,5.6981,5.6981,5.6981,5.7029,5.7405,5.7309,5.6981,5.6981,5.6765,5.6452,5.626,5.5587,5.4856,5.4664,5.4231,5.3785,5.3785,5.3785,5.3785,5.3785,5.3785,5.3785,5.3785,5.3785,5.3785,5.3785,5.3785,5.3785,5.3785,5.3785,5.3785,5.3785,5.3785,5.3702,5.3389,5.3053,5.2764,5.2632,5.2716,5.2764,5.2608,5.2295,5.2187,5.256,5.2067,5.1778,5.1778,5.1105,5.0696,5.0696,5.0696,5.0696,5.0696,5.0696,5.0696,5.0696,5.0696,5.0696,5.0696,5.0696,5.0696]},{"header":{"parameterUnit":"m.s-1","parameterCategory":1,"la1":30.6,"la2":29.2853,"lo1":-89.7004,"lo2":-87.6739,"dx":0.0162,"dy":0.0183,"nx":112,"ny":82,"refTime":"2022-11-09T06:00:00:Z","depth":0,"parameterNumber":3,"parameterNumberName":"V-component_of_WINDS"},"data":[0.0,0.0,0.0,0.0,0.0,0.0,0.0,0.0,0.0,0.0,0.0,0.0,0.0,0.0,0.0,0.0,0.0,0.0,0.0,0.0,0.0,0.0,0.0,0.0,0.0,0.0,0.0,0.0,0.0,0.0,0.0,0.0,0.0,0.0,0.0,0.0,0.0,0.0,0.0,0.0,0.0,0.0,0.0,0.0,0.0,0.0,0.0,0.0,0.0,0.0,0.0,0.0,0.0,0.0,0.0,0.0,0.0,0.0,0.0,0.0,0.0,0.0,0.0,0.0,0.0,0.0,0.0,0.0,0.0,0.0,0.0,0.0,0.0,0.0,0.0,0.0,0.0,0.0,0.0,0.0,0.0,0.0,0.0,0.0,0.0,0.0,0.0,0.0,0.0,0.0,2.5711,2.6988,2.7796,2.8261,2.8348,2.8359,2.6795,2.3148,0.0,0.0,0.0,0.0,0.0,0.0,0.0,0.0,0.0,0.0,0.0,0.0,0.0,0.0,0.0,0.0,0.0,0.0,0.0,0.0,0.0,0.0,0.0,0.0,0.0,0.0,0.0,0.0,0.0,0.0,0.0,0.0,0.0,0.0,0.0,0.0,0.0,0.0,0.0,0.0,0.0,0.0,0.0,0.0,0.0,0.0,0.0,0.0,0.0,0.0,0.0,0.0,0.0,0.0,0.0,0.0,0.0,0.0,0.0,0.0,0.0,0.0,0.0,0.0,0.0,0.0,0.0,0.0,0.0,0.0,0.0,0.0,0.0,0.0,0.0,0.0,0.0,0.0,0.0,0.0,0.0,0.0,0.0,0.0,0.0,0.0,0.0,0.0,0.0,0.0,0.0,0.0,0.0,0.0,0.0,0.0,0.0,0.0,0.0,0.0,0.0,0.0,0.0,0.0,2.6324,2.9257,2.9685,2.9803,2.994,2.9954,2.8363,2.4626,0.0,0.0,0.0,0.0,0.0,0.0,0.0,0.0,0.0,0.0,0.0,0.0,0.0,0.0,0.0,0.0,0.0,0.0,0.0,0.0,0.0,0.0,0.0,0.0,0.0,0.0,0.0,0.0,0.0,0.0,0.0,0.0,0.0,0.0,0.0,0.0,0.0,0.0,0.0,0.0,0.0,0.0,0.0,0.0,0.0,0.0,0.0,0.0,0.0,0.0,0.0,0.0,0.0,0.0,0.0,0.0,0.0,0.0,0.0,0.0,0.0,0.0,0.0,0.0,0.0,0.0,0.0,0.0,0.0,0.0,0.0,0.0,0.0,0.0,0.0,0.0,0.0,0.0,0.0,0.0,0.0,0.0,0.0,0.0,0.0,0.0,0.0,0.0,0.0,0.0,0.0,0.0,0.0,0.0,0.0,0.0,0.0,0.0,0.0,0.0,0.0,0.0,0.0,2.6275,2.8447,3.1795,3.1413,3.1108,3.1609,3.1287,2.9437,2.5607,2.4282,0.0,0.0,0.0,0.0,0.0,0.0,0.0,0.0,0.0,0.0,0.0,0.0,0.0,0.0,0.0,0.0,0.0,0.0,0.0,0.0,0.0,0.0,0.0,0.0,0.0,0.0,0.0,0.0,0.0,0.0,0.0,0.0,0.0,0.0,0.0,0.0,0.0,0.0,0.0,0.0,0.0,0.0,0.0,0.0,0.0,0.0,0.0,0.0,0.0,0.0,0.0,0.0,0.0,0.0,0.0,0.0,0.0,0.0,0.0,0.0,0.0,0.0,0.0,0.0,0.0,0.0,0.0,0.0,0.0,0.0,0.0,0.0,0.0,0.0,0.0,0.0,0.0,0.0,0.0,0.0,0.0,0.0,0.0,0.0,0.0,0.0,0.0,0.0,0.0,0.0,0.0,0.0,0.0,0.0,0.0,0.0,0.0,0.0,0.0,0.0,0.0,0.0,2.8915,3.0998,3.356,3.2928,3.2567,3.3113,3.2335,3.0262,2.6578,2.5077,0.0,0.0,0.0,0.0,0.0,0.0,0.0,0.0,0.0,0.0,0.0,0.0,0.0,0.0,0.0,0.0,0.0,0.0,0.0,0.0,0.0,0.0,0.0,0.0,0.0,0.0,0.0,0.0,0.0,0.0,0.0,0.0,0.0,0.0,0.0,0.0,0.0,0.0,0.0,0.0,0.0,0.0,0.0,0.0,0.0,0.0,0.0,0.0,0.0,0.0,0.0,0.0,0.0,0.0,0.0,0.0,0.0,0.0,0.0,0.0,0.0,0.0,0.0,0.0,0.0,0.0,0.0,0.0,0.0,0.0,0.0,0.0,0.0,0.0,0.0,0.0,0.0,0.0,0.0,0.0,0.0,0.0,0.0,0.0,0.0,0.0,0.0,0.0,0.0,0.0,0.0,0.0,0.0,0.0,0.0,0.0,0.0,0.0,0.0,0.0,0.0,0.0,3.1181,3.356,3.3624,3.4141,3.4411,3.4313,3.2968,3.0872,2.7864,2.527,0.0,0.0,0.0,0.0,0.0,0.0,0.0,0.0,0.0,0.0,0.0,0.0,0.0,0.0,0.0,0.0,0.0,0.0,0.0,0.0,0.0,0.0,0.0,0.0,0.0,0.0,0.0,0.0,0.0,0.0,0.0,0.0,0.0,0.0,0.0,0.0,0.0,0.0,0.0,0.0,0.0,0.0,0.0,0.0,0.0,0.0,0.0,0.0,0.0,0.0,0.0,0.0,0.0,0.0,0.0,0.0,0.0,0.0,0.0,0.0,0.0,0.0,0.0,0.0,0.0,0.0,0.0,0.0,0.0,0.0,0.0,0.0,0.0,0.0,0.0,0.0,0.0,0.0,0.0,0.0,0.0,0.0,0.0,0.0,0.0,0.0,0.0,0.0,0.0,0.0,0.0,0.0,0.0,0.0,0.0,0.0,0.0,0.0,0.0,0.0,0.0,0.0,3.1465,3.3973,0.0,3.5666,3.5427,3.5786,3.4903,3.27,2.8841,0.0,0.0,0.0,0.0,0.0,0.0,0.0,0.0,0.0,0.0,0.0,0.0,0.0,0.0,0.0,0.0,0.0,0.0,0.0,0.0,0.0,0.0,0.0,0.0,0.0,0.0,0.0,0.0,0.0,0.0,0.0,0.0,0.0,0.0,0.0,0.0,0.0,0.0,0.0,0.0,0.0,0.0,0.0,0.0,0.0,0.0,0.0,0.0,0.0,0.0,0.0,0.0,0.0,0.0,0.0,0.0,0.0,0.0,0.0,0.0,0.0,0.0,0.0,0.0,0.0,0.0,0.0,0.0,0.0,0.0,0.0,0.0,0.0,0.0,0.0,0.0,0.0,0.0,0.0,0.0,0.0,0.0,0.0,0.0,0.0,0.0,0.0,0.0,0.0,0.0,0.0,0.0,0.0,0.0,0.0,0.0,0.0,0.0,0.0,0.0,0.0,0.0,3.0184,3.3076,3.5695,0.0,3.7362,3.688,3.6988,3.6224,3.3963,2.9751,0.0,0.0,0.0,0.0,0.0,0.0,0.0,0.0,0.0,0.0,0.0,0.0,0.0,0.0,0.0,0.0,0.0,0.0,0.0,0.0,0.0,0.0,0.0,0.0,0.0,0.0,0.0,0.0,0.0,0.0,0.0,0.0,0.0,0.0,0.0,0.0,0.0,0.0,0.0,0.0,0.0,0.0,0.0,0.0,0.0,0.0,0.0,0.0,0.0,0.0,0.0,0.0,0.0,0.0,0.0,0.0,0.0,0.0,0.0,0.0,0.0,0.0,0.0,0.0,0.0,0.0,0.0,0.0,0.0,0.0,0.0,0.0,0.0,0.0,0.0,0.0,0.0,0.0,0.0,0.0,0.0,0.0,0.0,0.0,0.0,0.0,0.0,0.0,0.0,0.0,0.0,0.0,0.0,0.0,0.0,0.0,0.0,0.0,0.0,0.0,0.0,0.0,3.1867,3.6411,3.931,3.8506,3.9115,3.9077,3.7741,3.6709,3.4469,0.0,0.0,0.0,0.0,0.0,0.0,0.0,0.0,0.0,0.0,0.0,0.0,0.0,0.0,0.0,0.0,0.0,0.0,0.0,0.0,0.0,0.0,0.0,0.0,0.0,0.0,0.0,0.0,0.0,0.0,0.0,0.0,0.0,0.0,0.0,0.0,0.0,0.0,0.0,0.0,0.0,0.0,0.0,0.0,0.0,0.0,0.0,0.0,0.0,0.0,0.0,0.0,0.0,0.0,0.0,0.0,0.0,0.0,0.0,0.0,0.0,0.0,0.0,0.0,0.0,0.0,0.0,0.0,0.0,0.0,0.0,0.0,0.0,0.0,0.0,0.0,0.0,0.0,0.0,0.0,0.0,0.0,0.0,0.0,0.0,0.0,0.0,0.0,0.0,0.0,0.0,0.0,0.0,0.0,0.0,0.0,0.0,0.0,0.0,0.0,0.0,0.0,0.0,3.2393,3.6642,3.9503,3.9286,3.9455,3.9425,3.9027,3.8749,3.6535,3.173,0.0,0.0,0.0,0.0,0.0,0.0,0.0,0.0,0.0,0.0,0.0,0.0,0.0,0.0,0.0,0.0,0.0,0.0,0.0,0.0,0.0,0.0,0.0,0.0,0.0,0.0,0.0,0.0,0.0,0.0,0.0,0.0,0.0,0.0,0.0,0.0,0.0,0.0,0.0,0.0,0.0,0.0,0.0,0.0,0.0,0.0,0.0,0.0,0.0,0.0,0.0,0.0,0.0,0.0,0.0,0.0,0.0,0.0,0.0,0.0,0.0,0.0,0.0,0.0,0.0,0.0,0.0,0.0,0.0,0.0,0.0,0.0,0.0,0.0,0.0,0.0,0.0,0.0,0.0,0.0,0.0,0.0,0.0,0.0,0.0,0.0,0.0,0.0,0.0,0.0,0.0,0.0,0.0,0.0,0.0,0.0,0.0,0.0,0.0,0.0,0.0,0.0,3.3579,3.7516,4.0305,4.0305,4.0305,4.0176,3.9939,3.9914,3.8126,3.3874,0.0,0.0,0.0,0.0,0.0,0.0,0.0,0.0,0.0,0.0,0.0,0.0,0.0,0.0,0.0,0.0,0.0,0.0,0.0,0.0,0.0,0.0,0.0,0.0,0.0,0.0,0.0,0.0,0.0,0.0,0.0,0.0,0.0,0.0,0.0,0.0,0.0,0.0,0.0,0.0,0.0,0.0,0.0,0.0,0.0,0.0,0.0,0.0,0.0,0.0,0.0,0.0,0.0,0.0,0.0,0.0,0.0,0.0,0.0,0.0,0.0,0.0,0.0,0.0,0.0,0.0,0.0,0.0,0.0,0.0,0.0,0.0,0.0,0.0,0.0,0.0,0.0,0.0,0.0,0.0,0.0,0.0,0.0,0.0,0.0,0.0,0.0,0.0,0.0,0.0,0.0,0.0,0.0,0.0,0.0,0.0,0.0,0.0,0.0,0.0,0.0,0.0,3.5038,3.8723,4.1299,4.1299,4.1299,4.1064,4.0515,4.0463,3.928,3.6447,0.0,0.0,0.0,0.0,0.0,0.0,0.0,0.0,0.0,0.0,0.0,0.0,0.0,0.0,0.0,0.0,0.0,0.0,0.0,0.0,0.0,0.0,0.0,0.0,0.0,0.0,0.0,0.0,0.0,0.0,0.0,0.0,0.0,0.0,0.0,0.0,0.0,0.0,0.0,0.0,0.0,0.0,0.0,0.0,0.0,0.0,0.0,0.0,0.0,0.0,0.0,0.0,0.0,0.0,0.0,0.0,0.0,0.0,0.0,0.0,3.3418,0.0,0.0,0.0,0.0,0.0,0.0,0.0,0.0,0.0,0.0,0.0,0.0,0.0,0.0,0.0,0.0,0.0,0.0,0.0,0.0,0.0,0.0,0.0,0.0,0.0,0.0,0.0,0.0,0.0,0.0,0.0,0.0,0.0,0.0,0.0,0.0,0.0,0.0,0.0,0.0,0.0,3.5582,3.8934,4.1299,4.1299,4.1299,4.1247,4.1116,4.109,3.9878,3.7008,3.6131,0.0,0.0,0.0,0.0,0.0,0.0,0.0,0.0,0.0,0.0,0.0,0.0,0.0,0.0,0.0,0.0,0.0,0.0,0.0,0.0,0.0,0.0,0.0,0.0,0.0,0.0,0.0,0.0,0.0,0.0,0.0,0.0,0.0,0.0,0.0,0.0,0.0,0.0,0.0,0.0,0.0,0.0,0.0,0.0,0.0,0.0,0.0,0.0,0.0,0.0,0.0,0.0,0.0,0.0,0.0,0.0,0.0,0.0,0.0,0.0,3.4064,0.0,0.0,0.0,0.0,0.0,0.0,0.0,0.0,0.0,0.0,0.0,0.0,0.0,0.0,0.0,0.0,0.0,0.0,0.0,0.0,0.0,0.0,0.0,0.0,0.0,0.0,0.0,0.0,0.0,0.0,0.0,0.0,0.0,0.0,0.0,0.0,0.0,0.0,0.0,0.0,3.704,3.9605,4.1299,4.1299,4.1299,4.1299,4.1299,4.1299,4.0677,3.9164,3.7767,0.0,0.0,0.0,0.0,0.0,0.0,0.0,0.0,0.0,0.0,0.0,0.0,0.0,0.0,0.0,0.0,0.0,0.0,0.0,0.0,0.0,0.0,0.0,0.0,0.0,0.0,0.0,0.0,0.0,0.0,0.0,0.0,0.0,0.0,0.0,0.0,0.0,0.0,0.0,0.0,0.0,0.0,0.0,0.0,0.0,0.0,0.0,0.0,0.0,0.0,0.0,0.0,0.0,3.8434,3.8434,3.8434,3.8311,3.8311,3.8357,3.7349,3.7492,3.8145,3.5442,0.0,0.0,0.0,0.0,0.0,0.0,0.0,0.0,0.0,0.0,0.0,0.0,0.0,0.0,0.0,0.0,0.0,0.0,0.0,0.0,0.0,0.0,0.0,0.0,3.6701,3.6683,3.4267,0.0,0.0,0.0,0.0,0.0,0.0,0.0,0.0,0.0,0.0,0.0,3.8504,4.0202,4.1299,4.1299,4.1299,4.1299,4.1299,4.1299,4.1299,4.1299,3.9062,3.7981,0.0,0.0,0.0,0.0,0.0,0.0,0.0,0.0,0.0,0.0,0.0,0.0,0.0,0.0,0.0,0.0,0.0,0.0,0.0,0.0,0.0,0.0,0.0,0.0,0.0,0.0,0.0,0.0,0.0,0.0,0.0,0.0,3.1884,3.3979,0.0,0.0,0.0,0.0,0.0,0.0,0.0,0.0,0.0,0.0,0.0,0.0,0.0,3.7973,3.9978,4.0008,4.0857,4.2512,4.2512,4.2512,4.2512,4.2493,4.2493,4.2453,4.1227,0.0,3.9019,3.9185,0.0,0.0,0.0,0.0,0.0,0.0,0.0,0.0,0.0,0.0,0.0,0.0,0.0,0.0,0.0,0.0,0.0,0.0,0.0,0.0,0.0,0.0,4.1063,4.1252,4.1418,4.1194,0.0,3.6586,3.3487,3.2777,3.3425,0.0,0.0,0.0,0.0,0.0,0.0,0.0,3.8684,4.0202,4.1299,4.1299,4.1299,4.1299,4.1299,4.1299,4.1299,4.1299,4.0936,4.0779,4.0829,3.8822,0.0,0.0,0.0,0.0,0.0,0.0,0.0,0.0,0.0,0.0,0.0,0.0,0.0,0.0,0.0,0.0,0.0,0.0,0.0,0.0,0.0,0.0,0.0,0.0,0.0,0.0,0.0,0.0,0.0,3.2659,3.5175,3.7558,3.7482,3.7173,0.0,0.0,0.0,0.0,0.0,0.0,0.0,0.0,0.0,3.905,3.9439,4.0397,4.2023,4.2023,4.2472,4.329,4.329,4.329,4.329,4.329,4.329,4.326,4.2711,4.2074,4.143,4.1032,4.0777,4.0429,0.0,0.0,0.0,0.0,3.6573,3.661,3.7116,3.8465,3.9837,3.8837,0.0,0.0,0.0,0.0,0.0,0.0,0.0,3.6246,0.0,0.0,4.105,4.216,4.2688,4.28,4.244,4.054,3.8225,0.0,3.5985,3.5904,3.4529,0.0,0.0,0.0,0.0,3.9573,4.054,4.1611,4.216,4.1821,4.1794,4.1664,4.1325,4.1299,4.1299,4.1299,4.1299,4.1299,4.1299,4.0332,3.8981,0.0,0.0,0.0,0.0,0.0,0.0,0.0,0.0,0.0,0.0,0.0,0.0,0.0,0.0,0.0,0.0,0.0,0.0,0.0,0.0,0.0,0.0,0.0,0.0,0.0,0.0,0.0,0.0,3.584,3.8171,4.0655,4.0657,4.0641,0.0,0.0,0.0,0.0,0.0,0.0,3.8693,3.9159,4.0064,4.1354,4.1863,4.2671,4.3818,4.3818,4.3818,4.3818,4.3818,4.3818,4.3818,4.3818,4.3818,4.3818,4.3818,4.3818,4.3698,4.2432,4.1906,4.1879,4.1373,4.0575,3.9635,3.901,3.8862,3.9051,3.9561,4.0826,4.2177,4.2187,4.2267,4.211,4.0858,0.0,0.0,0.0,0.0,3.8246,3.9491,4.044,4.1424,4.2874,4.3554,4.3802,4.3578,4.3286,4.2219,0.0,3.8608,3.8161,3.6994,0.0,0.0,0.0,0.0,4.0958,4.2238,4.2762,4.2866,4.2447,4.2421,4.2213,4.1769,4.1611,4.1533,4.1533,4.1402,4.1299,4.1299,4.1299,4.044,3.8577,0.0,0.0,0.0,0.0,0.0,0.0,0.0,0.0,0.0,0.0,0.0,0.0,0.0,0.0,0.0,0.0,0.0,0.0,0.0,0.0,0.0,0.0,0.0,0.0,0.0,0.0,0.0,0.0,0.0,4.2139,4.4239,0.0,0.0,0.0,0.0,4.1004,4.1817,4.2379,4.2243,4.2294,4.2858,4.4068,4.4117,4.4496,4.5185,4.5185,4.5185,4.5185,4.5185,4.5185,4.5185,4.5185,4.5185,4.5185,4.5185,4.5185,4.5095,4.3758,4.3579,4.3967,4.2102,4.1628,4.1891,4.1398,4.149,4.2099,4.3519,4.4476,4.5095,4.5095,4.5376,4.5416,4.3495,4.2626,0.0,0.0,4.1243,4.1855,4.2802,4.4025,4.503,4.515,4.518,4.495,4.4064,4.3878,4.3411,0.0,4.1384,4.075,3.9601,0.0,4.1507,4.0488,4.1743,4.2866,4.2945,4.2971,4.2997,4.2945,4.2945,4.2945,4.2918,4.2448,4.2134,4.2134,4.1611,4.1299,4.1299,4.1299,4.1247,4.1116,3.8948,0.0,0.0,0.0,0.0,0.0,0.0,0.0,0.0,0.0,0.0,0.0,0.0,0.0,0.0,0.0,0.0,0.0,0.0,0.0,0.0,0.0,0.0,0.0,0.0,0.0,0.0,0.0,0.0,4.404,4.5353,0.0,4.5183,4.5536,4.5211,4.3741,4.5321,4.6056,4.5389,4.5332,4.5461,4.5776,4.5394,4.5229,4.5304,4.547,4.547,4.5304,4.5304,4.5304,4.5304,4.5304,4.5304,4.5304,4.5304,4.5304,4.5244,4.4796,4.4736,4.4885,4.4167,4.4007,4.4146,4.3967,4.4007,4.4215,4.4775,4.5095,4.5304,4.5304,4.5391,4.5418,4.4723,4.4427,4.4249,4.3895,4.3933,4.4166,4.4504,4.5254,4.6031,4.6471,4.692,4.7274,4.7355,4.6879,4.628,4.5787,4.3546,4.1697,4.1668,4.1956,4.2055,4.1637,4.3023,4.3963,4.3624,4.4225,4.4381,4.365,4.3572,4.3415,4.3023,4.284,4.2709,4.2709,4.2186,4.1898,4.1898,4.1507,4.1299,4.1299,4.0489,3.8663,0.0,0.0,0.0,0.0,0.0,0.0,0.0,0.0,0.0,0.0,0.0,0.0,0.0,0.0,0.0,0.0,0.0,0.0,0.0,0.0,0.0,0.0,0.0,0.0,0.0,0.0,4.448,4.5451,4.6703,4.7505,4.7505,4.7746,4.7655,4.7135,4.8372,4.876,4.7883,4.7814,4.7719,4.7547,4.69,4.659,4.6619,4.6526,4.6411,4.6214,4.6109,4.6068,4.6068,4.6244,4.6292,4.6322,4.6552,4.6642,4.6642,4.6642,4.6642,4.6552,4.5633,4.5304,4.5304,4.5304,4.5304,4.5304,4.5304,4.5304,4.5304,4.5304,4.5454,4.5693,4.5903,4.6112,4.6352,4.6582,4.6642,4.6642,4.6642,4.698,4.7429,4.7878,4.8319,4.8768,4.9187,4.88,4.8311,4.8311,4.5628,4.3328,4.316,4.2927,4.2539,4.1975,4.284,4.3415,4.3049,4.4042,4.4434,4.3676,4.3938,4.4016,4.3598,4.3075,4.2892,4.3284,4.2422,4.2081,4.2448,4.1533,4.0907,4.0749,3.9965,3.8585,3.659,0.0,0.0,0.0,0.0,0.0,0.0,0.0,0.0,0.0,0.0,0.0,0.0,0.0,0.0,0.0,0.0,0.0,0.0,0.0,0.0,0.0,0.0,0.0,4.2942,4.4978,4.6371,4.6404,4.8489,4.9947,4.9947,5.0603,5.1041,5.1024,5.0893,5.0459,4.9705,4.967,4.9592,4.9448,4.867,4.8573,4.9199,4.8458,4.8067,4.8067,4.7791,4.7662,4.7693,4.8137,4.8349,4.8379,4.9007,4.9277,4.9277,4.9277,4.9277,4.9037,4.6433,4.5424,4.5424,4.5424,4.5424,4.5424,4.5424,4.5424,4.5424,4.5424,4.5873,4.651,4.7189,4.7818,4.8468,4.9097,4.9277,4.9277,4.9277,4.9277,4.9277,4.9307,4.9307,4.9307,4.9337,4.9337,4.9337,4.9337,4.7776,4.5901,4.4171,4.3868,4.3283,4.1631,4.143,0.0,4.143,4.2422,4.3101,4.3023,4.4068,4.4747,4.4643,4.3232,4.2787,4.386,4.2317,4.1874,4.2971,4.1377,4.0228,3.973,3.7497,3.728,3.9136,0.0,0.0,0.0,0.0,0.0,0.0,0.0,0.0,0.0,0.0,0.0,0.0,0.0,0.0,0.0,0.0,0.0,0.0,0.0,0.0,0.0,0.0,4.5789,4.561,4.6694,4.7867,4.8928,5.0107,5.0832,5.0832,5.1508,5.1715,5.1141,5.2084,5.2276,5.1251,5.1143,5.1006,5.0773,5.0111,4.9738,4.9781,4.9695,4.9587,4.9465,4.94,4.9356,4.9356,4.9273,4.9253,4.9231,4.9284,4.9277,4.9277,4.9277,4.9277,4.9239,4.8498,4.8199,4.8199,4.8199,4.8199,4.8199,4.8199,4.8199,4.8199,4.8199,4.8319,4.8528,4.8708,4.8887,4.9067,4.9247,4.9277,4.9277,4.9277,4.9277,4.9396,4.9853,4.9949,5.0069,5.0571,5.069,5.069,5.069,5.0241,4.8931,4.5985,4.5219,4.4606,4.3363,4.4251,0.0,4.446,4.54,4.5478,4.3833,4.5428,4.574,4.365,4.4591,4.5062,4.4539,4.365,4.3337,4.365,4.2788,4.2213,4.2056,4.175,4.1197,0.0,0.0,0.0,0.0,0.0,0.0,0.0,0.0,0.0,0.0,0.0,0.0,0.0,0.0,0.0,0.0,0.0,0.0,0.0,0.0,0.0,0.0,4.6679,4.8321,4.8523,4.8956,4.9612,5.0473,5.1217,5.1776,5.2114,5.2841,5.3213,5.3034,5.3869,5.4132,5.3465,5.3395,5.3158,5.2633,5.1902,5.1277,5.0798,5.0571,5.0406,5.0275,5.0188,5.0114,5.0144,5.0183,5.0192,5.02,5.0246,5.0245,5.0245,5.0161,5.0115,0.0,0.0,0.0,0.0,0.0,4.9277,4.9277,4.9277,4.9277,4.9277,4.9277,4.9277,4.9337,4.9583,4.9673,4.9733,5.0002,5.0115,5.0175,5.0444,5.0504,5.0684,5.1319,5.1445,5.1535,5.1947,5.2037,5.2037,5.2037,5.2037,0.0,4.8821,4.7373,4.5962,4.4395,4.4832,4.5236,4.4891,4.5649,4.5687,4.4382,4.5872,4.629,4.4617,4.5245,0.0,0.0,0.0,4.3888,4.3855,4.3725,0.0,0.0,0.0,4.2407,4.2007,4.2062,0.0,0.0,4.0166,3.9367,0.0,0.0,0.0,0.0,0.0,0.0,0.0,0.0,0.0,0.0,0.0,0.0,0.0,0.0,0.0,0.0,4.786,4.9864,5.1269,5.1539,5.1539,5.1472,5.2131,5.2875,5.3687,5.4329,5.5006,5.5665,5.5699,5.5698,5.5677,0.0,0.0,0.0,0.0,5.2917,5.2134,5.1334,5.0913,5.0913,5.0686,5.0608,5.0699,5.1096,5.1296,5.1364,5.1688,5.1813,5.1767,5.1533,5.1415,5.1295,5.0025,4.9516,4.9516,4.9516,4.9516,4.9516,4.9516,0.0,0.0,4.9606,4.9666,4.9845,5.0368,5.0548,5.0667,5.1265,5.1415,5.1535,5.2157,5.2306,5.2456,5.3079,5.3198,5.3198,5.3198,5.3198,5.3198,5.3198,5.3198,5.2905,5.1929,4.9776,4.7454,4.5232,4.4685,4.4454,4.4387,4.4916,4.5226,4.5016,4.6086,0.0,4.654,4.5641,4.5616,4.6815,4.5444,4.4568,4.4507,4.5021,4.4509,4.2808,4.2495,4.2974,4.4243,4.5285,4.651,4.787,4.3219,4.2295,0.0,0.0,0.0,0.0,0.0,0.0,0.0,0.0,0.0,0.0,0.0,0.0,0.0,0.0,0.0,4.8124,5.0123,5.1995,5.2942,5.3585,5.3721,5.3145,5.3721,5.4431,5.5192,5.5395,5.553,5.5699,5.5699,5.5669,5.5532,5.5547,5.5402,5.512,5.4299,5.3735,5.3597,5.2731,5.2329,5.2329,0.0,0.0,5.3038,5.2933,5.3038,5.3429,5.3289,5.308,5.2912,5.2809,5.2785,5.2665,5.1349,5.084,5.084,5.084,5.084,5.084,5.084,5.1199,5.1648,5.1648,5.1977,5.248,5.2576,5.2606,0.0,5.2779,5.2785,5.2839,5.2989,5.3019,5.3049,5.3169,5.3198,5.3198,5.3198,5.3198,5.3198,5.3198,5.3198,5.3125,5.293,5.1332,4.9481,4.7738,4.8164,4.8492,4.8137,4.8541,4.8377,4.7028,4.791,4.8028,4.6624,4.7141,4.8058,4.9242,4.9013,4.8811,4.8796,4.9702,4.9419,4.7694,4.9212,4.9257,4.7633,4.8725,4.9177,4.8976,4.7985,4.7777,0.0,0.0,0.0,0.0,0.0,0.0,0.0,0.0,0.0,0.0,0.0,4.5921,4.5921,0.0,4.9567,4.9938,5.1946,5.3721,5.4481,5.4938,5.5006,5.4617,5.4938,5.5446,5.6172,5.624,5.6393,5.6765,5.6799,5.6923,5.7241,5.7256,5.7177,5.7064,5.6617,5.5952,5.5041,5.4643,5.4182,5.3691,5.3691,5.3876,5.4214,5.4068,5.4065,5.4135,5.3903,5.364,5.3398,5.3247,5.3198,5.3139,5.2456,5.2187,5.2187,5.2187,5.2187,5.2187,5.2187,5.2426,5.2695,5.2695,5.2929,5.3198,5.3198,5.3198,5.3198,5.3198,5.3198,5.3288,5.3593,5.3683,5.3773,5.4102,5.4216,5.4216,5.4216,5.4216,5.4216,5.4216,5.4216,5.4216,5.4216,5.3203,5.2009,5.0886,5.1221,5.1524,5.1304,5.1571,5.1349,5.0158,5.0569,5.0429,4.922,4.9638,5.0078,5.0382,5.0905,5.1101,5.0812,5.1829,5.1983,5.1137,5.2156,5.2096,5.0908,5.1441,5.1379,5.0744,5.0744,5.0391,0.0,0.0,0.0,0.0,0.0,0.0,0.0,0.0,4.6406,4.716,4.7524,4.7769,4.7904,4.9583,5.1217,5.1945,5.3619,5.5074,5.58,5.5902,5.6003,5.6308,5.6105,5.624,5.7137,5.7239,5.7543,5.8272,5.834,5.8592,5.9182,5.9216,5.9093,5.8787,5.8626,5.7732,5.6084,5.5915,5.5451,5.4706,5.4706,5.4768,5.4891,5.4891,5.4835,5.4667,5.4442,5.4177,5.3959,5.3686,5.3588,5.3588,5.3588,5.3588,5.3558,5.3288,5.3198,5.3198,5.3198,5.3288,5.3408,5.3408,5.3498,5.3588,5.3588,5.3588,5.3588,5.3588,5.3588,5.3707,5.4251,5.4401,5.4521,5.5059,5.5179,5.5179,5.5179,5.5179,5.5179,5.5179,5.5179,5.5179,5.5179,5.476,5.4117,5.3352,5.352,5.3707,5.3614,5.3846,5.3808,5.3298,5.3048,5.2685,5.2123,5.2363,5.2296,5.1544,5.2405,5.2734,5.2314,5.3114,5.3528,5.3408,5.3408,5.3348,5.3198,5.3198,5.2869,5.2187,5.2187,5.1535,4.0235,4.1407,4.3254,4.4228,4.5331,4.6568,0.0,0.0,4.8987,5.0391,5.1219,5.1861,5.2605,5.3484,5.4329,5.509,5.5395,5.5834,5.6562,5.6697,5.7171,5.8472,5.7476,5.7239,5.8607,5.8743,5.9047,5.981,5.9844,5.9877,5.9979,5.9979,5.9578,5.8747,5.7961,5.7077,5.604,5.5245,5.4823,5.4706,5.4706,5.5014,5.5592,5.5592,5.5811,5.6128,5.5643,5.542,5.537,5.5095,5.497,5.497,5.497,5.497,5.482,5.3648,5.3198,5.3198,5.3198,5.3593,5.4102,5.4102,5.4491,5.497,5.497,5.497,5.497,5.497,5.497,5.497,5.5059,5.5089,5.5089,5.5179,5.5179,5.5179,5.5179,5.5179,5.5179,5.5179,5.5179,5.5179,5.5179,5.5119,5.4701,5.3523,5.4318,5.4849,5.4357,5.4813,5.5193,5.5106,5.42,5.3557,5.3473,5.4847,5.5207,5.4059,5.4562,5.4853,5.4818,5.4919,5.47,5.4102,5.4102,5.3803,5.3198,5.3198,5.2869,5.2187,5.2187,5.1798,4.3822,4.3707,4.4201,0.0,4.7936,4.8056,5.0405,5.0913,5.1352,5.2875,5.3416,5.3856,5.4617,5.504,5.548,0.0,5.6341,5.6747,5.7915,5.8066,5.8472,5.9539,5.9099,5.8964,5.9573,5.9641,5.9776,6.008,6.0114,6.0317,6.0757,6.0791,6.0572,6.0046,5.9675,5.8788,5.7272,5.6915,5.6459,5.5899,5.5899,5.6077,5.6354,5.6354,5.6364,5.6372,5.6003,5.583,5.5805,5.5531,5.5431,5.5406,5.5255,5.5179,5.5119,5.4551,5.4341,5.4341,5.4341,5.4551,5.479,5.479,5.497,5.5179,5.5179,5.5179,5.5179,5.5179,5.5179,5.5179,5.5179,5.5179,5.5179,5.5179,5.5179,5.5179,5.5179,5.5179,5.5179,5.5179,5.5179,5.5179,5.5179,5.5179,5.5027,5.4509,5.5496,5.6221,5.6015,5.6882,5.7385,5.703,5.6214,5.5681,5.5681,5.6301,5.6493,5.5992,5.6203,5.6286,5.6286,5.6286,5.5987,5.5384,5.5359,5.482,5.3773,5.3773,5.3234,5.2187,5.2187,5.1858,4.5872,4.5587,4.5689,5.0119,5.0457,5.0288,5.2435,5.3078,5.3551,5.4668,5.4905,5.5141,5.5868,5.6003,5.6308,5.7273,5.7408,5.7848,5.9115,5.9284,5.9573,6.0351,6.0419,6.052,6.0723,6.0351,6.0283,6.0689,6.0554,6.0757,6.1569,6.1603,6.1413,6.1028,6.0757,5.9827,5.8211,5.7933,5.7472,5.681,5.681,5.681,5.681,5.681,5.6689,5.6494,5.6225,5.6077,5.5979,5.5706,5.5556,5.5456,5.5255,5.5179,5.5179,5.5179,5.5179,5.5179,5.5179,5.5179,5.5179,5.5179,5.5179,5.5179,5.5179,5.5179,5.5179,5.5179,5.5179,5.5179,5.5179,5.5179,5.5179,5.5179,5.5179,5.5179,5.5179,5.5179,5.5179,5.5179,5.5329,5.5504,5.5504,5.5598,5.5718,5.5718,5.6675,5.7304,5.7124,5.8261,5.8919,5.8414,5.7932,5.7663,5.7663,5.7483,5.7393,5.7393,5.7184,5.7094,5.7094,5.6944,5.6671,5.6222,5.6013,5.5474,5.4491,5.4491,5.3892,5.2755,5.2755,5.2396,4.5128,4.6737,4.8326,5.0626,5.2807,5.4397,5.4516,5.5074,5.5597,5.5665,5.5665,5.5902,5.663,5.6765,5.7239,5.8709,5.8912,5.9182,5.9945,6.008,6.0351,6.1163,6.1264,6.1535,0.0,6.0994,6.0723,6.2231,6.167,6.1603,6.2333,6.2367,6.1937,6.1028,6.0108,5.9199,5.8211,5.7306,5.6834,5.681,5.681,5.681,5.681,5.681,5.6785,5.6761,5.6494,5.625,5.5979,5.5706,5.5431,5.5204,5.5179,5.5179,5.5179,5.5179,5.5179,5.5179,5.5179,5.5179,5.5179,5.5179,5.5179,5.5179,5.5179,5.5179,5.5179,5.5179,5.5179,5.5179,5.5179,5.5179,5.5179,5.5179,5.5179,5.5179,5.5179,5.5179,5.5179,5.5179,5.5743,5.6162,5.6162,5.6645,5.7034,5.7034,5.7633,5.7816,5.7184,5.8261,5.9099,5.9069,5.9069,5.9039,5.9039,5.8444,5.8055,5.8055,5.7453,5.7094,5.7094,5.6551,5.6222,5.6192,5.5564,5.5209,5.5149,5.5149,5.482,5.4162,5.4162,5.3773,4.8462,4.9713,5.0626,5.2875,5.4025,5.4735,5.5209,5.553,5.5834,5.6325,5.6427,5.6781,5.8032,5.8235,5.8573,5.9573,5.9742,6.0013,6.0791,6.0892,6.1163,6.1941,6.2009,0.0,0.0,0.0,0.0,6.2367,6.2164,6.2144,6.24,6.24,6.1676,6.0108,5.9762,5.8863,5.7282,5.6978,5.681,5.681,5.681,5.681,5.681,5.681,5.681,5.6785,5.6519,5.6445,5.6494,5.6053,5.5929,5.5954,5.5606,5.5456,5.5431,5.5255,5.5179,5.5179,5.5179,5.5179,5.5179,5.5179,5.5179,5.5179,5.5179,5.5179,5.5179,5.5179,5.5179,5.5179,5.5179,5.5179,5.5179,5.5179,5.5179,5.5179,5.5179,5.5179,5.5179,5.5179,5.5359,5.5564,5.5564,5.5688,5.5987,5.6432,5.7423,5.8175,5.8411,5.883,5.9099,5.9099,5.9099,5.9099,5.9099,5.889,5.877,5.877,5.8115,5.7756,5.7756,5.7124,5.6611,5.6222,5.5983,5.5444,5.4551,5.4551,5.4192,5.3558,5.3558,5.3438,5.066,5.181,5.2486,5.4499,5.5175,5.5513,5.5969,5.6308,5.663,5.7103,5.7408,5.7863,5.881,5.9216,5.9742,6.0757,6.0689,6.0892,6.1941,6.1873,6.1873,6.2347,6.24,6.24,0.0,0.0,0.0,6.24,6.2144,6.1992,6.1877,6.1911,6.1173,5.9631,5.9256,5.8523,5.7306,5.6978,5.681,5.681,5.681,5.681,5.681,5.681,5.681,5.6785,5.6616,5.6592,5.6616,5.6176,5.6053,5.6077,5.5631,5.5456,5.5431,5.5255,5.5179,5.5179,5.5179,5.5179,5.5179,5.5179,5.5179,5.5179,5.5179,5.5179,5.5179,5.5179,5.5179,5.5179,5.5179,5.5179,5.5179,5.5179,5.5179,5.5179,5.5179,5.5179,5.5179,5.5179,5.5414,5.5564,5.5564,5.5743,5.6017,5.6462,5.7214,5.7965,5.868,5.8949,5.9099,5.9099,5.9099,5.9099,5.9099,5.9099,5.9099,5.9099,5.871,5.8354,5.8115,5.7453,5.6821,5.6222,5.5953,5.5444,5.4551,5.4551,5.4341,5.3917,5.3917,5.3917,5.1691,5.3078,5.4008,5.5395,5.6325,5.6867,5.6867,5.7374,5.7832,5.7832,5.8389,5.8844,5.8878,5.9539,6.0554,6.2042,6.1772,6.1839,6.324,6.2854,6.24,0.0,0.0,0.0,0.0,0.0,0.0,6.24,6.1738,6.1284,6.1078,6.1028,6.0588,5.9609,5.8683,5.8188,5.8142,5.7234,5.681,5.681,5.681,5.681,5.681,5.681,5.681,5.681,5.6785,5.664,5.6397,5.6127,5.591,5.5691,5.5415,5.5345,5.5375,5.5349,5.5349,5.5349,5.5349,5.5264,5.5179,5.5204,5.5204,5.5204,5.5204,5.5204,5.5204,5.5179,5.5179,5.5179,5.5204,5.5204,5.5204,5.5229,5.5229,5.5229,5.5204,5.5204,5.5204,5.5179,5.5713,5.6162,5.6162,5.6671,5.7034,5.7034,5.7064,5.7334,5.7965,5.8623,5.9039,5.9009,5.9069,5.9099,5.9069,5.9069,5.9099,5.9099,5.9069,5.877,5.8115,5.7453,5.6825,5.6252,5.5623,5.5299,5.5299,5.5299,5.5269,5.5239,5.5239,5.5209,5.4177,5.5361,5.6055,5.6427,5.707,5.7611,5.7611,5.734,5.707,5.707,5.6781,5.6713,5.7255,5.8404,5.9607,6.052,6.1501,0.0,6.2618,6.2516,0.0,6.24,0.0,6.24,6.24,6.24,0.0,0.0,6.2231,6.2099,6.205,6.1391,6.0588,5.9609,5.8683,5.7863,5.7163,5.693,5.681,5.681,5.681,5.681,5.681,5.681,5.681,5.6785,5.6592,5.6567,5.6689,5.6421,5.6678,5.7205,5.6932,5.7136,5.7568,5.7365,5.7288,5.7288,5.7288,5.6374,5.5229,5.5431,5.5481,5.5481,5.5481,5.5481,5.5456,5.5255,5.5179,5.5229,5.5431,5.5481,5.5556,5.5755,5.5805,5.5731,5.5531,5.5481,5.5431,5.5229,5.5354,5.5474,5.5474,5.6013,5.6432,5.6432,5.6821,5.7154,5.7334,5.7962,5.8145,5.7663,5.8501,5.8919,5.8384,5.883,5.9099,5.9099,5.865,5.8264,5.8115,5.7453,5.7034,5.6855,5.6705,5.6615,5.6615,5.6615,5.6376,5.5953,5.5953,5.5683,5.5564,5.6731,5.7273,5.7273,5.7577,5.7832,5.7476,5.7103,5.6697,5.6393,5.624,5.663,5.7983,5.893,6.0047,6.1806,6.2245,0.0,6.2854,6.2584,6.24,0.0,6.24,0.0,6.24,6.24,6.24,0.0,6.24,6.2223,6.181,6.1309,6.0397,5.9043,5.8455,5.7746,5.681,5.681,5.681,5.681,5.681,5.6939,5.7217,5.7217,5.7401,5.7678,0.0,5.7556,5.7654,5.7407,5.7597,5.8034,5.7759,5.7872,5.8237,5.8085,5.7977,5.7977,5.7977,5.7288,5.6455,5.6607,5.6658,5.6632,5.6506,5.648,5.6455,5.6302,5.6251,5.6328,5.6582,5.6658,5.6708,5.6859,5.6884,5.6809,5.6531,5.648,5.6404,5.6068,5.5833,5.5653,5.5653,5.5713,5.5773,5.5773,5.6047,5.6256,5.6256,5.7094,5.7513,5.7124,5.7782,5.8082,5.7693,5.8022,5.8351,5.865,5.8294,5.8085,5.8085,5.7752,5.7393,5.7094,5.7094,5.7094,5.7094,5.7094,5.6915,5.6611,5.6611,5.6402,5.6393,5.7408,5.79,5.79,5.7949,5.7814,5.7002,5.6799,5.6562,5.5733,5.5987,5.7036,5.9235,5.9573,6.0486,6.3396,6.2685,6.2076,6.2936,6.2482,6.2164,6.24,6.24,6.2434,6.2516,6.257,6.2584,6.2685,6.2553,6.2146,6.138,6.111,6.0131,5.8356,5.8286,5.7887,5.7087,5.7087,5.7087,5.7087,5.7087,5.7371,5.7925,5.7925,5.8264,5.8818,5.8818,5.8818,5.8793,5.8536,5.8496,5.8563,5.8334,5.8293,5.8353,5.8353,5.8353,5.8353,5.8353,5.8353,5.8323,5.8115,5.8029,5.8033,5.7803,5.7725,5.7699,5.7674,5.7674,5.7725,5.7977,5.8029,5.8029,5.8029,5.8029,5.7982,5.7674,5.7631,5.7617,5.7416,5.6941,5.6581,5.6581,5.6017,5.5568,5.5568,5.5508,5.5418,5.5329,5.6286,5.6944,5.6855,5.7004,5.7064,5.6974,5.7034,5.7363,5.7935,5.7965,5.7965,5.7965,5.8055,5.7842,5.7244,5.7304,5.7363,5.7363,5.7363,5.7304,5.7244,5.7244,5.7184,5.7442,5.778,5.79,5.79,5.8355,5.8457,5.7103,5.6799,5.6427,5.5074,5.4397,5.4769,5.6968,5.6849,5.7221,5.9588,5.9235,5.9133,6.0486,6.0588,6.096,0.0,6.24,6.2618,6.326,6.3308,0.0,0.0,6.3442,6.3008,6.3067,6.1541,6.0074,5.8739,5.8696,5.8622,5.8448,5.8448,5.8448,5.8448,5.8448,5.851,5.8633,5.8633,5.8695,5.8818,5.8818,0.0,5.8818,5.8768,5.905,5.9573,5.9522,5.9835,6.0326,6.0326,6.0326,6.0326,6.0326,6.0326,6.009,5.8752,5.8339,5.8309,5.8288,5.8258,5.8237,5.7977,5.7931,5.7977,5.8258,5.8339,5.8339,5.8339,5.8339,5.8156,5.7618,5.7783,5.8165,5.865,5.868,5.859,5.859,5.8052,5.7606,5.7606,5.7124,5.6585,5.6102,5.6222,5.6162,5.5568,5.6466,5.6885,5.6402,5.6795,5.7154,5.7274,5.7274,5.7274,5.7274,5.7786,5.8055,5.7935,5.8471,5.877,5.877,5.877,5.8471,5.7905,5.7905,5.7633,5.6765,5.7306,5.7983,5.8389,5.8761,5.8607,5.7137,0.0,5.6258,5.4397,5.3754,5.4194,5.6393,5.6206,5.6409,5.8641,5.9032,5.9268,6.0013,6.0791,6.1569,6.2333,6.2753,6.3125,6.3477,6.3849,6.4241,6.458,6.4135,6.3718,6.3288,6.1475,6.0122,5.9541,5.9061,5.8818,5.8818,5.8818,5.8818,5.8818,5.8818,5.9003,5.9316,5.9316,5.9501,5.9839,5.9839,5.9839,5.9839,5.9839,6.0024,6.0301,6.0301,6.0517,6.0794,6.0794,6.0794,6.0794,6.0794,6.0794,6.0675,5.9901,5.9661,5.9635,5.9506,5.9455,5.9429,5.93,5.9274,5.93,5.9429,5.9803,6.013,6.0001,6.022,6.0416,6.0126,6.0103,6.0217,6.0548,6.0202,5.9883,5.9825,5.915,5.8504,5.8145,5.7842,5.7393,5.6761,5.6671,5.6312,5.5299,5.5748,5.5987,5.5713,5.5927,5.6256,5.6611,5.6641,5.6765,5.7094,5.7423,5.7573,5.7573,5.8261,5.859,5.859,5.8949,5.8949,5.8623,5.8623,5.8471,5.624,5.7036,5.8103,5.8829,5.9115,5.881,5.7171,5.6934,5.6359,5.3991,5.3518,5.4194,5.6393,5.5936,5.5936,5.8168,5.8626,5.8896,5.9539,6.0655,6.1738,6.2516,6.3159,0.0,6.3917,6.4512,0.0,6.5053,6.4669,6.4021,6.3067,6.1495,6.0556,6.0345,5.9588,5.9249,5.9249,5.9249,5.9249,5.9249,5.9249,5.9526,5.9993,5.9993,6.0301,6.0794,6.0794,6.0794,6.0794,6.0794,6.0794,6.0794,6.0794,6.0794,6.0794,6.0794,6.0794,6.0794,6.0794,6.0794,6.0794,6.0794,6.0794,6.0768,6.056,6.0481,6.0481,6.0481,6.0604,6.0696,6.0696,6.1344,6.1946,6.168,6.197,6.2344,6.2496,6.2363,6.2287,6.2409,6.1825,6.1297,6.124,6.0385,5.9531,5.891,5.8581,5.8135,5.7393,5.7304,5.6885,5.5718,5.5598,5.5598,5.5598,5.5478,5.5653,5.6162,5.6072,5.6222,5.6675,5.6825,5.6885,5.6885,5.7573,5.7876,5.7876,5.856,5.889,5.889,5.9039,5.9099,5.734,5.7798,5.8103,5.8829,5.9505,5.9438,5.7306,0.0,5.6968,5.4093,5.3518,5.4194,5.6393,5.5108,5.4431,5.663,5.5378,5.504,5.7712,5.8238,5.9573,6.297,0.0,0.0,6.5358,6.5581,6.5865,6.6555,6.4916,6.3543,6.2788,6.2333,6.169,6.0789,6.0661,6.0609,6.0609,6.0609,6.0609,6.0609,6.0609,6.064,6.0701,6.0701,6.0732,6.0794,6.0794,6.0794,0.0,6.0794,6.0794,6.0794,6.0794,6.0794,6.0794,6.0794,6.0794,6.0794,6.0794,6.0794,6.0794,6.0794,6.0794,6.0794,6.0768,6.0768,6.0768,6.0768,6.1203,6.1664,6.1664,6.2183,6.2653,6.2384,6.2171,6.2193,6.2804,6.2928,6.311,6.3718,6.375,6.3692,6.3692,6.2602,6.1613,6.1248,6.0138,5.9038,5.8112,5.7995,5.7726,5.7004,5.6915,5.6915,5.6915,5.6432,5.6132,5.6192,5.5623,5.5299,5.5359,5.5953,5.6282,5.6282,5.6885,5.7184,5.7184,5.7846,5.8175,5.8205,5.883,5.9099,5.5344,5.6867,5.8727,5.9471,6.0588,6.0757,5.8084,5.8017,5.7611,5.4194,5.3518,5.3788,5.4668,5.4093,5.3788,5.4668,5.4837,5.5699,5.822,5.9742,6.1637,6.4478,6.5628,6.5865,6.5121,6.6237,6.6948,6.6791,6.4957,6.3667,6.3376,6.2112,6.12,6.082,6.0794,6.0794,6.0794,6.0794,6.0794,6.0794,6.0794,6.0794,6.0794,6.0794,6.0794,6.0794,6.0794,6.104,0.0,6.1409,6.1409,6.1409,6.1409,6.1163,6.0794,6.0794,6.0794,6.0794,6.0794,6.0794,6.0794,6.0794,6.0794,6.0794,6.0794,6.1071,6.1409,6.1409,6.1902,6.228,6.169,6.2062,6.2798,6.3708,6.381,6.3819,6.4095,6.4129,6.4218,6.4465,6.4356,6.4188,6.4049,6.3369,6.2509,6.1447,6.0821,6.0046,5.886,5.871,5.862,5.8321,5.7573,5.7094,5.7094,5.6881,5.6761,5.6761,5.6466,5.6346,5.6346,5.6585,5.6581,5.6222,5.6765,5.6915,5.6551,5.7184,5.7513,5.7513,5.7782,5.8112,5.4177,5.6224,5.8626,5.981,6.0757,6.0791,5.8441,5.7949,5.7153,5.4126,5.3518,5.3518,5.3518,5.3518,5.3518,5.3518,5.438,5.6037,5.8912,6.0723,6.2618,6.5074,6.6271,6.6305,6.4749,6.6406,6.7119,6.6009,6.4584,6.3538,6.294,6.1576,6.0794,6.0794,6.0794,6.0794,6.0794,6.0794,6.0794,6.0794,6.0794,6.0794,6.0794,6.0794,6.0917,6.1101,6.1101,6.1471,0.0,6.1902,6.1809,6.1779,6.1594,6.1348,6.1071,6.0886,6.0917,6.1071,6.0886,6.0917,6.1071,6.0855,6.1071,6.1348,6.1163,6.144,6.1809,6.1809,6.2456,6.2987,6.2553,6.2775,6.3442,6.4617,6.4888,6.4888,6.4888,6.4888,6.4888,6.4888,6.4691,6.4496,6.4303,6.3895,6.3099,6.1589,6.1258,6.0716,5.9384,5.9207,5.9207,5.9207,5.8314,5.7693,5.7693,5.7513,5.7393,5.7393,5.7214,5.7094,5.7094,5.7094,5.6885,5.6462,5.6885,5.6885,5.6462,5.7094,5.7304,5.7094,5.7304,5.7543,5.4853,5.6258,5.734,5.9539,5.9554,5.8863,5.8051,5.6799,5.5293,5.3822,5.3518,5.3518,5.3518,5.3518,5.3518,5.3518,5.3518,5.5074,5.9471,6.0114,6.1231,6.4241,6.4613,6.4613,6.4613,6.5933,6.5975,6.3984,6.382,6.2916,6.0949,6.082,6.0794,6.0794,6.0794,6.0794,6.0794,6.0794,6.0794,6.0794,6.0794,6.0794,6.0794,6.0794,6.1163,6.1809,6.1809,6.2152,0.0,6.2086,6.1809,6.1748,6.1071,6.1225,6.1717,6.104,6.1225,6.1686,6.104,6.1225,6.1686,6.1009,6.1717,6.2671,6.1994,6.1809,6.1809,6.1809,6.2737,6.3937,6.4672,6.4857,6.4888,6.4888,6.4888,6.4888,6.4888,6.4888,6.4888,6.4888,6.4888,6.4888,6.4888,6.4275,6.3377,6.2187,6.1652,6.0928,5.9673,5.9503,5.9503,5.9503,5.9261,5.9069,5.9069,5.8474,5.8085,5.8085,5.7483,5.7094,5.7094,5.7094,5.7094,5.7094,5.7094,5.7094,5.7094,5.7756,5.7752,5.7124,5.7782,5.7752,5.2385,5.4312,5.6206,5.6916,5.8032,5.854,5.6781,5.6427,5.5886,5.3923,5.3518,5.3518,5.3518,5.3518,5.3518,5.3518,5.3518,5.5243,6.0216,6.0926,6.2787,6.7827,6.7049,6.6542,6.7557,6.6237,6.5341,6.5482,6.4863,6.411,6.3227,6.2543,6.1748,6.0824,6.0794,6.1009,6.1471,6.104,6.1255,6.2179,6.1255,6.1286,6.2148,6.1686,6.1871,6.246,6.246,6.286,6.3475,6.3229,6.3168,6.3137,6.2922,6.2675,6.2398,6.1748,6.1933,6.2394,6.1717,6.1625,6.1779,6.1563,6.1471,6.1471,6.1748,6.2456,6.326,6.3779,6.3533,6.3383,6.458,6.4549,6.4275,6.4764,6.4888,6.4888,6.4888,6.4888,6.4888,6.4888,6.4487,6.4098,6.3933,6.3296,6.2459,6.1406,6.1133,6.0768,5.9944,5.9827,5.9747,5.9529,5.9422,5.9288,5.9126,5.8919,5.8773,5.8773,5.9009,5.9129,5.9129,5.9578,5.9398,5.8471,5.8471,5.8022,5.7094,5.7304,5.7304,5.7124,5.7786,5.7726,5.0787,5.2859,5.4884,5.5372,5.6588,5.7299,5.5915,5.551,5.5054,5.3771,5.3518,5.3518,5.3518,5.3518,5.3788,5.46,5.4296,5.575,6.0994,6.1197,6.2651,6.7489,6.7083,6.6981,6.8504,6.6865,6.5934,6.6574,6.5368,6.4352,6.3787,6.3141,6.2425,6.1594,6.1317,6.1255,6.144,6.1255,6.1594,6.2425,6.184,6.1994,6.2768,6.2394,6.2522,6.3168,6.3168,6.3568,0.0,6.3906,6.3814,6.3783,6.3506,6.3475,6.3533,6.2825,6.301,6.3502,6.2825,6.2552,6.2491,6.2271,6.2086,6.2086,6.2764,6.3168,6.3568,6.4275,6.3845,6.3383,6.4272,6.4364,6.4306,6.4795,6.4703,6.458,6.4826,6.4672,6.458,6.4857,6.4275,6.3759,6.3595,6.2989,6.2207,6.1237,6.1172,6.0982,6.0236,6.0144,6.0092,5.9876,5.9743,5.9556,5.9288,5.9153,5.9099,5.9099,5.9727,6.0114,6.0114,6.0745,6.0687,5.9877,5.9847,5.9308,5.8231,5.7723,5.7483,5.7483,5.7663,5.7513,0.0,5.1699,5.3313,5.4584,5.5058,5.5232,5.5232,5.4155,0.0,5.3433,5.3501,5.3518,5.3518,5.3619,5.4363,5.6325,5.5615,5.658,6.1554,6.124,6.1553,6.4356,6.5395,6.6399,6.7849,6.7723,6.7405,6.706,6.544,6.4022,6.3002,6.2922,6.2922,6.2922,6.2364,6.1717,6.1101,6.1656,6.2025,6.2179,6.2702,6.2983,6.3075,6.2983,6.3322,0.0,6.3937,6.4337,6.4918,6.4275,6.4029,6.3968,6.3322,6.3903,6.4949,6.4214,6.4426,6.4949,6.4183,6.3906,6.3752,6.3045,6.3229,6.3937,6.4611,6.3933,6.3014,6.3691,6.3845,6.3814,6.3875,6.4395,6.4888,6.4888,6.4395,6.406,6.4764,6.4364,6.406,6.4764,6.4272,6.3722,6.3722,6.3137,6.2349,6.1496,6.159,6.1397,6.0547,6.0429,6.0429,6.0403,6.0171,5.988,5.9556,5.9288,5.9156,5.9159,5.9787,6.0176,6.0236,6.0894,6.1196,6.1166,6.1106,6.0805,6.0174,5.889,5.8234,5.8234,5.7543,5.7244,4.75,0.0,5.1346,5.1681,5.2636,5.3509,0.0,5.3362,5.3213,5.3247,5.3382,5.3518,5.3518,5.4871,5.5818,5.5209,5.6242,5.7967,6.0317,6.3049,6.5082,6.5736,6.6785,6.7809,6.8667,6.8184,6.7451,6.6624,6.6159,6.5463,6.445,6.4395,6.4395,6.4395,6.4241,6.4087,6.3933,6.3506,6.4122,6.5688,6.4826,6.4949,6.5875,6.4888,6.4764,6.5411,6.5411,6.5503,6.5688,6.6029,6.6152,6.6152,6.5998,6.615,6.6365,6.5657,6.5842,6.6334,6.5657,6.5072,6.4457,6.3198,6.3229,6.3814,6.3998,6.3814,6.3722,6.4457,6.4214,6.3937,6.4518,6.4764,6.4888,6.4888,6.4764,6.4703,6.4857,6.4764,6.4703,6.4857,6.3903,6.3045,6.3045,6.2056,6.1199,6.0962,6.0988,6.0952,6.0747,6.069,6.0612,6.0429,6.0324,6.0197,5.9906,5.9583,5.9525,5.9845,6.0505,6.1104,6.1613,6.2271,6.2391,6.1882,6.1373,6.1044,6.0864,6.0027,5.9608,5.9608,5.8949,5.862,4.588,4.7935,5.0159,5.0426,5.136,5.2363,5.2697,5.2851,5.2938,5.3041,5.2938,5.2921,5.3297,5.4371,5.5763,5.7421,5.8084,5.9268,6.1806,6.451,6.6697,6.7903,6.8752,6.9631,7.0677,6.9668,6.8634,6.7904,6.6806,6.5922,6.5377,6.5072,6.4888,6.4888,6.5195,6.5226,6.4888,6.4826,6.5349,6.6457,6.6027,6.6211,6.6888,6.615,6.6027,6.6365,6.6365,6.6365,6.6396,6.6765,6.6891,6.6891,6.6891,6.7075,6.7291,6.6952,6.7045,6.7291,6.6921,6.618,6.5195,6.4118,6.4026,6.4275,6.4275,6.4275,6.4334,6.4395,6.4091,6.3875,6.4275,6.4641,6.4888,6.4888,6.4641,6.4487,6.4826,6.4641,6.4395,6.4395,6.3506,6.2675,6.2368,6.1502,6.0794,6.0794,6.0794,6.0794,6.0794,6.0794,6.0742,6.0586,6.0586,6.0455,6.0224,6.0008,5.9948,6.0045,6.0979,6.1674,6.2064,6.2856,6.3043,6.2569,6.1912,6.1553,6.1553,6.0894,6.0565,6.0535,5.9877,5.9548,4.4704,4.6713,4.9175,4.9925,5.0792,5.1612,5.2314,5.2437,5.2447,5.2502,5.2503,5.2717,5.3458,5.4418,5.6523,6.0796,6.0554,6.0902,6.3957,6.537,6.7046,6.9569,7.0082,7.0795,7.2157,7.0909,6.983,6.9391,6.7389,6.618,6.6057,6.5503,6.5257,6.5349,6.5903,6.5996,6.5503,6.5965,6.6273,6.6365,6.695,6.7227,6.7227,6.7104,6.7045,6.7045,0.0,0.0,6.7045,6.7165,6.7227,6.7227,6.7227,6.7537,6.8029,6.8029,6.8029,6.8029,6.7937,6.7075,6.5934,6.5288,6.498,6.4888,6.4888,6.4888,6.4764,6.4122,6.3968,6.3968,6.3968,6.4426,6.4888,6.4888,6.4426,6.4122,6.4764,6.4426,6.3968,6.3968,6.3414,6.2737,6.2086,6.1409,6.0917,6.0824,6.0794,6.0794,6.0794,6.0794,6.0794,6.0794,6.0794,6.069,6.0481,6.0455,6.0412,6.027,6.1376,6.208,6.2293,6.3133,6.3481,6.3252,6.2683,6.2355,6.2298,6.1639,6.1282,6.1253,6.0565,6.0176,4.3789,4.5401,4.7553,4.9324,5.0453,5.1315,5.1826,5.1752,5.1424,5.0906,5.2902,5.4892,5.5188,5.941,6.2735,6.2313,6.3091,6.364,6.3373,6.4754,6.6388,6.8045,6.8313,6.8644,6.942,6.9248,6.8858,6.8223,6.7806,6.7352,6.6796,6.6673,6.6829,6.7414,6.7537,6.7843,6.8274,6.7843,6.7873,6.8427,6.852,6.8581,6.8551,6.8027,6.7752,6.7752,0.0,6.7752,6.7783,6.8366,6.8581,6.8581,6.8581,6.8643,6.8735,6.8735,6.8735,6.8674,6.8091,6.7383,6.6642,6.5965,6.5349,6.4888,6.4888,6.4888,6.4888,6.4764,6.4734,6.4734,6.4734,6.4826,6.4888,6.4888,6.4826,6.4764,6.4888,6.4826,6.4734,6.4734,6.4122,6.3414,6.2737,6.2086,6.144,6.0886,6.0794,6.0794,6.0794,6.0794,6.0794,6.0794,6.0794,6.0768,6.0742,6.0742,6.0962,6.1493,6.1835,6.2505,6.3629,6.3843,6.3908,6.388,6.3759,6.3587,6.3272,6.261,6.2166,6.1942,6.1253,6.0655,4.2636,4.444,4.7142,4.9412,5.1216,5.2456,5.2486,5.4206,5.5033,5.2289,5.3937,5.6059,5.6586,5.8847,6.1492,6.4097,6.64,6.8104,6.8641,6.8704,6.9527,7.1836,7.1035,7.0391,7.0707,7.018,6.943,6.8517,6.8091,6.7752,6.7445,6.7075,6.7014,6.7352,6.7691,6.8029,6.8366,6.8427,6.8612,6.8919,6.8919,6.8919,6.8919,6.8581,6.8458,6.8458,6.8458,6.8458,6.8458,6.8766,6.8919,6.8919,6.8919,6.8919,6.8919,6.8919,6.8919,6.8797,6.8121,6.7691,6.7321,6.6645,6.5996,6.5442,6.5442,6.5195,6.4888,6.4888,6.4888,6.4888,6.4888,6.4888,6.4888,6.4888,6.4888,6.4888,6.4888,6.4888,6.4764,6.4395,6.4029,6.3598,6.2922,6.2522,6.224,6.1933,6.1563,6.1348,6.1348,6.1009,6.0794,6.0794,6.0794,6.0794,6.0794,6.0794,6.1255,6.2302,6.274,6.3376,6.4186,6.4216,6.4132,6.3993,6.3993,6.3936,6.3766,6.3462,6.3141,6.2829,6.2166,6.1631,4.2206,4.4316,4.7412,4.9472,5.1575,5.3218,5.3624,5.6515,5.8111,5.4515,5.5947,5.8049,5.8719,5.8987,6.0572,6.5134,6.8342,7.0842,7.2524,7.1875,7.213,7.462,7.2894,7.1506,7.1506,7.0711,6.981,6.8977,6.8427,6.8121,6.8121,6.7658,6.7381,6.7381,6.7873,6.8121,6.8121,6.8643,6.8919,6.8919,6.8919,6.8919,6.8919,6.8919,6.8919,6.8919,6.8919,6.8919,6.8919,6.8919,6.8919,6.8919,6.8919,6.8919,6.8919,6.8919,6.8919,6.8828,6.8304,6.8029,6.7814,6.7291,6.6552,6.5903,6.5903,6.5442,6.4888,6.4888,6.4888,6.4888,6.4888,6.4888,6.4888,6.4888,6.4888,6.4888,6.4888,6.4888,6.4734,6.4152,6.406,6.3845,6.3137,6.3014,6.2983,6.2798,6.2337,6.2056,6.2056,6.1594,6.1255,6.1255,6.1255,6.1255,6.1255,6.1409,6.1963,6.2952,6.366,6.4193,6.4493,6.4524,6.4412,6.4218,6.4218,6.419,6.4075,6.4075,6.3936,6.3594,6.2994,6.2551,4.3359,4.5615,4.8355,4.9179,5.0534,5.2315,5.4831,5.6575,5.7474,5.6851,5.9607,6.2233,6.2461,6.3515,6.4408,6.4525,6.6995,6.9301,7.0377,7.0922,7.1531,7.2429,7.0515,6.9151,6.9151,6.9063,6.9006,6.8919,6.8858,6.8828,6.8828,6.8766,6.8765,6.8765,6.8797,6.8828,6.8828,6.8888,6.8919,6.8919,6.8919,6.8919,6.8919,6.8919,6.8919,6.8919,6.8919,6.8919,6.8919,6.8919,6.8919,6.8919,6.8919,6.8919,6.8919,6.8919,6.8919,6.8889,6.8828,6.8427,6.7875,6.7844,6.6952,6.5903,6.5903,6.5442,6.4888,6.4888,6.4888,6.4888,6.4888,6.4888,6.4888,6.4888,6.4888,6.4888,6.4888,6.4888,6.4888,6.4826,6.4826,6.458,6.3845,6.3722,6.3506,6.2891,6.2737,6.2706,6.2706,6.2675,6.2671,6.2671,6.2671,6.2671,6.2671,6.3229,6.3629,6.3722,6.4426,6.4826,6.486,6.486,6.486,6.4832,6.4832,6.4694,6.4354,6.4354,6.4244,6.3965,6.3592,6.3088,4.328,4.5878,4.8968,5.0677,5.2259,5.3945,5.5786,5.9113,6.1297,5.9633,6.1405,6.3314,6.3584,6.5759,6.7747,6.8569,6.8438,6.9264,7.2186,7.1572,7.1191,7.2175,7.0933,6.9953,6.9953,6.9325,6.8919,6.8919,6.8919,6.8919,6.8919,6.8919,6.8919,6.8919,6.8919,6.8919,6.8919,6.8919,6.8919,6.8919,6.8919,6.8919,6.8919,6.8919,6.8919,6.8919,6.8919,6.8919,6.8919,6.8919,6.8919,6.8919,6.8919,6.8919,6.8919,6.8919,6.8919,6.8919,6.8919,6.8458,6.7906,6.7906,6.6983,6.5903,6.5903,6.5442,6.4888,6.4888,6.4888,6.4888,6.4888,6.4888,6.4888,6.4888,6.4888,6.4888,6.4888,6.4888,6.4888,6.4888,6.4888,6.4826,6.4549,6.4487,6.4395,6.4149,6.3718,6.3414,6.3414,6.3045,6.2798,6.2798,6.2798,6.2798,6.2798,6.3414,6.3814,6.3814,6.4487,6.4888,6.4888,6.4888,6.4888,6.4888,6.4888,6.4832,6.4691,6.4691,6.4552,6.4244,6.3934,6.3558,4.3938,4.6765,5.0005,5.172,5.3869,5.6053,5.7917,6.0535,6.242,6.1863,6.3644,6.5245,6.4962,6.6475,6.8281,6.9859,6.8827,6.9001,7.2457,7.1753,7.1195,7.1995,7.1245,7.0697,7.0697,6.9974,6.9536,6.9536,6.9536,6.9536,6.9536,6.932,6.9289,6.9505,6.932,6.9227,6.9227,6.9227,6.9105,6.8919,6.8919,6.8919,6.8919,6.8919,6.8919,6.8919,6.8919,6.8919,6.8919,6.8919,6.8919,6.8919,6.8919,6.8919,6.8919,6.8919,6.8919,6.8919,6.8919,6.8612,6.8243,6.8243,6.7473,6.6521,6.6521,6.5934,6.5226,6.5226,6.5072,6.4888,6.4888,6.4888,6.4888,6.4888,6.4888,6.4888,6.4888,6.4888,6.4888,6.4888,6.4888,6.4888,6.4888,6.4888,6.4888,6.4888,6.4487,6.4152,6.4152,6.3749,6.3445,6.3445,6.3445,6.3445,6.3445,6.3875,6.4152,6.4152,6.4641,6.4888,6.4888,6.4888,6.4888,6.4888,6.4888,6.4888,6.4888,6.4888,6.4777,6.4552,6.4272,6.3991,4.5715,4.8566,5.1602,5.1979,5.4837,5.8389,6.1402,6.0289,5.9641,6.3227,6.672,6.8615,6.6901,6.57,6.5541,6.7359,6.7641,6.831,7.0315,7.1171,7.1585,7.1585,7.1172,7.089,7.089,7.089,7.089,7.089,7.089,7.089,7.089,7.0274,7.0213,7.089,7.0244,6.9905,6.9905,6.9905,6.9566,6.8889,6.8919,6.8919,6.8919,6.8919,6.8919,6.8919,6.8919,6.8919,6.8919,6.8919,6.8919,6.8919,6.8919,6.8919,6.8919,6.8919,6.8919,6.8919,6.8919,6.8919,6.8919,6.8919,6.8458,6.7875,6.7875,6.6952,6.5903,6.5903,6.5411,6.4918,6.4888,6.4888,6.4888,6.4888,6.4888,6.4888,6.4888,6.4888,6.4888,6.4888,6.4888,6.4888,6.4888,6.4888,6.4888,6.4888,6.4888,6.4888,6.4888,6.4888,6.4888,6.4888,6.4888,6.4888,6.4888,6.4888,6.4888,6.4888,6.4888,6.4888,6.4888,6.4888,6.4888,6.4888,6.4888,6.4888,6.4888,6.4888,6.4888,6.4888,6.4552,6.4382,4.8925,5.1746,5.428,5.5604,5.741,5.923,6.0573,6.0717,6.0784,6.1596,6.6499,6.9566,6.6035,6.737,6.9143,6.9618,6.8811,6.8819,7.1013,7.118,7.1089,7.1089,7.0977,7.089,7.089,7.089,7.089,7.089,7.089,7.089,7.089,7.0705,7.0705,7.089,7.0705,7.0613,7.0613,7.012,6.9782,6.9597,6.9105,6.8919,6.8919,6.8919,6.8919,6.8919,6.8919,6.8919,6.8919,6.8919,6.8919,6.8919,6.8919,6.8919,6.8919,6.8919,6.8919,6.8919,6.8919,6.8581,6.8212,6.8212,6.7721,6.7198,6.7198,6.6921,6.6519,6.6027,6.578,6.5503,6.5011,6.4888,6.4888,6.4888,6.4888,6.4888,6.4888,6.4888,6.4888,6.4888,6.4888,6.4888,6.4888,6.4888,6.4888,6.4888,6.4888,6.4888,6.4888,6.4888,6.4888,6.4888,6.4888,6.4888,6.4888,6.4888,6.4888,6.4888,6.4888,6.4888,6.4888,6.4888,6.4888,6.4888,6.4888,6.4888,6.4888,6.4888,6.4888,6.4888,6.4552,6.4382,5.008,5.2933,5.5999,5.7988,5.9544,6.0796,6.1576,6.2555,6.3115,6.2523,6.715,7.0428,6.7672,6.8916,7.053,7.0933,7.0061,6.9784,7.1118,7.134,7.1321,7.1321,7.1567,7.1721,7.1721,7.1721,7.1721,7.1721,7.1721,7.1721,7.1721,7.1475,7.1444,7.1721,7.1475,7.1321,7.1321,7.0921,7.0582,7.0274,6.9597,6.9289,6.9289,6.9012,6.8919,6.8919,6.8919,6.8919,6.8919,6.8919,6.8919,6.8919,6.8919,6.8919,6.8919,6.8919,6.8919,6.8919,6.8919,6.8643,6.8304,6.8304,6.8027,6.7689,6.7689,6.7535,6.7198,6.6798,6.6519,6.615,6.5472,6.5288,6.5226,6.4949,6.4888,6.4888,6.4888,6.4888,6.4888,6.4888,6.4888,6.4888,6.4888,6.4888,6.4888,6.4888,6.4888,6.4888,6.4888,6.4888,6.4888,6.4888,6.4888,6.4888,6.4888,6.4888,6.4888,6.4888,6.4888,6.4888,6.4888,6.4888,6.4888,6.4888,6.4888,6.4888,6.4888,6.4888,6.4888,6.4888,6.4691,6.4607,5.0018,5.3024,5.6916,5.9399,6.1383,6.2959,6.3988,6.5388,6.6085,6.4952,6.8157,7.0974,7.037,7.0137,7.0377,7.1366,7.1234,7.1013,7.1013,7.1659,7.209,7.209,7.2645,7.3014,7.3014,7.3014,7.3014,7.3014,7.3014,7.3014,7.3014,7.2429,7.2368,7.2983,7.2429,7.209,7.209,7.2029,7.166,7.0982,7.0305,6.9967,6.9874,6.9227,6.8919,6.8919,6.8919,6.8919,6.8919,6.8919,6.8919,6.8919,6.8919,6.8919,6.8919,6.8919,6.8919,6.8919,6.8919,6.8919,6.8919,6.8919,6.8919,6.8919,6.8919,6.8458,6.7968,6.7906,6.7445,6.6858,6.618,6.5965,6.578,6.5226,6.498,6.4888,6.4888,6.4888,6.4888,6.4888,6.4888,6.4888,6.4888,6.4888,6.4888,6.4888,6.4888,6.4888,6.4888,6.4888,6.4888,6.4888,6.4888,6.4888,6.4888,6.4888,6.4888,6.4888,6.4888,6.4888,6.4888,6.4888,6.4888,6.4888,6.4888,6.4888,6.4888,6.4888,6.4888,6.4888,6.4888,6.4888,5.2399,5.4891,5.7253,6.0915,6.35,6.5547,6.7132,6.8193,6.7782,6.4015,6.7222,7.0094,6.807,6.9628,7.1171,7.1059,7.1441,7.1782,7.1782,7.2368,7.2799,7.2799,7.2922,7.3014,7.3014,7.3014,7.3014,7.3014,7.3014,7.3014,7.3014,7.286,7.286,7.3014,7.286,7.2799,7.2799,7.2275,7.1936,7.1752,7.1013,7.0398,6.9874,6.9227,6.8919,6.8919,6.8919,6.8919,6.8919,6.8919,6.8919,6.8919,6.8919,6.8919,6.8919,6.8919,6.8919,6.8919,6.8919,6.8919,6.8919,6.8919,6.8919,6.8919,6.8919,6.8797,6.8581,6.8029,6.7783,6.7506,6.686,6.6304,6.5996,6.6396,6.5657,6.4888,6.4888,6.4888,6.4888,6.4888,6.4888,6.4888,6.4888,6.4888,6.4888,6.4888,6.4888,6.4888,6.4888,6.4888,6.4888,6.4888,6.4888,6.4888,6.4888,6.4888,6.4888,6.4888,6.4888,6.4888,6.4888,6.4888,6.4888,6.4888,6.4888,6.4888,6.4888,6.4888,6.4888,6.4888,6.4888,6.4888,5.3181,5.5577,5.8034,6.2089,6.5125,6.7291,6.7665,6.8952,6.9252,6.631,6.8592,7.052,6.8691,7.0221,7.1701,7.1473,7.2029,7.2491,7.2491,7.2799,7.3014,7.3014,7.3014,7.3014,7.3014,7.3014,7.3014,7.3014,7.3014,7.3014,7.3014,7.3014,7.3014,7.3014,7.3014,7.3014,7.3014,7.2676,7.2491,7.2491,7.1752,7.1044,7.0336,6.9351,6.8919,6.8919,6.8919,6.8919,6.8919,6.8919,6.8919,6.8919,6.8919,6.8919,6.8919,6.8919,6.8919,6.8919,6.8919,6.8919,6.8919,6.8919,6.8919,6.8919,6.8919,6.8919,6.8828,6.8489,6.8397,6.8243,6.7537,6.7106,6.6768,6.6488,6.5657,6.498,6.5319,6.5134,6.4888,6.4888,6.4888,6.4888,6.4888,6.4888,6.4888,6.4888,6.4888,6.4888,6.4888,6.4888,6.4888,6.4888,6.4888,6.4888,6.4888,6.4888,6.4888,6.4888,6.4888,6.4888,6.4888,6.4888,6.4888,6.4888,6.4888,6.4888,6.4888,6.4888,6.4888,6.4888,6.4888,6.4888,5.2365,5.5506,5.9145,6.3251,6.6289,6.8112,6.7339,6.8817,7.0038,6.9093,7.017,7.1046,7.0207,7.1136,7.206,7.2152,7.2645,7.3014,7.3014,7.3014,7.3014,7.3014,7.3014,7.3014,7.3014,7.3014,7.3014,7.3014,7.3014,7.3014,7.3014,7.3014,7.3014,7.3014,7.3014,7.3014,7.3014,7.3014,7.3014,7.3014,7.2337,7.169,7.1044,6.9813,6.9166,6.9073,6.8951,6.8919,6.8919,6.8919,6.8919,6.8919,6.8919,6.8919,6.8919,6.8919,6.8919,6.8919,6.8919,6.8919,6.8919,6.8919,6.8919,6.8919,6.8919,6.8919,6.8919,6.8919,6.8919,6.8766,6.8243,6.7968,6.7629,6.6673,6.5811,6.538,6.5811,6.5472,6.5072,6.5072,6.5072,6.5042,6.4918,6.5011,6.5042,6.4918,6.4888,6.4888,6.4888,6.4888,6.4888,6.4888,6.4888,6.4888,6.4888,6.4888,6.4888,6.4888,6.4888,6.4888,6.4888,6.4888,6.4888,6.4888,6.4888,6.4888,6.4888,6.4888,6.4888,6.4888,6.4888,6.4888,4.9005,5.462,6.0588,6.5036,6.664,6.7311,6.8084,6.8732,6.9063,6.8948,6.956,7.0267,7.0705,7.1413,7.2183,7.2799,7.2953,7.3014,7.3014,7.3014,7.3014,7.3014,7.3014,7.3014,7.3014,7.3014,7.3014,7.3014,7.3014,7.3014,7.3014,7.3014,7.3014,7.3014,7.3014,7.3014,7.3014,7.3014,7.3014,7.3014,7.2337,7.1967,7.1844,7.1013,7.0305,6.972,6.9135,6.8919,6.8919,6.8919,6.8919,6.8919,6.8919,6.8919,6.8919,6.8919,6.8919,6.8919,6.8919,6.8919,6.8919,6.8919,6.8919,6.8919,6.8919,6.8919,6.8919,6.8919,6.8919,6.8858,6.8766,6.8335,6.7998,6.8397,6.7535,6.6519,6.6027,6.5842,6.578,6.578,6.578,6.5596,6.5011,6.538,6.5565,6.498,6.4888,6.4888,6.4888,6.4888,6.4888,6.4888,6.4888,6.4888,6.4888,6.4888,6.4888,6.4888,6.4888,6.4888,6.4888,6.4888,6.4888,6.4888,6.4888,6.4888,6.4888,6.4888,6.4888,6.4888,6.4888,6.4888,4.9574,5.5465,6.1052,6.3843,6.5721,6.7126,6.7977,6.8279,6.8458,6.8797,6.972,7.0551,7.0859,7.1813,7.2676,7.2953,7.3014,7.3014,7.3014,7.3014,7.3014,7.3014,7.3014,7.3014,7.3014,7.3014,7.3014,7.3014,7.3014,7.3014,7.3014,7.3014,7.3014,7.3014,7.3014,7.3014,7.3014,7.3014,7.3014,7.3014,7.2706,7.2583,7.2552,7.1844,7.1136,7.0428,7.0151,6.9813,6.9443,6.9443,6.9228,6.8919,6.8919,6.8919,6.8919,6.8919,6.8919,6.8919,6.8919,6.8919,6.8919,6.8919,6.8919,6.8919,6.8919,6.8919,6.8919,6.8919,6.8919,6.8919,6.8919,6.8674,6.8458,6.8366,6.8181,6.7843,6.7165,6.6735,6.6457,6.6457,6.6457,6.6273,6.5596,6.6027,6.6119,6.5072,6.5226,6.5319,6.4949,6.4888,6.4888,6.4888,6.4888,6.4888,6.4888,6.4888,6.4888,6.4888,6.4888,6.4888,6.4888,6.4888,6.4888,6.4888,6.4888,6.4888,6.4888,6.4888,6.4888,6.4888,6.4888,6.5103,5.033,5.5083,5.9375,6.2025,6.4421,6.646,6.7844,6.8152,6.8366,6.9012,6.9936,7.0705,7.0859,7.2029,7.3014,7.3014,7.3014,7.3014,7.3014,7.3014,7.3014,7.3014,7.3014,7.3014,7.3014,7.3014,7.3014,7.3014,7.3014,7.3014,7.3014,7.3014,7.3014,7.3014,7.3014,7.3014,7.3014,7.3014,7.3014,7.3014,7.3014,7.3014,7.2952,7.2491,7.1937,7.1413,7.1075,7.0613,7.0151,7.0151,6.9751,6.9135,6.9135,6.9043,6.8919,6.8919,6.8919,6.8919,6.8919,6.8919,6.8919,6.8919,6.8919,6.8919,6.8919,6.8919,6.8919,6.8919,6.8919,6.8919,6.8919,6.8919,6.8766,6.8274,6.8551,6.8705,6.8029,6.7506,6.7075,6.6921,6.7014,6.6921,6.6273,6.6706,6.6704,6.5349,6.5596,6.5657,6.498,6.4888,6.4888,6.4888,6.4888,6.4888,6.4888,6.4888,6.4888,6.4888,6.4888,6.4888,6.4888,6.4888,6.4888,6.4888,6.4888,6.4888,6.4888,6.4888,6.4888,6.4888,6.5072,6.5411,4.9807,5.192,5.4514,6.0414,6.2914,6.4798,6.8089,6.8857,6.9012,6.969,6.9905,7.0151,7.0798,7.2029,7.3014,7.3014,7.3014,7.3014,7.3014,7.3014,7.3014,7.3014,7.3014,7.3014,7.3014,7.3014,7.3014,7.3014,7.3014,7.3014,7.3014,7.3014,7.3014,7.3014,7.3014,7.3014,7.3014,7.3014,7.3014,7.3014,7.3014,7.3014,7.3014,7.2983,7.2953,7.2829,7.1475,7.089,7.0859,7.0859,7.0459,6.9843,6.9843,6.9443,6.8919,6.8919,6.8919,6.8919,6.8919,6.8919,6.8919,6.8919,6.8919,6.8919,6.8919,6.8919,6.8919,6.8919,6.8919,6.8919,6.8919,6.8919,6.8919,6.8858,6.8858,6.8705,6.8029,6.7875,6.766,6.7014,6.7414,6.7629,6.6952,6.7383,6.7383,6.6057,6.5873,6.5657,6.498,6.4888,6.4888,6.4888,6.4888,6.4888,6.4888,6.4888,6.4888,6.4888,6.4888,6.4888,6.4888,6.4888,6.4888,6.4888,6.4888,6.4888,6.4888,6.4888,6.4888,6.4918,6.5565,6.5873,4.7622,5.0092,5.2925,5.649,5.8999,6.1132,6.3225,6.5072,6.6396,6.6642,6.8735,7.049,7.0274,7.1413,7.2522,7.2953,7.3014,7.3014,7.3014,7.3014,7.3014,7.3014,7.3014,7.3014,7.3014,7.3014,7.3014,7.3014,7.3014,7.3014,7.3014,7.3014,7.3014,7.3014,7.3014,7.3014,7.3014,7.3014,7.3014,7.3014,7.3014,7.3014,7.3014,7.3014,7.3014,7.2952,7.246,7.1998,7.1629,7.1629,7.1167,7.0551,7.0551,7.012,6.9536,6.9536,6.9259,6.8919,6.8919,6.8919,6.8919,6.8919,6.8919,6.8919,6.8919,6.8919,6.8919,6.8919,6.8919,6.8919,6.8919,6.8919,6.8919,6.8919,6.8919,6.8828,6.8581,6.8551,6.8458,6.8212,6.8366,6.8335,6.766,6.812,6.7935,6.618,6.6273,6.615,6.5042,6.4888,6.4888,6.4888,6.4888,6.4888,6.4888,6.4888,6.4888,6.4888,6.4888,6.4888,6.4888,6.4888,6.4888,6.4888,6.4888,6.4888,6.4888,6.4888,6.4888,6.4918,6.5596,6.5903,4.6066,4.8311,5.0981,5.3814,5.6139,5.8362,6.0609,6.3102,6.5042,6.5472,6.8243,7.049,7.0274,7.0982,7.1875,7.2552,7.2676,7.2737,7.2983,7.3014,7.3014,7.3014,7.3014,7.3014,7.3014,7.3014,7.3014,7.3014,7.3014,7.3014,7.3014,7.3014,7.3014,7.3014,7.3014,7.3014,7.3014,7.3014,7.3014,7.3014,7.3014,7.3014,7.3014,7.3014,7.3014,7.3014,7.3014,7.2768,7.2337,7.2337,7.1936,7.1259,7.1259,7.0828,7.0244,7.0244,6.9813,6.9228,6.9228,6.9074,6.8919,6.8919,6.8919,6.8919,6.8919,6.8919,6.8919,6.8919,6.8919,6.8919,6.8919,6.8919,6.8919,6.8919,6.8919,6.8919,6.8919,6.8919,6.8919,6.8919,6.8919,6.8735,6.8304,6.8612,6.8274,6.6519,6.6611,6.6427,6.5072,6.4888,6.4888,6.4888,6.4888,6.4888,6.4888,6.4888,6.4888,6.4888,6.4888,6.4888,6.4888,6.4888,6.4888,6.4888,6.4888,6.4888,6.4888,6.4888,6.4888,6.4918,6.5596,6.6027,0.0,0.0,0.0,5.2522,5.4553,5.6614,6.0645,6.3195,6.5103,6.6519,6.8427,7.0028,7.0736,7.089,7.1136,7.1844,7.1967,7.2214,7.2891,7.2952,7.2983,7.3014,7.3014,7.3014,7.3014,7.3014,7.3014,7.3014,7.3014,7.3014,7.3014,7.3014,7.3014,7.3014,7.3014,7.3014,7.3014,7.3014,7.3014,7.3014,7.3014,7.3014,7.3014,7.3014,7.3014,7.3014,7.3014,7.3014,7.3014,7.3014,7.2614,7.2029,7.2029,7.1567,7.0921,7.0921,7.0521,6.9936,6.9936,6.9474,6.8949,6.8949,6.8919,6.8919,6.8919,6.8919,6.8919,6.8919,6.8919,6.8919,6.8919,6.8919,6.8919,6.8919,6.8919,6.8919,6.8919,6.8919,6.8919,6.8919,6.8919,6.8919,6.8919,6.8858,6.8427,6.7135,6.6891,6.6396,6.5103,6.4918,6.4888,6.4888,6.4888,6.4888,6.4888,6.4888,6.4888,6.4888,6.4888,6.4888,6.4888,6.4888,6.4888,6.4888,6.4888,6.4888,6.4888,6.4888,6.4888,6.4918,6.5565,6.6242,4.4837,0.0,0.0,0.0,0.0,0.0,5.5968,5.827,6.0696,6.3968,6.6275,6.8243,6.9874,7.0582,7.0982,7.1167,7.1198,7.1444,7.2183,7.2275,7.246,7.2953,7.3014,7.3014,7.3014,7.3014,7.3014,0.0,7.3014,7.3014,7.3014,7.3014,7.3014,7.3014,7.3014,7.3014,7.3014,7.3014,7.3014,7.3014,7.3014,7.3014,7.3014,7.3014,7.3014,7.3014,7.3014,7.3014,7.3014,7.3014,7.2891,7.2737,7.2737,7.2306,7.1721,7.1721,7.1229,7.0613,7.0613,7.0182,6.9628,6.9628,6.9289,6.8919,6.8919,6.8919,6.8919,6.8919,6.8919,6.8919,6.8919,6.8919,6.8919,6.8919,6.8919,6.8919,6.8919,6.8919,6.8919,6.8919,6.8919,6.8919,6.8919,6.8489,6.8029,6.766,6.6798,6.6057,6.5688,6.5195,6.4888,6.4888,6.4888,6.4888,6.4888,6.4888,6.4888,6.4888,6.4888,6.4888,6.4888,6.4888,6.4888,6.4888,6.4888,6.4888,6.4888,6.4888,6.4888,6.4888,6.5103,6.5811,0.0,0.0,4.6757,4.7434,0.0,0.0,5.2953,5.5253,5.8054,6.2122,6.3906,6.5503,6.7812,6.7843,6.7812,6.8674,6.8828,6.9443,7.1259,7.1536,7.169,7.206,7.2398,7.2583,7.2583,7.286,7.3014,7.3014,7.3014,7.3014,7.3014,7.3014,7.3014,7.3014,7.3014,7.3014,7.3014,7.3014,7.3014,7.3014,7.3014,7.3014,7.3014,7.3014,7.3014,7.3014,7.3014,7.3014,7.3014,7.3014,7.3014,7.3014,7.3014,7.2768,7.2429,7.2429,7.1967,7.1352,7.1352,7.089,7.0274,6.9997,6.9628,6.9259,6.8982,6.8919,6.8919,6.8919,6.8919,6.8919,6.8919,6.8919,6.8919,6.8919,6.8919,6.8919,6.8919,6.8919,6.8919,6.8919,6.8674,6.8581,6.8828,6.8335,6.7814,6.7506,6.6827,6.6119,6.5565,6.5134,6.4888,6.4888,6.4888,6.4888,6.4888,6.4888,6.4888,6.4888,6.4888,6.4888,6.4888,6.4888,6.4888,6.4888,6.4888,6.4888,6.4888,6.4888,6.4888,6.4918,6.5195,6.5903,0.0,0.0,0.0,0.0,0.0,0.0,5.1498,5.3529,5.633,6.0609,6.1348,6.2117,6.4949,6.3995,6.3383,6.5165,6.5719,6.6981,7.012,7.049,7.049,7.0551,7.1136,7.1629,7.1875,7.2491,7.2891,7.2891,7.2983,7.3014,7.3014,7.3014,7.3014,7.3014,7.3014,7.3014,7.3014,7.3014,7.3014,7.3014,7.3014,7.3014,7.3014,7.3014,7.3014,7.3014,7.3014,7.3014,7.3014,7.3014,7.3014,7.3014,7.3014,7.3014,7.3014,7.3014,7.2645,7.2121,7.2121,7.1629,7.0921,7.0336,7.0028,6.9782,6.9166,6.8951,6.8919,6.8919,6.8919,6.8919,6.8919,6.8919,6.8919,6.8919,6.8919,6.8919,6.8919,6.8919,6.8919,6.8919,6.8427,6.8212,6.8797,6.8335,6.7721,6.7227,6.7012,6.6488,6.5288,6.5072,6.498,6.4918,6.4888,6.4888,6.4888,6.4888,6.4888,6.4888,6.4888,6.4888,6.4888,6.4888,6.4888,6.4888,6.4888,6.4888,6.4888,6.4888,6.4888,6.4918,6.5503,6.6211,0.0,0.0,0.0,0.0,0.0,0.0,5.2082,5.2082,5.3129,5.83,5.8541,5.8756,6.1994,6.2733,6.2764,6.2641,6.4457,6.6519,6.8244,6.7998,6.7875,6.8398,6.8583,6.9351,7.0952,7.1782,7.2214,7.2214,7.2706,7.3014,7.3014,7.3014,7.3014,7.3014,7.3014,7.3014,7.3014,7.3014,7.3014,7.3014,7.3014,7.3014,7.3014,7.3014,7.3014,7.3014,7.3014,7.3014,7.3014,7.3014,7.3014,7.3014,7.3014,7.3014,7.3014,7.3014,7.2922,7.2799,7.2799,7.2368,7.1782,7.1629,7.0798,6.9874,6.9751,6.932,6.8919,6.8919,6.8919,6.8919,6.8919,6.8919,6.8919,6.8919,6.8919,6.8919,6.8919,6.8919,6.8919,6.8919,6.8797,6.8735,6.8888,6.8335,6.8029,6.8458,6.7596,6.6827,6.655,6.6057,6.5503,6.4949,6.4888,6.4888,6.4888,6.4888,6.4888,6.4888,6.4888,6.4888,6.4888,6.4888,6.4888,6.4888,6.4888,6.4888,6.4888,6.4888,6.4888,6.4888,6.5042,6.575,0.0,0.0,0.0,4.7527,0.0,0.0,0.0,5.0667,5.1436,5.5838,5.5161,5.4784,5.8146,5.8208,5.8208,5.9562,6.0948,6.221,6.3225,6.6273,6.852,6.8858,6.9197,6.9659,7.0336,7.1044,7.1598,7.1967,7.2306,7.2676,7.2952,7.3014,7.3014,7.3014,7.3014,7.3014,7.3014,7.3014,7.3014,7.3014,7.3014,7.3014,7.3014,7.3014,7.3014,7.3014,7.3014,7.3014,7.3014,7.3014,7.3014,7.3014,7.3014,7.3014,7.3014,7.3014,7.3199,7.3445,7.3137,7.3014,7.2829,7.1783,7.0952,7.0274,6.9597,6.9196,6.8919,6.8919,6.8919,6.8919,6.8919,6.8919,6.8919,6.8919,6.8919,6.8919,6.8919,6.8919,6.8797,6.8458,6.8397,6.8397,6.8397,6.8121,6.7906,6.7904,6.735,6.6891,6.6891,6.6334,6.578,6.5442,6.5411,6.5257,6.4918,6.4888,6.4888,6.4888,6.4888,6.4888,6.4888,6.4888,6.4888,6.4888,6.4888,6.4888,6.4888,6.4888,6.4888,6.4888,6.4888,6.5626,0.0,0.0,0.0,0.0,0.0,4.8758,0.0,0.0,0.0,0.0,5.2021,0.0,0.0,5.3406,5.3098,5.5461,0.0,0.0,0.0,6.3779,0.0,6.7596,6.815,6.8674,6.892,7.0244,7.129,7.1752,7.2183,7.2522,7.2799,7.2953,7.3014,7.3014,7.3014,7.3014,7.3014,7.3014,7.3014,7.3014,7.3014,7.3014,7.3014,7.3014,7.3014,7.3014,7.3014,7.3014,7.3014,7.3014,7.3014,7.3014,7.3014,7.3014,7.3045,7.3137,7.3537,7.3907,7.3229,7.3414,7.366,7.1721,7.1013,7.0675,6.9443,6.8982,6.8919,6.8919,6.8919,6.8919,6.8919,6.8919,6.8919,6.8919,6.8919,6.8919,6.8919,6.8919,6.8735,6.8212,6.8091,6.8029,6.7906,6.7906,6.7721,6.7168,6.7075,6.7045,6.6919,6.6427,6.6057,6.5903,6.5903,6.5626,6.4949,6.4888,6.4888,6.4888,6.4888,6.4888,6.4888,6.4888,6.4888,6.4888,6.4888,6.4888,6.4888,6.4888,6.4888,6.4888,6.4888,6.5565,0.0,0.0,0.0,0.0,4.9035,0.0,0.0,0.0,0.0,0.0,0.0,0.0,0.0,0.0,0.0,0.0,0.0,0.0,0.0,0.0,0.0,0.0,5.9773,6.1563,6.5103,6.935,7.1629,7.1075,7.2737,7.326,7.2183,7.2676,7.3014,7.3014,7.3014,7.3014,7.3014,7.3014,7.3014,7.3014,7.3014,7.3014,7.3014,7.3014,7.3014,7.3014,7.3014,7.3014,7.3014,7.3014,7.3014,7.3014,7.3014,7.3014,7.3045,7.366,7.3937,7.3907,7.3229,7.3414,7.3753,7.2337,7.1413,7.0767,6.9997,6.9351,6.8919,6.8919,6.8919,6.8919,6.8919,6.8919,6.8919,6.8919,6.8919,6.8919,6.8919,6.8919,6.8888,6.8797,6.8766,6.8612,6.7998,6.7906,6.7875,6.7783,6.7783,6.7568,6.6952,6.6829,6.6581,6.5965,6.5903,6.5626,6.4949,6.4888,6.4888,6.4888,6.4888,6.4888,6.4888,6.4888,6.4888,6.4888,6.4888,6.4888,6.4888,6.4888,6.4888,6.4888,6.4888,6.5288,0.0,0.0,0.0,0.0,0.0,0.0,4.982,0.0,4.9189,0.0,0.0,0.0,0.0,0.0,0.0,0.0,0.0,0.0,0.0,0.0,0.0,0.0,0.0,0.0,6.4611,6.5626,6.6765,6.8458,6.9413,6.9967,7.0212,7.1629,7.2614,7.3014,7.3014,7.3014,7.3014,7.3014,7.3014,7.3014,7.3014,7.3014,7.3014,7.3014,7.3014,7.3014,7.3014,7.3014,7.3014,7.3014,7.3014,7.3014,7.3014,7.3014,7.3107,7.3753,7.3999,7.3968,7.366,7.3753,7.3691,7.1937,7.0613,6.969,6.9382,6.9105,6.8919,6.8919,6.8919,6.8919,6.8919,6.8919,6.8919,6.8919,6.8919,6.8919,6.8919,6.8919,6.8766,6.8397,6.8335,6.8243,6.7937,6.7906,6.7752,6.7383,6.6983,6.6796,6.6891,6.6581,6.6211,6.5934,6.5903,6.5626,6.4949,6.4888,6.4888,6.4888,6.4888,6.4888,6.4888,6.4888,6.4888,6.4888,6.4888,6.4888,6.4888,6.4888,6.4888,6.4888,6.4888,6.5257,5.9555,0.0,0.0,0.0,0.0,0.0,0.0,0.0,0.0,0.0,0.0,0.0,0.0,0.0,0.0,0.0,0.0,0.0,0.0,0.0,0.0,0.0,0.0,0.0,0.0,6.261,6.3225,6.5321,0.0,6.7135,6.8274,7.015,7.1629,7.2706,7.2922,7.3014,7.3014,7.3014,7.3014,7.3014,7.3014,7.3014,7.3014,7.3014,7.3014,7.3014,7.3014,7.3014,7.3014,7.3014,7.3014,7.3014,7.3014,7.3014,7.3107,7.3753,7.3999,7.3968,7.3783,7.3599,7.3199,7.169,7.0398,6.9413,6.9228,6.9043,6.8919,6.8919,6.8919,6.8919,6.8919,6.8919,6.8919,6.8919,6.8919,6.8919,6.8919,6.8919,6.8735,6.8274,6.8181,6.8181,6.8181,6.7998,6.7721,6.7229,6.6737,6.6581,6.686,6.6642,6.6396,6.6211,6.618,6.5996,6.5503,6.5288,6.5165,6.5165,6.5011,6.4888,6.4888,6.4888,6.4888,6.4888,6.4888,6.4888,6.4888,6.4888,6.4888,6.4888,6.4888,6.5165,0.0,0.0,0.0,5.9241,0.0,0.0,0.0,0.0,4.9703,0.0,0.0,0.0,0.0,0.0,0.0,0.0,0.0,0.0,0.0,0.0,0.0,0.0,0.0,0.0,0.0,0.0,0.0,0.0,0.0,0.0,6.695,6.8243,6.9935,7.1967,7.2676,7.3014,7.3014,7.3014,7.3014,7.3014,7.3014,7.3014,7.3014,7.3014,7.3014,7.3014,7.3014,7.3014,7.3014,7.3014,7.3014,7.3014,7.3014,7.3014,7.3107,7.3753,7.3999,7.3907,7.326,7.2614,7.206,7.1998,7.1444,7.0705,7.0059,6.9413,6.8919,6.8919,6.8919,6.8919,6.8919,6.8919,6.8919,6.8919,6.8919,6.8919,6.8919,6.8919,6.8889,6.8858,6.8858,6.8858,6.8858,6.8335,6.7875,6.7875,6.7844,6.7598,6.6952,6.7445,6.7568,6.6921,6.6888,6.686,6.6858,6.6242,6.5873,6.5873,6.5257,6.4888,6.4888,6.4888,6.4888,6.4888,6.4888,6.4888,6.4888,6.4888,6.4888,6.4888,6.4888,6.4918,6.7429,6.6748,6.539,6.3982,0.0,0.0,0.0,0.0,0.0,0.0,0.0,0.0,0.0,0.0,0.0,0.0,0.0,0.0,0.0,0.0,0.0,0.0,0.0,0.0,0.0,0.0,0.0,0.0,0.0,0.0,6.4706,6.6581,6.892,7.1906,7.2244,7.2552,7.3014,7.3014,7.3014,7.3014,7.3014,7.3014,7.3014,7.3014,7.3014,7.3014,7.3014,7.3014,7.3014,7.3014,7.3014,7.3014,7.3014,7.3014,7.3107,7.3753,7.3722,7.3322,7.3107,7.2583,7.1998,7.1998,7.1198,7.0182,6.9967,6.9413,6.8919,6.8919,6.8919,6.8919,6.8919,6.8919,6.8919,6.8919,6.8919,6.8919,6.8919,6.8919,6.8919,6.8919,6.8919,6.8919,6.8919,6.8705,6.8427,6.7968,6.7506,6.7137,6.695,6.7075,6.7137,6.6921,6.6519,6.6427,6.686,6.6304,6.5903,6.5903,6.5288,6.4888,6.4888,6.4888,6.4888,6.4888,6.4888,6.4888,6.4888,6.4888,6.4888,6.4888,6.4888,6.4888,7.1368,7.0837,6.9688,6.8325,6.6061,0.0,6.0303,0.0,0.0,0.0,0.0,0.0,0.0,0.0,0.0,0.0,0.0,0.0,0.0,0.0,0.0,0.0,0.0,0.0,0.0,0.0,0.0,0.0,0.0,0.0,0.0,0.0,6.7596,7.1505,7.1875,7.2337,7.3014,7.3014,7.3014,7.3014,7.3014,7.3014,7.3014,7.3014,7.3014,7.3014,7.3014,7.3014,7.3014,7.3014,7.3014,7.3014,7.3014,7.3014,7.3076,7.3476,7.3353,7.3014,7.3014,7.2737,7.2337,7.209,7.1228,7.0213,6.9967,6.9413,6.8919,6.8919,6.8919,6.8919,6.8919,6.8919,6.8919,6.8919,6.8919,6.8919,6.8919,6.8919,6.8919,6.8919,6.8919,6.8919,6.8919,6.8919,6.8735,6.8335,6.7904,6.7535,6.7291,6.7473,6.7535,6.726,6.686,6.6796,6.7198,6.6642,6.6273,6.6273,6.5411,6.4888,6.4888,6.4888,6.4888,6.4888,6.4888,6.4888,6.4888,6.4888,6.4888,6.4888,6.4888,6.4888]}]]